[[{"header":{"parameterUnit":"m.s-1","parameterCategory":1,"la1":31.0,"la2":29.5877,"lo1":-88.7671,"lo2":-86.6584,"dy":0.0162,"dx":0.0185,"nx":115,"ny":88,"refTime":"2023-11-12T06:00:00:Z","depth":0,"parameterNumber":2,"parameterNumberName":"U-component_of_WINDS"},"data":[0.0,0.0,0.0,0.0,0.0,0.0,0.0,0.0,0.0,0.0,0.0,0.0,0.0,0.0,0.0,0.0,0.0,0.0,0.0,0.0,0.0,0.0,0.0,0.0,0.0,0.0,0.0,0.0,0.0,0.0,0.0,0.0,0.0,0.0,0.0,0.0,0.0,0.0,0.0,0.0,0.0,0.0,0.0,0.0,0.0,0.0,0.0,0.0,0.0,0.0,0.0,0.0,0.0,0.0,0.0,0.0,0.0,0.0,0.0,0.0,0.0,0.0,0.0,0.0,0.0,0.0,0.0,0.0,0.0,0.0,0.0,0.0,0.0,0.0,0.0,0.0,0.0,0.0,0.0,0.0,0.0,0.0,0.0,0.0,0.0,0.0,0.0,0.0,0.0,0.0,0.0,0.0,0.0,0.0,0.0,0.0,0.0,0.0,0.0,0.0,0.0,0.0,0.0,0.0,0.0,0.0,0.0,0.0,0.0,0.0,0.0,0.0,0.0,0.0,0.0,0.0,0.0,0.0,0.0,0.0,0.0,0.0,0.0,0.0,0.0,0.0,0.0,0.0,0.0,0.0,0.0,0.0,0.0,0.0,0.0,0.0,0.0,0.0,0.0,0.0,0.0,0.0,0.0,0.0,0.0,0.0,0.0,0.0,0.0,0.0,0.0,0.0,0.0,0.0,0.0,0.0,0.0,0.0,0.0,0.0,0.0,0.0,0.0,0.0,0.0,0.0,0.0,0.0,0.0,0.0,0.0,0.0,0.0,0.0,0.0,0.0,0.0,0.0,0.0,0.0,0.0,0.0,0.0,0.0,0.0,0.0,0.0,0.0,0.0,0.0,0.0,0.0,0.0,0.0,0.0,0.0,0.0,0.0,0.0,0.0,0.0,0.0,0.0,0.0,0.0,0.0,0.0,0.0,0.0,0.0,0.0,0.0,0.0,0.0,0.0,0.0,0.0,0.0,0.0,0.0,0.0,0.0,0.0,0.0,0.0,0.0,0.0,0.0,0.0,0.0,0.0,0.0,0.0,0.0,0.0,0.0,0.0,0.0,0.0,0.0,0.0,0.0,0.0,0.0,0.0,0.0,0.0,0.0,0.0,0.0,0.0,0.0,0.0,0.0,0.0,0.0,0.0,0.0,0.0,0.0,0.0,0.0,0.0,0.0,0.0,0.0,0.0,0.0,0.0,0.0,0.0,0.0,0.0,0.0,0.0,0.0,0.0,0.0,0.0,0.0,0.0,0.0,0.0,0.0,0.0,0.0,0.0,0.0,0.0,0.0,0.0,0.0,0.0,0.0,0.0,0.0,0.0,0.0,0.0,0.0,0.0,0.0,0.0,0.0,0.0,0.0,0.0,0.0,0.0,0.0,0.0,0.0,0.0,0.0,0.0,0.0,0.0,0.0,0.0,0.0,0.0,0.0,0.0,0.0,0.0,0.0,0.0,0.0,0.0,0.0,0.0,0.0,0.0,0.0,0.0,0.0,0.0,0.0,0.0,0.0,0.0,0.0,0.0,0.0,0.0,0.0,0.0,0.0,0.0,0.0,0.0,0.0,0.0,0.0,0.0,0.0,0.0,0.0,0.0,0.0,0.0,0.0,0.0,0.0,0.0,0.0,0.0,0.0,0.0,0.0,0.0,0.0,0.0,0.0,0.0,0.0,0.0,0.0,0.0,0.0,0.0,0.0,0.0,0.0,0.0,0.0,0.0,0.0,0.0,0.0,0.0,0.0,0.0,0.0,0.0,0.0,0.0,0.0,0.0,0.0,0.0,0.0,0.0,0.0,0.0,0.0,0.0,0.0,0.0,0.0,0.0,0.0,0.0,0.0,0.0,0.0,0.0,0.0,0.0,0.0,0.0,0.0,0.0,0.0,0.0,0.0,0.0,0.0,0.0,0.0,0.0,0.0,0.0,0.0,0.0,0.0,0.0,0.0,0.0,0.0,0.0,0.0,0.0,0.0,0.0,0.0,0.0,0.0,0.0,0.0,0.0,0.0,0.0,0.0,0.0,0.0,0.0,0.0,0.0,0.0,0.0,0.0,0.0,0.0,0.0,0.0,0.0,0.0,0.0,0.0,0.0,0.0,0.0,0.0,0.0,0.0,0.0,0.0,0.0,0.0,0.0,0.0,0.0,0.0,0.0,0.0,0.0,0.0,0.0,0.0,0.0,0.0,0.0,0.0,0.0,0.0,0.0,0.0,0.0,0.0,0.0,0.0,0.0,0.0,0.0,0.0,0.0,0.0,0.0,0.0,0.0,0.0,0.0,0.0,0.0,0.0,0.0,0.0,0.0,0.0,0.0,0.0,0.0,0.0,0.0,0.0,0.0,0.0,0.0,0.0,0.0,0.0,0.0,0.0,0.0,0.0,0.0,0.0,0.0,0.0,0.0,0.0,0.0,0.0,0.0,0.0,0.0,0.0,0.0,0.0,0.0,0.0,0.0,0.0,0.0,0.0,0.0,0.0,0.0,0.0,0.0,0.0,0.0,0.0,0.0,0.0,0.0,0.0,0.0,0.0,0.0,0.0,0.0,0.0,0.0,0.0,0.0,0.0,0.0,0.0,0.0,0.0,0.0,0.0,0.0,0.0,0.0,0.0,0.0,0.0,0.0,0.0,0.0,0.0,0.0,0.0,0.0,0.0,0.0,0.0,0.0,0.0,0.0,0.0,0.0,0.0,0.0,0.0,0.0,0.0,0.0,0.0,0.0,0.0,0.0,0.0,0.0,0.0,0.0,0.0,0.0,0.0,0.0,0.0,0.0,0.0,0.0,0.0,0.0,0.0,0.0,0.0,0.0,0.0,0.0,0.0,0.0,0.0,0.0,0.0,0.0,0.0,0.0,0.0,0.0,0.0,0.0,0.0,0.0,0.0,0.0,0.0,0.0,0.0,0.0,0.0,0.0,0.0,0.0,0.0,0.0,0.0,0.0,0.0,0.0,0.0,0.0,0.0,0.0,0.0,0.0,0.0,0.0,0.0,0.0,0.0,0.0,0.0,0.0,0.0,0.0,0.0,0.0,0.0,0.0,0.0,0.0,0.0,0.0,0.0,0.0,0.0,0.0,0.0,0.0,0.0,0.0,0.0,0.0,0.0,0.0,0.0,0.0,0.0,0.0,0.0,0.0,0.0,0.0,0.0,0.0,0.0,0.0,0.0,0.0,0.0,0.0,0.0,0.0,0.0,0.0,0.0,0.0,0.0,0.0,0.0,0.0,0.0,0.0,0.0,0.0,0.0,0.0,0.0,0.0,0.0,0.0,0.0,0.0,0.0,0.0,0.0,0.0,0.0,0.0,0.0,0.0,0.0,0.0,0.0,0.0,0.0,0.0,0.0,0.0,0.0,0.0,0.0,0.0,0.0,0.0,0.0,0.0,0.0,0.0,0.0,0.0,0.0,0.0,0.0,0.0,0.0,0.0,0.0,0.0,0.0,0.0,0.0,0.0,0.0,0.0,0.0,0.0,0.0,0.0,0.0,0.0,0.0,0.0,0.0,0.0,0.0,0.0,0.0,0.0,0.0,0.0,0.0,0.0,0.0,0.0,0.0,0.0,0.0,0.0,0.0,0.0,0.0,0.0,0.0,0.0,0.0,0.0,0.0,0.0,0.0,0.0,0.0,0.0,0.0,0.0,0.0,0.0,0.0,0.0,0.0,0.0,0.0,0.0,0.0,0.0,0.0,0.0,0.0,0.0,0.0,0.0,0.0,0.0,0.0,0.0,0.0,0.0,0.0,0.0,0.0,0.0,0.0,0.0,0.0,0.0,0.0,0.0,0.0,0.0,0.0,0.0,0.0,0.0,0.0,0.0,0.0,0.0,0.0,0.0,0.0,0.0,0.0,0.0,0.0,0.0,0.0,0.0,0.0,0.0,0.0,0.0,0.0,0.0,0.0,0.0,0.0,0.0,0.0,0.0,0.0,0.0,0.0,0.0,0.0,0.0,0.0,0.0,0.0,0.0,0.0,0.0,0.0,0.0,0.0,0.0,0.0,0.0,0.0,0.0,0.0,0.0,0.0,0.0,0.0,0.0,0.0,0.0,0.0,0.0,0.0,0.0,0.0,0.0,0.0,0.0,0.0,0.0,0.0,0.0,0.0,0.0,0.0,0.0,0.0,0.0,0.0,0.0,0.0,0.0,0.0,0.0,0.0,0.0,0.0,0.0,0.0,0.0,0.0,0.0,0.0,0.0,0.0,0.0,0.0,0.0,0.0,0.0,0.0,0.0,0.0,0.0,0.0,0.0,0.0,0.0,0.0,0.0,0.0,0.0,0.0,1.7773,0.0,0.0,0.0,0.0,0.0,0.0,0.0,0.0,0.0,0.0,0.0,0.0,0.0,0.0,0.0,0.0,0.0,0.0,0.0,0.0,0.0,0.0,0.0,0.0,0.0,0.0,0.0,0.0,0.0,0.0,0.0,0.0,0.0,0.0,0.0,0.0,0.0,0.0,0.0,0.0,0.0,0.0,0.0,0.0,0.0,0.0,0.0,0.0,0.0,0.0,0.0,0.0,0.0,0.0,0.0,0.0,0.0,0.0,0.0,0.0,0.0,0.0,0.0,0.0,0.0,0.0,0.0,0.0,0.0,0.0,0.0,0.0,0.0,0.0,0.0,0.0,0.0,0.0,0.0,0.0,0.0,0.0,0.0,0.0,0.0,0.0,0.0,0.0,0.0,0.0,0.0,0.0,0.0,0.0,0.0,0.0,0.0,0.0,0.0,0.0,0.0,0.0,0.0,0.0,0.0,0.0,0.0,0.0,0.0,0.0,1.8205,1.7929,1.7912,1.7912,1.7929,0.0,0.0,0.0,0.0,0.0,0.0,0.0,0.0,0.0,0.0,0.0,0.0,0.0,0.0,0.0,0.0,0.0,0.0,0.0,0.0,0.0,0.0,0.0,0.0,0.0,0.0,0.0,0.0,0.0,0.0,0.0,0.0,0.0,0.0,0.0,0.0,0.0,0.0,0.0,0.0,0.0,0.0,0.0,0.0,0.0,0.0,0.0,0.0,0.0,0.0,0.0,0.0,0.0,0.0,0.0,0.0,0.0,0.0,0.0,0.0,0.0,0.0,0.0,0.0,0.0,0.0,0.0,0.0,0.0,0.0,0.0,0.0,0.0,0.0,0.0,0.0,0.0,0.0,0.0,0.0,0.0,0.0,0.0,0.0,0.0,0.0,0.0,0.0,0.0,0.0,0.0,0.0,0.0,0.0,0.0,0.0,0.0,0.0,0.0,0.0,0.0,0.0,0.0,0.0,0.0,0.0,0.0,0.0,0.0,0.0,0.0,0.0,1.8761,1.8751,1.8957,0.0,0.0,0.0,0.0,0.0,0.0,0.0,0.0,0.0,0.0,0.0,0.0,0.0,0.0,0.0,0.0,0.0,0.0,0.0,0.0,0.0,0.0,0.0,0.0,0.0,0.0,0.0,0.0,0.0,0.0,0.0,0.0,0.0,0.0,0.0,0.0,0.0,0.0,0.0,0.0,0.0,0.0,0.0,0.0,0.0,0.0,0.0,0.0,0.0,0.0,0.0,0.0,0.0,0.0,0.0,0.0,0.0,0.0,0.0,0.0,0.0,0.0,0.0,0.0,0.0,0.0,0.0,0.0,0.0,0.0,0.0,0.0,0.0,0.0,0.0,0.0,0.0,0.0,0.0,0.0,0.0,0.0,0.0,0.0,0.0,0.0,0.0,0.0,0.0,0.0,0.0,0.0,0.0,0.0,0.0,0.0,0.0,0.0,0.0,0.0,0.0,0.0,0.0,0.0,0.0,0.0,0.0,0.0,0.0,0.0,1.9227,2.1817,2.1343,0.0,2.1957,0.0,0.0,0.0,0.0,0.0,0.0,0.0,0.0,0.0,0.0,0.0,0.0,0.0,0.0,0.0,0.0,0.0,0.0,0.0,0.0,0.0,0.0,0.0,0.0,0.0,0.0,0.0,0.0,0.0,0.0,0.0,0.0,0.0,0.0,0.0,0.0,0.0,0.0,0.0,0.0,0.0,0.0,0.0,0.0,0.0,0.0,0.0,0.0,0.0,0.0,0.0,0.0,0.0,0.0,0.0,0.0,0.0,0.0,0.0,0.0,0.0,0.0,0.0,0.0,0.0,0.0,0.0,0.0,0.0,0.0,0.0,0.0,0.0,0.0,0.0,0.0,0.0,0.0,0.0,0.0,0.0,0.0,0.0,0.0,0.0,0.0,0.0,0.0,0.0,0.0,0.0,0.0,0.0,0.0,0.0,0.0,0.0,0.0,0.0,0.0,0.0,0.0,0.0,0.0,0.0,0.0,0.0,0.0,0.0,0.0,2.0211,2.175,2.1521,2.1396,0.0,0.0,0.0,0.0,0.0,0.0,0.0,0.0,0.0,0.0,0.0,0.0,0.0,0.0,0.0,0.0,0.0,0.0,0.0,0.0,0.0,0.0,0.0,0.0,0.0,0.0,0.0,0.0,0.0,0.0,0.0,0.0,0.0,0.0,0.0,0.0,0.0,0.0,0.0,0.0,0.0,0.0,0.0,0.0,0.0,0.0,0.0,0.0,0.0,0.0,0.0,0.0,0.0,0.0,0.0,0.0,0.0,0.0,0.0,0.0,0.0,0.0,0.0,0.0,0.0,0.0,0.0,0.0,0.0,0.0,0.0,0.0,0.0,0.0,0.0,0.0,0.0,0.0,0.0,0.0,0.0,0.0,0.0,0.0,0.0,0.0,0.0,0.0,0.0,0.0,0.0,0.0,0.0,0.0,0.0,0.0,0.0,0.0,0.0,0.0,0.0,0.0,0.0,0.0,0.0,0.0,0.0,0.0,0.0,0.0,2.0475,2.137,2.2575,2.2094,2.1574,2.126,0.0,0.0,0.0,0.0,0.0,0.0,0.0,0.0,0.0,0.0,0.0,0.0,0.0,0.0,0.0,0.0,0.0,0.0,0.0,0.0,0.0,0.0,0.0,0.0,0.0,0.0,0.0,0.0,0.0,0.0,0.0,0.0,0.0,0.0,0.0,0.0,0.0,0.0,0.0,0.0,0.0,0.0,0.0,0.0,0.0,0.0,0.0,0.0,0.0,0.0,0.0,0.0,0.0,0.0,0.0,0.0,0.0,0.0,0.0,0.0,0.0,0.0,0.0,0.0,0.0,0.0,0.0,0.0,0.0,0.0,0.0,0.0,0.0,0.0,0.0,0.0,0.0,0.0,0.0,0.0,0.0,0.0,0.0,0.0,0.0,0.0,0.0,0.0,0.0,0.0,0.0,0.0,0.0,0.0,0.0,0.0,0.0,0.0,0.0,0.0,0.0,0.0,0.0,0.0,0.0,0.0,0.0,0.0,2.4259,2.2415,2.279,2.5652,2.3783,2.2631,0.0,0.0,0.0,0.0,0.0,0.0,0.0,0.0,0.0,0.0,0.0,0.0,0.0,0.0,0.0,0.0,0.0,0.0,0.0,0.0,0.0,0.0,0.0,0.0,0.0,0.0,0.0,0.0,0.0,0.0,0.0,0.0,0.0,0.0,0.0,0.0,0.0,0.0,0.0,0.0,0.0,0.0,0.0,0.0,0.0,0.0,0.0,0.0,0.0,0.0,0.0,0.0,0.0,0.0,0.0,0.0,0.0,0.0,0.0,0.0,0.0,0.0,0.0,0.0,0.0,0.0,0.0,0.0,0.0,0.0,0.0,0.0,0.0,0.0,0.0,0.0,0.0,0.0,0.0,0.0,0.0,0.0,0.0,0.0,0.0,0.0,0.0,0.0,0.0,0.0,0.0,0.0,0.0,0.0,0.0,0.0,0.0,0.0,0.0,0.0,0.0,0.0,0.0,0.0,0.0,0.0,0.0,0.0,0.0,1.9809,2.0855,2.3038,2.6257,2.338,2.2166,0.0,0.0,0.0,0.0,0.0,0.0,0.0,0.0,0.0,0.0,0.0,0.0,0.0,0.0,0.0,0.0,0.0,0.0,0.0,0.0,0.0,0.0,0.0,0.0,0.0,0.0,0.0,0.0,0.0,0.0,0.0,0.0,0.0,0.0,0.0,0.0,0.0,0.0,0.0,0.0,0.0,0.0,0.0,0.0,0.0,0.0,0.0,0.0,0.0,0.0,0.0,0.0,0.0,0.0,0.0,0.0,0.0,0.0,0.0,0.0,0.0,0.0,0.0,0.0,0.0,0.0,0.0,0.0,0.0,0.0,0.0,0.0,0.0,0.0,0.0,0.0,0.0,0.0,0.0,0.0,0.0,0.0,0.0,0.0,0.0,0.0,0.0,0.0,0.0,0.0,0.0,0.0,0.0,0.0,0.0,0.0,0.0,0.0,0.0,0.0,0.0,0.0,0.0,0.0,0.0,0.0,0.0,0.0,0.0,1.9293,0.0,2.4164,2.6039,2.3272,2.17,0.0,0.0,0.0,0.0,0.0,0.0,0.0,0.0,0.0,0.0,0.0,0.0,0.0,0.0,0.0,0.0,0.0,0.0,0.0,0.0,0.0,0.0,0.0,0.0,0.0,0.0,0.0,0.0,0.0,0.0,0.0,0.0,0.0,0.0,0.0,0.0,0.0,0.0,0.0,0.0,0.0,0.0,0.0,0.0,0.0,0.0,0.0,0.0,0.0,0.0,0.0,0.0,0.0,0.0,0.0,0.0,0.0,0.0,0.0,0.0,0.0,0.0,0.0,0.0,0.0,0.0,0.0,0.0,0.0,0.0,0.0,0.0,0.0,0.0,0.0,0.0,0.0,0.0,0.0,0.0,0.0,0.0,0.0,0.0,0.0,0.0,0.0,0.0,0.0,0.0,0.0,0.0,0.0,0.0,0.0,0.0,0.0,0.0,0.0,0.0,0.0,0.0,0.0,0.0,0.0,0.0,0.0,0.0,1.9309,2.3784,2.5641,2.6094,2.5284,2.3541,2.1331,0.0,0.0,0.0,0.0,0.0,0.0,0.0,0.0,0.0,0.0,0.0,0.0,0.0,0.0,0.0,0.0,0.0,0.0,0.0,0.0,0.0,0.0,0.0,0.0,0.0,0.0,0.0,0.0,0.0,0.0,0.0,0.0,0.0,0.0,0.0,0.0,0.0,0.0,0.0,0.0,0.0,0.0,0.0,0.0,0.0,0.0,0.0,0.0,0.0,0.0,0.0,0.0,0.0,0.0,0.0,0.0,0.0,0.0,0.0,0.0,0.0,0.0,0.0,0.0,0.0,0.0,0.0,0.0,0.0,0.0,0.0,0.0,0.0,0.0,0.0,0.0,0.0,0.0,0.0,0.0,0.0,0.0,0.0,0.0,0.0,0.0,0.0,0.0,0.0,0.0,0.0,0.0,0.0,0.0,0.0,0.0,0.0,0.0,0.0,0.0,0.0,0.0,0.0,0.0,0.0,0.0,0.0,0.0,0.0,2.1617,2.3391,2.5561,2.786,2.3298,2.1653,0.0,0.0,0.0,0.0,0.0,0.0,0.0,0.0,0.0,0.0,0.0,0.0,0.0,0.0,0.0,0.0,0.0,0.0,0.0,0.0,0.0,0.0,0.0,0.0,0.0,0.0,0.0,0.0,0.0,0.0,0.0,0.0,0.0,0.0,0.0,0.0,0.0,0.0,0.0,0.0,0.0,0.0,0.0,0.0,0.0,0.0,0.0,0.0,0.0,0.0,0.0,0.0,0.0,0.0,0.0,0.0,0.0,0.0,0.0,0.0,0.0,0.0,0.0,0.0,0.0,0.0,0.0,0.0,0.0,0.0,0.0,0.0,0.0,0.0,0.0,0.0,0.0,0.0,0.0,0.0,0.0,0.0,0.0,0.0,0.0,0.0,0.0,0.0,0.0,0.0,0.0,0.0,0.0,0.0,0.0,0.0,0.0,0.0,0.0,0.0,0.0,0.0,0.0,0.0,0.0,0.0,0.0,0.0,0.0,2.392,2.5411,2.693,2.8438,2.4433,2.2682,2.3617,0.0,0.0,0.0,0.0,0.0,0.0,0.0,0.0,0.0,0.0,0.0,0.0,0.0,0.0,0.0,0.0,0.0,0.0,0.0,0.0,0.0,0.0,0.0,0.0,0.0,0.0,0.0,0.0,0.0,0.0,0.0,0.0,0.0,0.0,0.0,0.0,0.0,0.0,0.0,0.0,0.0,0.0,0.0,0.0,0.0,0.0,0.0,0.0,0.0,0.0,0.0,0.0,0.0,0.0,0.0,0.0,0.0,0.0,0.0,0.0,0.0,0.0,0.0,0.0,0.0,0.0,0.0,0.0,0.0,0.0,0.0,0.0,0.0,0.0,0.0,0.0,0.0,0.0,0.0,0.0,0.0,0.0,0.0,0.0,0.0,0.0,0.0,0.0,0.0,0.0,0.0,0.0,0.0,0.0,0.0,0.0,0.0,0.0,0.0,0.0,0.0,0.0,0.0,0.0,0.0,0.0,0.0,0.0,2.9702,3.1033,3.0347,2.7534,2.67,2.4392,0.0,0.0,0.0,0.0,0.0,0.0,0.0,0.0,0.0,0.0,0.0,0.0,0.0,0.0,0.0,0.0,0.0,0.0,0.0,0.0,0.0,0.0,0.0,0.0,0.0,0.0,0.0,0.0,0.0,0.0,0.0,0.0,0.0,0.0,0.0,0.0,0.0,0.0,0.0,0.0,0.0,0.0,0.0,0.0,0.0,0.0,0.0,0.0,0.0,0.0,0.0,0.0,0.0,0.0,0.0,0.0,0.0,0.0,0.0,0.0,0.0,0.0,0.0,0.0,0.0,0.0,0.0,0.0,0.0,0.0,0.0,0.0,0.0,0.0,0.0,0.0,0.0,0.0,0.0,0.0,0.0,0.0,0.0,0.0,0.0,0.0,0.0,0.0,0.0,0.0,0.0,0.0,0.0,0.0,0.0,0.0,0.0,0.0,0.0,0.0,0.0,0.0,0.0,0.0,0.0,0.0,0.0,0.0,0.0,3.2679,3.5228,3.5602,3.3583,2.9105,2.6243,0.0,0.0,0.0,0.0,0.0,0.0,0.0,0.0,0.0,0.0,0.0,0.0,0.0,0.0,0.0,0.0,0.0,0.0,0.0,0.0,0.0,0.0,0.0,0.0,0.0,0.0,0.0,0.0,0.0,0.0,0.0,0.0,0.0,0.0,0.0,0.0,0.0,0.0,0.0,0.0,0.0,0.0,0.0,0.0,0.0,0.0,0.0,0.0,0.0,0.0,0.0,0.0,0.0,0.0,0.0,0.0,0.0,0.0,0.0,0.0,0.0,0.0,0.0,0.0,0.0,0.0,0.0,0.0,0.0,0.0,0.0,0.0,0.0,0.0,0.0,0.0,0.0,0.0,0.0,0.0,0.0,0.0,0.0,0.0,0.0,0.0,0.0,0.0,0.0,0.0,0.0,0.0,0.0,0.0,0.0,0.0,0.0,0.0,0.0,0.0,0.0,0.0,0.0,0.0,0.0,0.0,0.0,0.0,3.2435,3.5744,3.8485,3.9268,3.793,3.3278,2.9378,0.0,0.0,0.0,0.0,0.0,0.0,0.0,0.0,0.0,0.0,0.0,0.0,0.0,0.0,0.0,0.0,0.0,0.0,0.0,0.0,0.0,0.0,0.0,0.0,0.0,0.0,0.0,0.0,0.0,0.0,0.0,0.0,0.0,0.0,0.0,0.0,0.0,0.0,0.0,0.0,0.0,0.0,0.0,0.0,0.0,0.0,0.0,0.0,0.0,0.0,0.0,0.0,0.0,0.0,0.0,0.0,0.0,0.0,0.0,0.0,0.0,0.0,0.0,0.0,0.0,0.0,0.0,0.0,0.0,0.0,0.0,0.0,0.0,0.0,0.0,0.0,0.0,0.0,0.0,0.0,0.0,0.0,0.0,0.0,0.0,0.0,0.0,0.0,0.0,0.0,0.0,0.0,0.0,0.0,0.0,0.0,0.0,0.0,0.0,0.0,0.0,0.0,0.0,0.0,0.0,0.0,0.0,0.0,3.5487,3.8443,4.0858,4.1588,4.046,3.759,3.2812,0.0,0.0,0.0,0.0,0.0,0.0,0.0,0.0,0.0,0.0,0.0,0.0,0.0,0.0,0.0,0.0,0.0,0.0,0.0,0.0,0.0,0.0,0.0,0.0,0.0,0.0,0.0,0.0,0.0,0.0,0.0,0.0,0.0,0.0,0.0,0.0,0.0,0.0,0.0,0.0,0.0,0.0,0.0,0.0,0.0,0.0,0.0,0.0,0.0,0.0,0.0,0.0,0.0,0.0,0.0,0.0,0.0,0.0,0.0,0.0,0.0,0.0,0.0,0.0,0.0,0.0,0.0,0.0,0.0,0.0,0.0,0.0,0.0,0.0,0.0,0.0,0.0,0.0,0.0,0.0,0.0,0.0,0.0,0.0,0.0,0.0,0.0,0.0,0.0,0.0,0.0,0.0,0.0,0.0,0.0,0.0,0.0,0.0,0.0,0.0,0.0,0.0,0.0,0.0,0.0,0.0,0.0,0.0,3.6125,3.911,4.1501,4.2006,4.0513,3.6879,3.3034,0.0,0.0,0.0,0.0,0.0,0.0,0.0,0.0,0.0,0.0,0.0,0.0,0.0,0.0,0.0,0.0,0.0,0.0,0.0,0.0,0.0,0.0,0.0,0.0,0.0,0.0,0.0,0.0,0.0,0.0,0.0,0.0,0.0,0.0,0.0,0.0,0.0,0.0,0.0,0.0,0.0,0.0,0.0,0.0,0.0,0.0,0.0,0.0,2.2167,0.0,0.0,0.0,0.0,0.0,0.0,0.0,0.0,0.0,0.0,0.0,0.0,0.0,0.0,0.0,0.0,0.0,0.0,0.0,0.0,0.0,0.0,0.0,0.0,0.0,0.0,0.0,0.0,0.0,0.0,0.0,0.0,0.0,0.0,0.0,0.0,0.0,0.0,0.0,0.0,0.0,0.0,0.0,0.0,0.0,0.0,0.0,0.0,0.0,0.0,0.0,0.0,0.0,0.0,0.0,0.0,0.0,0.0,0.0,3.7677,4.0549,4.2424,4.2705,4.126,3.7969,3.4287,0.0,0.0,0.0,0.0,0.0,0.0,0.0,0.0,0.0,0.0,0.0,0.0,0.0,0.0,0.0,0.0,0.0,0.0,0.0,0.0,0.0,0.0,0.0,0.0,0.0,0.0,0.0,0.0,0.0,0.0,0.0,0.0,0.0,0.0,0.0,0.0,0.0,0.0,0.0,0.0,0.0,0.0,0.0,0.0,0.0,0.0,0.0,0.0,0.0,0.0,0.0,0.0,0.0,0.0,0.0,0.0,0.0,0.0,0.0,0.0,0.0,0.0,0.0,0.0,0.0,0.0,0.0,0.0,0.0,0.0,0.0,0.0,0.0,0.0,0.0,0.0,0.0,0.0,0.0,0.0,0.0,0.0,0.0,0.0,0.0,0.0,0.0,0.0,0.0,0.0,0.0,0.0,0.0,0.0,0.0,0.0,0.0,0.0,0.0,0.0,0.0,0.0,0.0,0.0,0.0,0.0,0.0,3.5101,3.8917,4.1905,4.316,4.32,4.2076,3.95,3.5881,3.119,0.0,0.0,0.0,0.0,0.0,0.0,0.0,0.0,0.0,0.0,0.0,0.0,0.0,0.0,0.0,0.0,0.0,0.0,0.0,0.0,0.0,0.0,0.0,0.0,0.0,0.0,0.0,0.0,0.0,0.0,0.0,0.0,0.0,0.0,0.0,0.0,0.0,0.0,2.0653,2.2659,0.0,0.0,0.0,0.0,0.0,0.0,0.0,0.0,2.4264,0.0,0.0,0.0,0.0,0.0,0.0,0.0,0.0,0.0,0.0,0.0,0.0,0.0,0.0,0.0,0.0,0.0,0.0,0.0,0.0,0.0,0.0,0.0,0.0,0.0,0.0,0.0,0.0,0.0,0.0,0.0,0.0,0.0,0.0,0.0,0.0,0.0,0.0,0.0,0.0,0.0,0.0,0.0,0.0,0.0,0.0,0.0,0.0,0.0,0.0,0.0,0.0,0.0,0.0,0.0,0.0,3.5145,3.5564,3.7811,4.2054,4.2806,4.2597,4.1436,3.9724,3.6859,3.2817,0.0,0.0,0.0,0.0,0.0,0.0,0.0,0.0,0.0,0.0,0.0,0.0,0.0,0.0,0.0,0.0,0.0,0.0,0.0,0.0,0.0,0.0,0.0,0.0,0.0,0.0,0.0,0.0,0.0,0.0,0.0,0.0,0.0,0.0,0.0,0.0,0.0,0.0,0.0,2.6866,2.7878,0.0,0.0,0.0,0.0,0.0,0.0,0.0,0.0,2.4933,0.0,0.0,0.0,0.0,0.0,0.0,0.0,0.0,0.0,0.0,0.0,0.0,0.0,0.0,0.0,0.0,0.0,0.0,0.0,0.0,0.0,0.0,0.0,0.0,0.0,0.0,0.0,0.0,0.0,0.0,0.0,0.0,0.0,0.0,0.0,0.0,0.0,0.0,0.0,0.0,0.0,0.0,0.0,0.0,0.0,0.0,0.0,0.0,0.0,0.0,0.0,0.0,0.0,0.0,0.0,3.4161,3.6236,3.8944,4.2436,4.2587,4.2158,4.1277,3.8065,3.5175,0.0,0.0,0.0,0.0,0.0,0.0,0.0,0.0,0.0,0.0,0.0,0.0,0.0,0.0,0.0,0.0,0.0,0.0,0.0,0.0,0.0,0.0,0.0,0.0,0.0,0.0,0.0,0.0,0.0,0.0,0.0,0.0,0.0,0.0,0.0,0.0,0.0,0.0,0.0,0.0,2.8072,2.8907,2.8976,0.0,0.0,0.0,0.0,0.0,0.0,2.6373,2.5728,0.0,0.0,0.0,0.0,0.0,0.0,0.0,0.0,0.0,0.0,0.0,0.0,0.0,0.0,0.0,0.0,0.0,0.0,0.0,0.0,0.0,0.0,0.0,0.0,0.0,0.0,0.0,0.0,0.0,0.0,0.0,0.0,0.0,0.0,0.0,0.0,0.0,0.0,0.0,0.0,0.0,0.0,0.0,0.0,0.0,0.0,0.0,0.0,0.0,0.0,0.0,0.0,0.0,0.0,0.0,3.2456,3.6251,3.9647,4.2459,4.2235,4.1731,4.1102,3.6885,3.3872,0.0,0.0,0.0,0.0,0.0,0.0,0.0,0.0,0.0,0.0,0.0,0.0,0.0,0.0,0.0,0.0,0.0,0.0,0.0,0.0,0.0,0.0,0.0,0.0,0.0,0.0,0.0,0.0,0.0,0.0,0.0,0.0,0.0,0.0,0.0,0.0,0.0,0.0,0.0,0.0,0.0,2.996,3.01,2.8994,0.0,0.0,0.0,0.0,2.8875,2.8567,0.0,0.0,0.0,0.0,0.0,0.0,0.0,0.0,0.0,0.0,0.0,0.0,0.0,0.0,0.0,0.0,0.0,0.0,0.0,0.0,0.0,0.0,0.0,0.0,0.0,0.0,0.0,0.0,0.0,0.0,0.0,0.0,0.0,0.0,0.0,0.0,0.0,0.0,0.0,0.0,0.0,0.0,0.0,0.0,0.0,0.0,0.0,0.0,0.0,0.0,0.0,0.0,0.0,0.0,0.0,0.0,3.2081,3.4628,3.7715,4.1277,4.1453,4.1152,4.0575,3.814,3.5627,0.0,0.0,0.0,0.0,0.0,0.0,0.0,0.0,0.0,0.0,0.0,0.0,0.0,0.0,0.0,0.0,0.0,0.0,0.0,0.0,0.0,0.0,0.0,0.0,0.0,0.0,0.0,0.0,0.0,0.0,0.0,0.0,0.0,0.0,0.0,0.0,0.0,0.0,0.0,0.0,0.0,3.2817,3.1432,3.1035,3.0733,0.0,0.0,3.1155,3.2336,3.3219,0.0,0.0,0.0,0.0,0.0,0.0,0.0,0.0,0.0,0.0,0.0,0.0,0.0,0.0,0.0,0.0,0.0,0.0,0.0,0.0,0.0,0.0,0.0,0.0,0.0,0.0,0.0,0.0,0.0,0.0,0.0,0.0,0.0,0.0,0.0,0.0,0.0,0.0,0.0,0.0,0.0,0.0,0.0,0.0,0.0,0.0,0.0,0.0,0.0,0.0,0.0,0.0,0.0,0.0,0.0,2.7688,3.2139,3.5655,3.8693,4.1177,4.1001,4.0575,4.0049,3.6358,3.352,0.0,0.0,0.0,0.0,0.0,0.0,0.0,0.0,0.0,0.0,0.0,0.0,0.0,0.0,0.0,0.0,0.0,0.0,0.0,0.0,0.0,0.0,0.0,0.0,0.0,0.0,0.0,0.0,0.0,0.0,0.0,0.0,0.0,0.0,0.0,0.0,0.0,0.0,0.0,0.0,0.0,0.0,3.3345,3.3524,0.0,0.0,0.0,3.3671,3.4801,0.0,0.0,0.0,0.0,0.0,0.0,0.0,0.0,0.0,0.0,0.0,0.0,0.0,0.0,0.0,0.0,0.0,0.0,0.0,0.0,0.0,0.0,0.0,0.0,0.0,0.0,0.0,0.0,0.0,0.0,0.0,0.0,0.0,0.0,0.0,0.0,0.0,0.0,0.0,0.0,0.0,0.0,0.0,0.0,0.0,0.0,0.0,0.0,0.0,0.0,0.0,0.0,0.0,0.0,0.0,0.0,0.0,3.1989,3.6406,3.9396,4.0826,4.0526,4.0049,3.9472,3.5303,0.0,0.0,0.0,0.0,0.0,0.0,0.0,0.0,0.0,0.0,0.0,0.0,0.0,0.0,0.0,0.0,0.0,0.0,0.0,0.0,0.0,0.0,0.0,0.0,0.0,0.0,0.0,1.4773,0.0,0.0,0.0,0.0,0.0,0.0,0.0,0.0,0.0,0.0,0.0,0.0,0.0,0.0,3.3859,3.4303,3.5146,3.569,0.0,0.0,3.5668,3.6406,3.6382,3.4852,0.0,0.0,0.0,0.0,0.0,0.0,0.0,0.0,0.0,0.0,0.0,0.0,0.0,0.0,0.0,0.0,0.0,0.0,0.0,0.0,0.0,0.0,0.0,0.0,0.0,0.0,0.0,0.0,0.0,0.0,0.0,0.0,0.0,0.0,0.0,0.0,0.0,0.0,0.0,0.0,0.0,0.0,0.0,0.0,0.0,0.0,0.0,0.0,0.0,0.0,0.0,0.0,0.0,0.0,0.0,3.1486,3.5805,3.8617,3.9747,3.9772,3.9522,3.8944,3.656,3.4003,0.0,0.0,0.0,0.0,0.0,0.0,0.0,0.0,0.0,0.0,0.0,0.0,0.0,0.0,0.0,0.0,0.0,0.0,0.0,0.0,0.0,0.0,0.0,0.0,0.0,0.0,0.0,0.0,0.0,0.0,0.0,0.0,0.0,0.0,0.0,0.0,0.0,0.0,0.0,0.0,0.0,3.3193,3.3434,3.5189,3.6777,0.0,0.0,3.727,3.6928,3.8892,3.8311,3.193,0.0,0.0,0.0,0.0,0.0,0.0,0.0,0.0,0.0,0.0,0.0,0.0,0.0,0.0,0.0,0.0,0.0,0.0,0.0,0.0,0.0,0.0,0.0,0.0,0.0,0.0,0.0,0.0,0.0,0.0,0.0,0.0,0.0,0.0,0.0,0.0,0.0,0.0,0.0,0.0,0.0,0.0,0.0,0.0,0.0,0.0,0.0,0.0,0.0,0.0,0.0,0.0,0.0,2.8156,3.1366,3.4959,3.7531,3.9052,3.8633,3.7957,3.7132,3.5138,3.2578,0.0,0.0,0.0,0.0,0.0,0.0,0.0,0.0,0.0,0.0,0.0,0.0,0.0,0.0,0.0,0.0,0.0,0.0,0.0,0.0,0.0,0.0,0.0,0.0,0.0,0.0,0.0,0.0,1.8404,1.8862,1.9238,0.0,0.0,0.0,0.0,0.0,0.0,0.0,0.0,0.0,0.0,3.4713,3.6667,3.793,0.0,0.0,3.9009,3.9093,3.8939,3.8556,3.685,3.2718,3.1132,0.0,0.0,0.0,0.0,0.0,0.0,0.0,0.0,0.0,0.0,0.0,0.0,0.0,0.0,0.0,0.0,0.0,0.0,0.0,0.0,0.0,0.0,0.0,0.0,0.0,0.0,0.0,0.0,0.0,0.0,0.0,0.0,0.0,0.0,0.0,0.0,0.0,0.0,0.0,0.0,0.0,0.0,0.0,0.0,0.0,0.0,0.0,0.0,0.0,0.0,0.0,0.0,2.8071,3.1593,3.4582,3.6962,3.8721,3.794,3.7123,3.6345,3.4283,3.1851,0.0,0.0,0.0,0.0,0.0,0.0,0.0,0.0,0.0,0.0,0.0,0.0,0.0,0.0,0.0,0.0,0.0,0.0,0.0,0.0,0.0,0.0,0.0,0.0,0.0,0.0,0.0,0.0,1.9795,1.9925,1.9784,0.0,0.0,0.0,0.0,0.0,0.0,0.0,0.0,0.0,0.0,3.5809,3.8039,3.911,3.9567,3.9117,3.9128,3.922,3.9175,3.7621,3.5444,3.2605,0.0,0.0,0.0,0.0,0.0,0.0,0.0,0.0,0.0,0.0,0.0,0.0,0.0,0.0,0.0,0.0,0.0,0.0,0.0,0.0,0.0,0.0,0.0,0.0,0.0,0.0,0.0,0.0,0.0,0.0,2.2194,0.0,0.0,0.0,0.0,0.0,0.0,0.0,0.0,0.0,0.0,0.0,0.0,0.0,0.0,0.0,0.0,0.0,0.0,0.0,0.0,0.0,0.0,2.8585,3.2035,3.4872,3.7128,3.8617,3.7917,3.7342,3.7054,3.4595,3.2417,3.068,0.0,0.0,0.0,0.0,0.0,0.0,0.0,0.0,0.0,0.0,0.0,0.0,0.0,0.0,0.0,0.0,0.0,0.0,0.0,0.0,0.0,0.0,0.0,0.0,0.0,0.0,1.9379,1.9306,1.9122,0.0,0.0,0.0,0.0,0.0,0.0,0.0,0.0,0.0,0.0,3.3282,3.6042,3.6474,3.7985,3.8986,3.8537,3.7807,3.7199,3.7036,3.6409,3.4836,0.0,0.0,0.0,0.0,0.0,0.0,0.0,0.0,0.0,0.0,0.0,0.0,0.0,0.0,0.0,0.0,0.0,0.0,0.0,0.0,0.0,0.0,0.0,0.0,0.0,0.0,0.0,2.797,2.7466,0.0,0.0,0.0,0.0,0.0,0.0,0.0,0.0,0.0,0.0,0.0,3.1432,3.2319,0.0,0.0,0.0,0.0,0.0,0.0,0.0,0.0,0.0,0.0,0.0,0.0,2.8781,3.2154,3.441,3.6377,3.8067,3.6994,3.6187,3.5812,3.4111,3.1771,2.8757,0.0,0.0,0.0,0.0,0.0,0.0,0.0,0.0,0.0,0.0,0.0,0.0,0.0,0.0,0.0,0.0,0.0,0.0,0.0,0.0,0.0,0.0,0.0,0.0,0.0,2.0209,0.0,0.0,0.0,0.0,0.0,0.0,0.0,0.0,0.0,0.0,0.0,2.9806,3.26,3.5069,3.6863,3.7731,3.8541,3.9081,0.0,0.0,0.0,0.0,0.0,0.0,0.0,0.0,0.0,0.0,0.0,0.0,0.0,0.0,3.565,3.0561,2.9565,2.9455,2.9301,0.0,0.0,0.0,0.0,0.0,0.0,0.0,0.0,0.0,0.0,0.0,0.0,0.0,0.0,3.1055,0.0,2.9344,0.0,0.0,0.0,0.0,0.0,0.0,0.0,0.0,3.3824,3.5036,3.5372,3.5666,3.487,0.0,3.2389,2.982,0.0,0.0,0.0,0.0,0.0,0.0,0.0,0.0,2.9158,3.2486,3.4506,3.6396,3.8004,3.6786,3.5981,3.5727,3.4113,3.1705,2.8514,2.688,2.5574,0.0,0.0,0.0,0.0,0.0,0.0,0.0,0.0,0.0,0.0,0.0,0.0,0.0,0.0,0.0,0.0,0.0,0.0,0.0,0.0,0.0,0.0,0.0,2.1618,0.0,0.0,0.0,0.0,0.0,0.0,0.0,0.0,0.0,2.7929,2.9966,3.2539,3.5535,3.6924,3.7918,3.8689,0.0,0.0,0.0,0.0,0.0,0.0,0.0,3.5277,3.6203,3.5344,3.4769,3.5569,3.6858,3.7765,3.7715,0.0,0.0,3.3812,3.2906,3.2784,3.2653,3.3911,3.4945,3.466,3.5772,3.688,0.0,0.0,0.0,0.0,0.0,0.0,0.0,0.0,3.2332,3.3016,0.0,3.2123,0.0,0.0,0.0,0.0,0.0,3.2939,0.0,0.0,3.7937,3.8984,3.797,3.7372,3.6564,3.5653,3.5978,3.4392,3.0974,2.7254,0.0,0.0,0.0,0.0,0.0,0.0,2.9772,3.3141,3.5271,3.7063,3.8464,3.7309,3.6706,3.6842,3.4601,3.2252,3.0125,2.9622,2.865,2.6827,2.5784,0.0,0.0,0.0,0.0,0.0,0.0,0.0,0.0,0.0,0.0,0.0,0.0,0.0,0.0,0.0,0.0,0.0,0.0,0.0,0.0,2.2409,0.0,0.0,0.0,0.0,0.0,0.0,0.0,0.0,0.0,0.0,3.1099,3.2979,3.5409,3.8073,0.0,0.0,0.0,0.0,4.015,3.9795,3.9303,3.9263,4.0066,3.9182,3.8236,3.7684,0.0,0.0,3.7843,3.8648,3.91,3.7888,3.8481,3.8956,3.9666,3.8468,3.7564,3.7402,3.7427,3.7776,3.862,3.9669,4.0655,3.8384,0.0,0.0,0.0,0.0,3.6193,3.7618,3.9772,3.8865,3.8035,3.7192,3.5472,0.0,0.0,0.0,0.0,0.0,0.0,3.5716,3.7243,3.9032,3.9937,4.0054,4.0261,3.9416,3.7742,3.7465,3.6091,3.3706,3.1852,2.8819,2.4696,0.0,0.0,0.0,0.0,3.2032,3.4734,3.652,3.7591,3.7999,3.7295,3.6557,3.5952,3.4555,3.3153,3.1796,3.1019,2.9825,2.819,2.7177,0.0,0.0,0.0,0.0,0.0,0.0,0.0,0.0,0.0,0.0,0.0,0.0,0.0,0.0,0.0,0.0,0.0,0.0,0.0,2.2811,2.2965,2.3178,0.0,0.0,0.0,0.0,0.0,0.0,0.0,0.0,0.0,3.6376,3.732,3.8198,0.0,0.0,4.0091,3.9537,4.0167,4.0853,4.1448,0.0,0.0,0.0,4.0061,3.925,4.0662,4.2102,4.2948,4.2601,4.314,4.3382,4.2647,4.2729,4.2935,4.2977,4.095,3.9378,3.9556,4.0867,4.1892,4.1676,4.2944,4.4175,4.4335,4.1399,3.9013,3.8728,3.9878,4.0133,4.1362,4.3132,4.2272,4.1561,4.0824,3.9269,3.7581,3.5845,3.4521,0.0,0.0,0.0,3.7758,3.9409,4.0274,4.0972,4.155,4.1635,4.0912,3.9498,3.8734,3.7678,3.63,3.5267,3.2925,2.9389,0.0,0.0,2.8771,3.1294,3.3543,3.547,3.7219,3.8114,3.812,3.7374,3.6525,3.5516,3.4739,3.3935,3.3109,3.2328,3.1203,2.9688,2.8839,2.7433,0.0,0.0,0.0,0.0,0.0,0.0,0.0,0.0,0.0,0.0,0.0,1.9576,1.8125,0.0,0.0,0.0,2.1527,2.3317,2.4764,2.4978,0.0,0.0,0.0,0.0,0.0,0.0,0.0,3.3016,3.5552,3.7776,3.9417,4.0206,4.0618,4.0575,4.104,4.1119,4.0389,0.0,4.1931,4.2605,4.2564,4.2637,4.311,4.2065,4.1714,4.3271,4.4267,4.4956,4.5186,4.5461,4.5565,4.5359,4.5405,4.5473,4.5302,4.3749,4.2483,4.2517,4.3909,4.4869,4.4219,4.5393,4.6439,4.954,4.8667,4.4066,4.2333,4.2688,4.314,4.3614,4.4091,4.3592,4.3815,4.4514,4.3039,4.182,4.0843,3.9297,0.0,3.8703,3.9699,4.0495,4.1253,4.1612,4.2052,4.2551,4.1985,4.1397,4.0839,3.9974,3.9262,3.8665,3.7724,3.6502,3.506,3.2787,3.1501,3.1409,3.3224,3.467,3.5703,3.7563,3.8504,3.8436,3.7494,3.6479,3.5516,3.5034,3.4506,3.4004,3.3497,3.2555,3.1157,3.0514,2.9181,2.6969,0.0,0.0,0.0,0.0,0.0,0.0,0.0,0.0,0.0,0.0,0.0,0.0,0.0,0.0,0.0,2.4193,0.0,2.7268,2.7799,0.0,0.0,0.0,2.9257,2.9922,3.2864,3.5029,3.5536,0.0,0.0,4.0708,0.0,4.2605,4.2102,4.2227,4.2102,4.1492,4.2383,4.3176,4.3258,4.3603,4.4007,4.4307,4.4307,4.4376,4.4936,4.5358,4.5474,4.5897,4.6103,4.6146,4.6207,4.659,4.6732,4.6414,4.642,4.6617,4.5755,4.6296,4.6756,4.6429,4.6958,4.7411,5.18,5.1172,4.9565,4.8008,4.6527,4.622,4.6451,4.6848,4.6376,4.5824,4.5196,4.3966,4.2338,4.051,4.1348,4.1391,4.0856,4.1153,4.1768,4.2574,4.2324,4.2229,4.2368,4.2609,4.2247,4.1443,4.1504,4.0961,3.9774,3.9475,3.8809,3.7701,3.7081,3.5818,3.4004,3.5129,3.6231,3.7242,3.7724,3.7793,3.7374,3.6782,3.6162,3.5493,3.4853,3.4351,3.4004,3.3143,3.2347,3.1616,3.0714,2.9602,2.8284,2.5967,0.0,0.0,0.0,0.0,0.0,0.0,0.0,0.0,0.0,2.3779,2.1416,0.0,2.5209,0.0,2.7183,2.85,2.8813,2.9282,0.0,0.0,3.2301,3.3342,3.5527,3.6831,3.787,3.8733,4.045,4.1671,4.1901,4.2833,4.3166,4.2408,4.2494,4.2545,4.2403,4.2928,4.3422,4.3489,4.3849,4.421,4.4357,4.4368,4.4425,4.456,4.4876,4.5247,4.5708,4.6149,4.6406,4.6375,4.6469,4.6577,4.6757,4.6685,4.6762,4.7087,4.7141,4.7043,4.7245,4.7525,4.7808,5.2955,5.2427,5.1875,5.0921,4.9715,4.8905,4.8636,4.8611,4.8083,4.7531,4.6903,4.5695,4.4264,4.2807,4.3198,4.314,4.2692,4.2203,4.2124,4.244,4.2362,4.2192,4.2017,4.2522,4.2339,4.1612,4.1627,4.1099,4.0119,3.9866,3.9446,3.8918,3.8947,3.8206,3.6874,3.6897,3.7219,3.7821,3.7821,3.754,3.7007,3.6759,3.6254,3.5493,3.4572,3.3814,3.3211,3.211,3.1179,3.0489,2.9917,2.9218,2.8422,2.6674,2.5402,0.0,0.0,0.0,0.0,0.0,0.0,0.0,0.0,0.0,0.0,0.0,2.7009,2.7965,2.9474,3.0736,3.16,3.2313,3.3356,3.4897,3.5597,3.6663,3.8429,3.9387,4.0243,4.099,4.2019,4.2769,4.3032,4.3469,4.3626,4.3132,4.3005,4.2846,4.2703,4.3296,4.3801,4.363,4.399,4.4307,4.4307,4.4307,4.4307,4.433,4.4509,4.4913,4.5595,4.5931,4.6208,4.6415,4.6636,4.6679,4.6536,4.6357,4.6462,4.6914,4.6718,4.6622,4.7241,4.7189,4.7171,5.3381,5.2879,5.2402,5.2108,5.189,5.088,5.017,4.9665,4.9188,4.888,4.8578,4.7481,4.6479,4.5605,4.4711,4.4226,4.4106,4.3008,4.2316,4.1994,4.2293,4.2201,4.1819,4.2224,4.2178,4.1704,4.1283,4.0778,4.0188,3.9767,3.9492,3.9308,3.9377,3.9377,3.9262,3.8367,3.7862,3.7793,3.7724,3.7517,3.7099,3.7025,3.6448,3.5371,3.422,3.307,3.1984,3.0927,2.9956,2.906,2.9015,2.8813,2.8298,2.7272,2.6533,0.0,2.5564,0.0,0.0,0.0,0.0,0.0,0.0,0.0,0.0,2.7965,2.9071,3.0454,3.1592,3.2968,3.4697,3.5775,3.6684,3.7441,3.8481,3.9384,3.9918,4.123,4.2201,4.2573,4.3447,4.4072,4.3984,4.3984,4.3984,4.3831,4.3539,4.3123,4.2729,4.341,4.3952,4.3685,4.3927,4.4066,4.41,4.4135,4.4135,4.4135,4.4123,4.4505,4.5372,4.5551,4.572,4.622,4.6537,4.6514,4.5845,4.5777,4.5939,4.6292,4.5829,4.581,4.6832,4.6684,4.6374,5.3406,5.2895,5.2795,5.2126,5.1132,5.0934,5.0629,5.0243,5.0142,4.9292,4.7918,4.7556,4.6508,4.5054,4.5263,4.5075,4.449,4.3828,4.3716,4.4015,4.328,4.2913,4.2821,4.2913,4.2651,4.2192,4.25,4.1971,4.0686,4.0984,4.0525,3.9331,3.9698,3.9728,3.9308,0.0,0.0,0.0,3.7351,3.7305,3.7609,3.699,3.6041,3.4653,3.357,0.0,3.077,3.0736,3.0553,3.0068,3.0334,0.0,0.0,0.0,0.0,0.0,0.0,0.0,0.0,0.0,0.0,0.0,3.0594,3.0353,2.9352,3.1625,3.3168,3.3156,3.4722,3.6027,3.6779,3.7719,3.8641,3.9611,4.0552,4.1328,4.1852,4.3141,4.3949,4.3678,4.4451,4.4888,4.4517,4.4487,4.4334,4.3984,4.381,4.3591,4.311,4.3271,4.3372,4.3302,4.3407,4.3429,4.3429,4.3429,4.3476,4.3407,4.3429,4.378,4.4593,4.4798,4.4852,4.5137,4.5218,4.5122,4.4635,4.4816,4.5138,4.5537,4.5229,4.5368,4.6854,4.6817,4.6633,5.4235,0.0,5.3049,5.2367,0.0,5.1059,5.0508,5.0066,4.982,4.8856,4.7464,4.7394,4.6516,4.509,4.5146,4.4946,4.4566,4.3808,4.3739,4.4153,4.3156,4.2844,4.3074,4.2844,4.2559,4.2307,4.2339,4.1948,4.1214,4.0992,4.0463,3.9728,3.9728,3.9561,3.9285,3.868,3.809,3.7588,3.7565,3.7343,3.6974,3.6833,3.5914,3.4223,0.0,0.0,0.0,0.0,0.0,0.0,0.0,0.0,0.0,0.0,0.0,2.9402,2.9307,2.9473,3.0027,3.0871,3.1895,3.3101,3.4239,3.4175,3.252,3.4393,3.5605,3.5605,3.6915,3.8051,3.8782,3.9471,4.0301,4.1219,4.1765,4.2245,4.2769,4.3643,4.4159,4.405,4.4713,4.5179,4.4997,4.4954,4.4735,4.4334,4.405,4.3744,4.3329,4.3219,4.3219,4.3219,4.3219,4.3219,4.3219,4.3219,4.3219,4.3219,4.3219,4.3504,4.4138,4.4106,4.4095,4.4353,4.4297,4.4063,4.3702,4.392,4.4327,4.4662,4.4785,4.5181,4.6336,4.6151,4.5956,5.4809,5.4263,5.3045,5.2481,5.2254,5.108,5.0173,4.9507,0.0,0.0,0.0,4.7185,4.6528,4.5496,4.5048,4.4819,4.4681,4.3877,4.3693,4.4038,4.3018,4.2867,4.3326,4.2628,4.2353,4.2422,4.1948,4.165,4.1566,4.0762,4.0303,4.0188,3.9705,3.937,3.9197,3.8573,3.796,3.7453,3.7811,3.7521,3.6543,3.671,3.5943,3.4129,3.3289,3.2134,3.0556,3.0098,2.958,2.9031,2.9232,2.9498,2.9824,3.003,3.0518,3.1367,3.2263,3.3005,3.3497,3.4463,3.5299,3.5961,3.7068,3.7178,3.5736,3.6514,3.7309,3.7855,3.8619,3.9515,4.0563,4.1,4.159,4.2464,4.2551,4.2748,4.3263,4.3657,4.3984,4.4203,4.4845,4.531,4.5412,4.5434,4.526,4.4801,4.4465,4.3919,4.346,4.3285,4.3219,4.3219,4.3219,4.3219,4.3219,4.3219,4.3219,4.3219,4.3145,4.3293,4.3621,4.3521,4.3478,4.3688,4.3555,4.3139,4.2662,4.3115,4.3618,4.3853,4.4502,4.5165,4.5679,4.5384,4.5352,5.3636,5.349,5.2635,5.186,5.119,5.0597,4.9668,4.8591,4.8228,4.7968,4.7794,4.7167,4.6576,4.6012,4.5909,4.5668,4.5289,4.5151,4.5105,0.0,4.4084,4.3877,4.4313,4.2949,4.2536,4.2913,4.2477,4.1994,4.1604,4.1451,4.1176,4.0709,4.0234,3.9625,3.8923,3.8773,3.8409,3.7806,3.7739,3.7782,3.8044,3.7021,3.5944,3.4864,3.3685,3.2102,3.0184,3.082,3.0752,2.9746,3.0979,3.1545,3.1173,3.204,3.2835,3.3355,3.3923,3.446,3.515,3.6287,3.7579,3.8825,3.9207,3.8731,3.7517,3.8071,3.8872,3.9755,3.9995,4.0629,4.1896,4.2158,4.242,4.2979,4.3075,4.3307,4.37,4.3831,4.4181,4.4866,4.5216,4.5456,4.5762,4.5849,4.5696,4.5325,4.4976,4.4735,4.3984,4.346,4.3241,4.3219,4.3219,4.3219,4.3219,4.3219,4.3219,4.3219,4.2983,4.2949,4.3377,4.3157,4.289,4.2703,4.2596,4.2171,4.1237,4.2393,4.3253,4.3394,4.447,4.5604,4.5567,4.5266,4.5307,5.4022,5.352,5.2456,5.1842,5.1385,4.9993,4.8931,4.8121,4.7959,4.7829,4.7723,4.744,4.6827,4.6116,4.6093,4.5852,4.5381,4.5105,4.5128,4.5312,4.429,4.4084,4.4451,4.3294,4.2867,4.3083,4.2568,4.2192,4.194,4.1562,4.1217,4.0935,4.0272,3.9642,3.9089,3.8813,3.8436,3.8011,3.7614,3.7229,3.6951,3.6069,3.5186,3.4227,3.3849,3.324,3.2103,3.2404,3.2332,3.1847,3.2142,3.2239,3.2051,3.311,3.3966,3.4468,3.5497,3.6441,3.7227,3.836,3.9153,3.9579,3.9831,3.9854,3.9518,3.9822,4.0159,4.0651,4.1109,4.1677,4.2354,4.266,4.2922,4.3163,4.3219,4.3285,4.3504,4.3766,4.4072,4.4531,4.4997,4.5391,4.5572,4.5849,4.5828,4.5354,4.5129,4.4735,4.432,4.3897,4.3482,4.3263,4.3219,4.3219,4.3219,4.3219,4.3219,4.3219,4.292,4.2798,4.2973,4.2599,4.22,4.2046,4.1902,4.1539,4.0917,4.2364,4.3242,4.3521,4.4313,4.5073,4.487,4.4543,4.453,5.3986,5.311,5.1999,5.1312,5.0885,4.9207,4.816,4.7663,4.7604,4.7491,4.7332,4.7588,4.7286,4.646,4.6322,4.6012,4.5541,4.5002,4.4979,4.5266,4.4405,4.4267,4.4612,4.3739,4.3303,4.3317,4.2719,4.239,4.2285,4.1683,4.1275,4.1081,4.0209,3.9583,3.9294,3.894,3.8601,3.8235,3.7602,3.6888,3.6089,3.5609,3.501,3.4311,3.4367,3.429,3.3892,3.3579,3.3341,3.3218,3.2905,3.2764,3.2813,3.3993,3.488,3.5426,3.6798,3.8093,3.9046,3.9765,4.0028,3.9787,4.0093,4.0509,4.0935,4.1,4.1109,4.135,4.1961,4.2386,4.2617,4.2922,4.3219,4.3219,4.3219,4.3351,4.349,4.3678,4.3919,4.4203,4.4692,4.4997,4.5172,4.5456,4.5544,4.5288,4.5063,4.491,4.4735,4.4408,4.4014,4.3314,4.3145,4.325,4.3329,4.3372,4.3333,4.3271,4.2871,4.2593,4.2403,4.1844,4.1496,4.1448,4.1322,4.1073,4.117,4.2253,4.3016,4.3104,4.3811,4.4377,4.3975,4.3326,4.3276,5.2321,5.1455,5.0637,4.9552,4.8553,4.8255,4.7652,4.6886,4.682,4.6552,4.633,4.769,4.7938,4.7446,4.6929,4.6448,4.6001,4.553,4.5358,4.5358,4.4796,4.4796,4.514,4.4222,4.3992,4.4214,4.3183,4.2554,4.2555,4.2181,4.1771,4.1206,4.0128,3.9475,3.932,3.9241,3.9063,3.8719,3.7842,3.7339,3.7226,3.6782,3.6499,3.6412,3.5411,3.4677,3.4131,3.3482,3.2905,3.2463,3.3144,3.3588,3.373,3.5015,3.6018,3.6537,3.7677,3.8906,3.9974,3.9853,3.9875,4.017,4.029,4.053,4.0956,4.1,4.1393,4.2015,4.2298,4.2595,4.3032,4.3163,4.3241,4.3219,4.3285,4.3525,4.408,4.3731,4.3766,4.5063,4.4451,4.4203,4.4582,4.4779,4.4932,4.5303,4.55,4.5544,4.5267,4.4997,4.4409,4.3257,4.2975,4.3298,4.3537,4.3796,4.3435,4.3248,4.269,4.2191,4.1671,4.0961,4.0308,4.1068,4.0935,4.0664,4.0916,4.1609,4.2382,4.2449,4.2967,4.3563,4.3031,4.2183,4.2043,5.0876,4.9869,4.9516,4.9091,4.8562,4.8028,4.7444,4.6842,4.6803,4.6394,4.588,4.6926,4.695,4.6179,4.5956,4.585,4.5839,4.5671,4.5665,4.5794,4.5599,4.5325,4.4971,4.4299,4.3971,4.3838,4.266,4.2271,4.2459,4.1948,4.0981,3.9944,3.972,3.9562,3.9282,3.9384,3.9221,3.8626,3.7981,3.7321,3.6609,3.59,3.5309,3.4988,3.5004,3.5005,3.4799,3.4461,3.4278,3.4235,3.4069,3.4065,3.429,3.5509,3.629,3.6612,3.8038,3.9149,3.9604,4.0138,4.0399,4.0334,4.0541,4.0804,4.0978,4.1,4.1393,4.2189,4.2386,4.2617,4.3097,4.3438,4.3504,4.3351,4.3643,4.3971,4.3744,4.37,4.381,4.4036,4.3984,4.3963,4.4181,4.4444,4.4779,4.5216,4.55,4.5565,4.5616,4.5094,4.4215,4.3325,4.2648,4.2257,4.2498,4.2483,4.2466,4.2251,4.1842,4.1383,4.0962,4.0449,4.0155,4.0684,4.0586,4.0625,4.0937,4.1633,4.2328,4.2185,4.1963,4.2287,4.1632,4.1068,4.122,4.9826,4.8746,4.8356,4.8172,4.8153,4.7533,4.6978,4.6577,4.6577,4.6049,4.5264,4.5796,4.5551,4.4878,4.5053,4.534,4.5536,4.5453,4.5528,4.5811,4.5823,4.5364,4.4533,4.439,4.3847,4.3054,4.2164,4.1832,4.1903,4.0745,3.9752,3.9121,3.9075,3.9151,3.921,3.9401,3.9218,3.8721,3.8231,3.7413,3.6273,3.5395,3.4769,3.445,3.4929,3.533,3.5383,3.5151,3.5119,3.5386,3.4772,3.4603,3.4916,3.5792,3.6363,3.6649,3.7864,3.8814,3.9144,4.0122,4.0584,4.0388,4.0825,4.1131,4.1044,4.1109,4.1568,4.2233,4.2386,4.2617,4.3154,4.3504,4.3547,4.3307,4.3963,4.4094,4.3547,4.3722,4.3766,4.3482,4.3635,4.37,4.3766,4.4094,4.4495,4.4779,4.5129,4.5391,4.5607,4.4959,4.4108,4.3341,4.2204,4.1626,4.1622,4.1825,4.1679,4.1494,4.1319,4.0941,4.0338,3.9908,3.9842,4.0137,4.0254,4.0488,4.0762,4.1516,4.2062,4.1982,4.1724,4.139,4.105,4.0546,4.0646,4.9124,4.8168,4.6958,4.6509,4.6428,4.6428,4.6179,4.5886,4.5825,4.5267,4.4538,4.4515,4.4165,4.3839,4.4736,4.5172,4.5157,4.475,4.4784,4.5113,4.5149,4.467,4.3924,4.4537,4.392,4.2257,4.1912,4.134,4.0391,3.8844,3.8411,3.9309,3.8153,3.7965,3.8976,3.9198,3.9188,3.896,3.8558,3.7731,3.6471,3.5851,3.5718,3.5794,3.5758,3.5626,3.5606,3.5073,3.4773,3.4773,3.5111,3.5312,3.541,3.5815,3.6389,3.6978,3.72,3.7857,3.9018,3.972,4.0063,4.0323,4.1008,4.1414,4.0898,4.1159,4.1593,4.2308,4.2248,4.2513,4.3006,4.3294,4.3329,4.3228,4.3657,4.3919,4.3831,4.381,4.3875,4.3744,4.3482,4.3351,4.3285,4.3657,4.3848,4.4096,4.4699,4.5135,4.498,4.4779,4.4027,4.2978,4.1973,4.1357,4.1928,4.1576,4.1599,4.1383,4.079,4.0721,3.9998,3.9451,3.9529,3.9648,3.9902,4.0195,4.0508,4.0839,4.1268,4.1307,4.1129,4.0839,4.0976,4.0409,4.0488,4.8292,4.7398,4.6615,4.6307,4.6307,4.6307,4.6203,4.6058,4.6058,4.5768,4.525,4.5188,4.494,4.4463,4.4315,4.4357,4.4512,4.4134,4.4066,4.4362,4.4414,4.3936,4.3182,4.3414,4.2926,4.177,4.1168,4.0358,3.9353,3.8997,3.8788,3.8507,3.8402,3.8482,3.8678,3.8865,3.8719,3.8253,3.7829,3.6996,3.595,3.5856,3.5851,3.5652,3.5587,3.5501,3.5501,3.5269,3.5273,3.5494,3.5469,3.5644,3.6172,3.6601,3.694,3.7253,3.7682,3.8164,3.8719,3.9537,3.9922,3.977,4.028,4.0517,4.0111,4.0132,4.0406,4.089,4.1468,4.1912,4.2481,4.3143,4.349,4.3372,4.384,4.408,4.3678,4.37,4.3788,4.3525,4.3285,4.3219,4.3031,4.2894,4.2806,4.3057,4.3075,4.3155,4.3252,4.3094,4.2638,4.1915,4.1196,4.0706,4.0634,4.041,4.0199,4.0127,3.9865,3.9805,3.9314,3.9041,3.9041,3.9687,3.9902,4.0117,4.0527,4.0918,4.1191,4.1172,4.0918,4.0937,4.1172,4.0586,4.0712,4.7506,4.6803,4.6596,4.6431,4.6327,4.6472,4.6451,4.6307,4.6307,4.6058,4.5747,4.5685,4.5397,4.4726,4.4045,4.3739,4.3777,4.3433,4.3408,4.3665,4.3681,4.3243,4.2513,4.2636,4.2133,4.1024,4.0328,3.9499,3.8739,3.8925,3.8671,3.8001,3.8208,3.8322,3.8381,3.8445,3.8194,3.7892,3.7501,3.6861,3.6118,3.6152,3.6172,3.6035,3.6016,3.5937,3.5854,3.5835,3.5996,3.6328,3.6152,3.6269,3.6871,3.7148,3.7305,3.7375,3.7742,3.8162,3.8447,3.9245,3.9657,3.9495,3.9999,4.0123,3.9516,3.9695,3.9943,4.0228,4.0731,4.1348,4.1714,4.2529,4.3092,4.3111,4.3709,4.3752,4.2863,4.3071,4.3007,4.2563,4.2356,4.2427,4.2427,4.1947,4.1848,4.2072,4.1751,4.1804,4.2092,4.1946,4.1706,4.1467,4.0823,4.0308,4.0109,3.9906,3.967,3.9522,3.9661,3.9393,3.9043,3.8769,3.8867,3.959,4.0039,4.0254,4.0566,4.0996,4.1152,4.1211,4.1152,4.1132,4.1016,4.082,4.0833,4.6782,4.6472,4.6803,4.67,4.6389,4.6762,4.67,4.6308,4.6308,4.6061,4.5649,4.5646,4.5161,4.4454,4.3956,4.3519,4.32,4.2795,4.2663,4.2966,4.2966,4.253,4.184,4.2385,4.1785,4.0146,3.9508,3.906,3.8728,3.8412,3.8122,3.7851,3.7375,3.7663,3.8412,3.8056,3.799,3.8121,3.7826,3.7475,3.7273,3.6855,3.6851,3.7129,3.7148,3.6992,3.6714,3.6675,3.6797,3.7148,3.7207,3.7266,3.7285,3.7383,3.7363,3.7422,3.7398,3.7731,3.8367,3.8854,3.9252,3.9421,4.023,4.0268,3.9634,4.0103,4.0406,4.0083,4.043,4.0862,4.0924,4.1378,4.1916,4.2583,4.3088,4.284,4.21,4.1975,4.1897,4.1331,4.1194,4.101,4.0954,4.0954,4.0944,4.1089,4.1116,4.1378,4.1703,4.1551,4.1807,4.1797,4.1042,4.0175,3.9844,3.9551,3.9375,3.9258,3.9549,3.9531,3.9043,3.8711,3.8865,3.9394,3.9863,4.0098,4.0508,4.0898,4.1172,4.1211,4.1211,4.1211,4.1055,4.0859,4.0508,4.7217,4.6824,4.6927,4.672,4.6389,4.6803,4.6577,4.5922,4.6229,4.5943,4.5312,4.521,4.5048,4.4664,4.406,4.3618,4.3458,4.2744,4.2349,4.2229,4.219,4.1913,4.1538,4.1613,4.1241,4.035,3.9883,3.9609,3.9414,3.9004,3.8809,3.8691,3.8242,3.819,3.8485,3.8074,3.7917,3.7976,3.7656,3.7378,3.7285,3.7187,3.7187,3.7266,3.7305,3.7344,3.75,3.7266,3.7168,3.7324,3.7305,3.7422,3.7715,3.8008,3.8164,3.8184,3.82,3.8256,3.8472,3.8678,3.8964,3.9248,3.9599,3.9563,3.9308,3.9576,3.9576,3.9214,3.967,4.0074,4.0187,4.0699,4.127,4.185,4.2288,4.2444,4.1952,4.2035,4.1901,4.1483,4.1338,4.1214,4.0858,4.0545,4.0257,4.0444,4.0117,3.9965,4.0475,4.0718,4.0614,4.0891,4.0311,4.0098,3.9785,3.9648,3.959,3.9336,3.9414,3.9668,3.9199,3.8828,3.8945,3.9258,3.9707,4.0039,4.0449,4.0801,4.1113,4.1191,4.1152,4.1152,4.1191,4.0918,4.0566,4.7299,4.701,4.6845,4.6496,4.6125,4.6393,4.6106,4.5535,4.5758,4.5554,4.5086,4.5005,4.4923,4.4679,4.4195,4.3872,4.3689,4.3089,4.2676,4.2285,4.207,4.1875,4.1621,4.1465,4.1074,4.0566,4.0254,4.0039,3.9883,3.9609,3.9453,3.9394,3.9023,3.8826,3.8769,3.8398,3.8164,3.8105,3.7754,3.7598,3.7715,3.7617,3.7617,3.7773,3.793,3.8047,3.8164,3.8047,3.793,3.7812,3.7809,3.791,3.8164,3.8418,3.8611,3.8611,3.863,3.865,3.8769,3.8845,3.9004,3.9355,3.9453,3.9453,3.9453,3.9453,3.9258,3.8997,3.9248,3.946,3.9449,3.9859,4.0412,4.0837,4.1416,4.1661,4.1576,4.1441,4.1221,4.0885,4.0861,4.0793,4.0464,4.0201,3.9878,4.0023,3.9571,3.9258,3.9902,4.0175,4.0332,4.0391,4.0234,4.0019,3.9726,3.9707,3.9805,3.9531,3.9297,3.9551,3.9473,3.9121,3.9062,3.957,4.0019,4.0039,4.0371,4.084,4.1211,4.1191,4.1094,4.1191,4.1172,4.0918,4.0586,4.7093,4.699,4.6557,4.6147,4.5759,4.5776,4.5469,4.5004,4.5044,4.5003,4.4902,4.48,4.4677,4.4411,4.4228,4.4003,4.3774,4.3613,4.3398,4.3047,4.2734,4.2461,4.2226,4.1973,4.1445,4.0801,4.0644,4.041,4.0117,3.998,3.9922,3.9883,3.9492,3.9238,3.918,3.8848,3.8728,3.8652,3.8301,3.8301,3.8591,3.8242,3.8184,3.8591,3.8867,3.8945,3.8789,3.8887,3.8887,3.865,3.8532,3.8555,3.865,3.865,3.8689,3.8708,3.8669,3.8828,3.9101,3.9219,3.9434,3.9863,3.9863,3.9922,3.9902,3.9766,3.957,3.9277,3.9254,3.9097,3.8899,3.9188,3.962,3.9975,4.0773,4.101,4.0621,4.0386,4.0361,4.0149,3.9959,3.9978,4.001,3.9916,3.9937,3.9958,3.9919,3.998,4.0351,4.0527,4.0489,4.0469,4.0391,4.0156,3.9941,4.0,4.004,3.9941,3.9629,3.9648,3.9746,3.9414,3.9297,3.9785,4.0215,4.0215,4.0351,4.084,4.1093,4.0976,4.1016,4.1152,4.1132,4.0918,4.0703,4.8134,4.7436,4.6731,4.6118,4.5693,4.5691,4.5263,4.4655,4.4934,4.4669,4.4182,4.4041,4.4041,4.3876,4.3917,4.3774,4.3733,4.3691,4.3672,4.3535,4.3437,4.2969,4.2499,4.2284,4.1973,4.1504,4.1406,4.125,4.084,4.0547,4.0352,4.0332,3.9961,3.9726,3.9687,3.959,3.9551,3.9551,3.9434,3.9199,3.9023,3.8945,3.8926,3.9023,3.918,3.9336,3.9473,3.9316,3.9004,3.8689,3.8887,3.9023,3.9043,3.9043,3.9043,3.9043,3.9043,3.9082,3.9258,3.9531,3.9902,4.0254,4.0137,4.0039,4.0312,3.9746,3.957,3.9531,3.9434,3.918,3.9141,3.9453,3.9883,4.0293,4.0834,4.1109,4.0976,4.0898,4.0723,4.0449,4.0371,4.0234,4.0059,3.998,4.0078,4.0234,4.0215,4.0176,4.0664,4.0742,4.0664,4.0781,4.0723,4.0469,4.0293,4.0332,4.0313,4.0294,4.0117,3.9902,3.9863,3.9629,3.9668,3.9922,4.0371,4.0488,4.0586,4.0879,4.0859,4.0859,4.1016,4.1191,4.1211,4.1093,4.084,4.805,4.7338,4.649,4.5839,4.5397,4.5211,4.4745,4.4263,4.4379,4.4235,4.3772,4.3691,4.3691,4.3691,4.3691,4.3691,4.3691,4.3691,4.3691,4.3691,4.3672,4.3301,4.2832,4.2695,4.248,4.209,4.207,4.1816,4.1465,4.1172,4.0996,4.0801,4.0566,4.0351,4.0156,4.0156,4.0059,3.9922,3.9883,3.9746,3.9512,3.9492,3.9492,3.9551,3.9648,3.9922,4.0078,3.9726,3.9375,3.9199,3.9199,3.9277,3.9473,3.9492,3.9492,3.9492,3.9492,3.957,3.9766,4.0019,4.043,4.084,4.0664,4.0703,4.0859,4.041,4.0176,4.0098,3.9883,3.9687,3.959,3.9902,4.0332,4.0723,4.1035,4.1211,4.1211,4.1191,4.1093,4.0879,4.0781,4.0723,4.0487,4.043,4.0547,4.0684,4.0644,4.0781,4.1016,4.0879,4.0762,4.084,4.082,4.0527,4.0391,4.041,4.041,4.0391,4.0488,4.0273,4.0195,4.0039,4.0254,4.0449,4.0664,4.0781,4.0801,4.084,4.0879,4.0937,4.1113,4.1191,4.1211,4.1211,4.0937,4.7431,4.701,4.6103,4.5455,4.5055,4.4601,4.4263,4.3828,4.3811,4.3772,4.3691,4.3691,4.3691,4.3691,4.3691,4.3691,4.3691,4.3691,4.3691,4.3691,4.3672,4.3476,4.3183,4.3144,4.2949,4.2637,4.2499,4.2246,4.1953,4.1836,4.166,4.1406,4.1269,4.1035,4.0762,4.0644,4.041,4.0273,4.0195,4.0234,4.0156,4.0078,4.0,4.0137,4.0371,4.0508,4.0469,4.0215,3.9961,4.0019,3.959,3.9629,3.9922,3.9961,3.9961,3.9961,3.9961,4.0098,4.041,4.0508,4.0859,4.1367,4.1211,4.1308,4.1367,4.0996,4.0644,4.0605,4.0547,4.0293,4.0195,4.0371,4.0644,4.1016,4.123,4.125,4.1211,4.1211,4.1211,4.1211,4.1191,4.1211,4.1211,4.1211,4.1191,4.0957,4.0937,4.0996,4.1152,4.1055,4.0898,4.0781,4.0684,4.0547,4.0469,4.043,4.041,4.041,4.0644,4.0644,4.0684,4.0684,4.0976,4.1152,4.0996,4.0879,4.0801,4.084,4.0957,4.1015,4.1074,4.1172,4.1211,4.1211,4.1074,4.7913,4.7435,4.6205,4.566,4.5421,4.473,4.4355,4.4219,4.3867,4.373,4.3711,4.3711,4.373,4.3711,4.375,4.3691,4.373,4.373,4.3691,4.3691,4.3691,4.3672,4.3574,4.3555,4.3496,4.332,4.3066,4.2715,4.2402,4.2305,4.2246,4.2069,4.1777,4.1621,4.1484,4.1191,4.1191,4.1269,4.1055,4.0996,4.1055,4.0703,4.0566,4.0859,4.1015,4.1016,4.0957,4.0625,4.0566,4.0703,4.0527,4.0351,4.043,4.0372,4.043,4.0488,4.043,4.0411,4.0547,4.0879,4.1094,4.1328,4.1094,4.084,4.1191,4.0684,4.0586,4.0762,4.0742,4.0664,4.0879,4.0664,4.0879,4.125,4.1523,4.1543,4.1308,4.123,4.125,4.1211,4.1211,4.1211,4.1211,4.125,4.125,4.1211,4.123,4.1211,4.1211,4.1211,4.1093,4.0879,4.0859,4.0781,4.0781,4.0742,4.0703,4.0644,4.0801,4.0898,4.0957,4.0996,4.1172,4.1211,4.1191,4.1074,4.0898,4.1015,4.1113,4.1113,4.1074,4.1172,4.1211,4.1211,4.1191,4.7627,4.6973,4.6239,4.5742,4.5371,4.5098,4.4766,4.4414,4.4141,4.4023,4.4023,4.4023,4.4023,4.4023,4.4023,4.4043,4.3965,4.3789,4.3828,4.3926,4.3867,4.3828,4.3945,4.3808,4.3691,4.3691,4.373,4.3359,4.293,4.2871,4.2832,4.2401,4.2187,4.1953,4.1875,4.1738,4.1621,4.1484,4.1504,4.1504,4.1406,4.1308,4.1191,4.1406,4.1465,4.1465,4.1426,4.1484,4.1543,4.1641,4.1523,4.1308,4.1094,4.0957,4.1016,4.1348,4.1191,4.1133,4.123,4.1484,4.1699,4.1484,4.123,4.1289,4.1289,4.084,4.0723,4.0996,4.1035,4.1055,4.1641,4.1387,4.1426,4.1914,4.2051,4.1992,4.1797,4.1601,4.1367,4.1289,4.1211,4.1211,4.123,4.1289,4.1289,4.1289,4.1523,4.1504,4.1211,4.1211,4.1211,4.1132,4.1152,4.1152,4.1152,4.1132,4.1093,4.1054,4.1054,4.1113,4.1132,4.1152,4.1191,4.1211,4.1211,4.1211,4.1132,4.1211,4.1211,4.1191,4.1172,4.1191,4.1211,4.1211,4.1211,4.7129,4.6387,4.6406,4.5937,4.5351,4.5605,4.5332,4.4668,4.4512,4.4492,4.4492,4.4492,4.4492,4.4473,4.4375,4.4375,4.418,4.3926,4.3867,4.4062,4.3828,4.3887,4.4023,4.3848,4.3711,4.3769,4.3965,4.3711,4.3418,4.3457,4.3262,4.2694,4.2539,4.2422,4.2187,4.2207,4.2168,4.1816,4.1738,4.1797,4.1641,4.166,4.1582,4.1719,4.1738,4.1816,4.1914,4.2109,4.2304,4.2382,4.2382,4.2266,4.2012,4.166,4.1562,4.2266,4.1933,4.1836,4.1855,4.2109,4.2207,4.1914,4.1777,4.1758,4.166,4.1367,4.1133,4.1152,4.123,4.1562,4.2266,4.2051,4.2226,4.2637,4.2617,4.2539,4.2383,4.2089,4.1875,4.1445,4.1387,4.1406,4.1367,4.1426,4.1367,4.1367,4.166,4.1719,4.1426,4.1269,4.1328,4.123,4.1211,4.1211,4.1211,4.1211,4.1211,4.125,4.125,4.125,4.123,4.1211,4.1211,4.1211,4.1211,4.1211,4.1211,4.1211,4.1211,4.1211,4.1211,4.1211,4.1211,4.1211,4.125,4.7285,4.6772,4.6816,4.6543,4.6133,4.6172,4.5898,4.5449,4.5078,4.4922,4.4941,4.4922,4.4961,4.4844,4.4531,4.4219,4.3984,4.3789,4.3789,4.3906,4.375,4.3808,4.3808,4.3789,4.3691,4.3711,4.3828,4.373,4.3633,4.3652,4.3613,4.3418,4.3125,4.2891,4.2715,4.2637,4.2598,4.2383,4.2148,4.2129,4.2285,4.1875,4.1641,4.1875,4.1953,4.207,4.2285,4.2343,4.2382,4.2382,4.2382,4.2598,4.2656,4.2402,4.2207,4.2168,4.2324,4.2343,4.2363,4.2401,4.2382,4.2266,4.207,4.1855,4.1738,4.1484,4.1406,4.1367,4.1562,4.1914,4.2304,4.2363,4.2343,4.2577,4.2832,4.2832,4.2637,4.2617,4.25,4.1973,4.1797,4.168,4.168,4.1719,4.1738,4.1816,4.2051,4.1875,4.1445,4.1465,4.1563,4.1406,4.1211,4.1211,4.1211,4.1211,4.1191,4.1269,4.1289,4.1289,4.1308,4.123,4.1211,4.1211,4.1211,4.1211,4.1211,4.1211,4.1269,4.1328,4.1289,4.1211,4.1308,4.1406,4.1445,4.7656,4.7246,4.7031,4.668,4.6348,4.6308,4.6191,4.5996,4.5781,4.5683,4.5683,4.5683,4.5547,4.5293,4.4922,4.4473,4.4121,4.3789,4.3848,4.3965,4.3828,4.3691,4.373,4.3711,4.3691,4.3711,4.3691,4.373,4.373,4.3965,4.3906,4.3691,4.3476,4.3301,4.3164,4.3125,4.291,4.2812,4.2578,4.25,4.2734,4.2031,4.209,4.2324,4.2441,4.2558,4.2734,4.3027,4.3045,4.3065,4.3105,4.3086,4.3086,4.3105,4.2988,4.2851,4.2949,4.2969,4.2949,4.3086,4.3162,4.246,4.2402,4.2324,4.2148,4.1973,4.1797,4.1855,4.1933,4.2305,4.2734,4.2754,4.2871,4.3066,4.3262,4.3242,4.3183,4.3281,4.2949,4.248,4.2285,4.2148,4.207,4.2109,4.2168,4.2285,4.2441,4.2109,4.1601,4.1621,4.1758,4.1543,4.1367,4.1445,4.1406,4.1308,4.1406,4.1484,4.1445,4.1445,4.1504,4.1504,4.1367,4.123,4.123,4.1367,4.1211,4.1211,4.1328,4.1426,4.1367,4.1348,4.1484,4.1562,4.166,4.8008,4.7676,4.7324,4.6953,4.6582,4.6562,4.6504,4.6426,4.6308,4.625,4.6289,4.6172,4.5937,4.5625,4.5215,4.4762,4.4473,4.4062,4.4141,4.4316,4.3965,4.375,4.3945,4.3845,4.3801,4.3704,4.404,4.3926,4.3926,4.4043,4.4023,4.3906,4.3789,4.3574,4.334,4.3476,4.3164,4.3008,4.2871,4.2832,4.2499,4.2401,4.2637,4.3027,4.3107,4.3066,4.3223,4.3437,4.3574,4.3613,4.3613,4.3535,4.334,4.3613,4.3828,4.3848,4.3848,4.3652,4.3633,4.3848,4.3769,4.2949,4.2969,4.2832,4.2637,4.2441,4.2402,4.2519,4.2558,4.2734,4.3105,4.3203,4.334,4.3535,4.3633,4.3672,4.3613,4.3594,4.3476,4.3125,4.2851,4.2598,4.2422,4.25,4.2558,4.2558,4.2715,4.2598,4.2148,4.1953,4.1953,4.1719,4.1601,4.1699,4.1641,4.1484,4.166,4.1894,4.1797,4.1699,4.1816,4.1933,4.1719,4.1562,4.1601,4.168,4.1426,4.1269,4.1387,4.1406,4.1406,4.1465,4.1601,4.1816,4.1992,4.8183,4.8125,4.8066,4.7812,4.7422,4.7363,4.7168,4.6816,4.6465,4.6308,4.6289,4.5957,4.5781,4.5547,4.5215,4.4957,4.4824,4.457,4.4473,4.4648,4.416,4.4077,4.4564,4.4453,4.386,4.3594,4.4218,4.4544,4.4185,4.3893,4.4082,4.4199,4.3945,4.3691,4.3672,4.3672,4.3652,4.3496,4.3242,4.2891,4.2538,4.242,4.2673,4.2907,4.3022,4.3098,4.331,4.3507,4.3587,4.3769,4.373,4.3691,4.3711,4.4082,4.4277,4.4316,4.4316,4.4297,4.4238,4.4355,4.4258,4.3555,4.332,4.3105,4.2988,4.2851,4.2791,4.2988,4.3027,4.3203,4.3535,4.3594,4.3672,4.3691,4.373,4.3711,4.3691,4.3691,4.3613,4.3594,4.3262,4.291,4.2676,4.2832,4.2949,4.2949,4.291,4.2812,4.2637,4.2383,4.2031,4.1758,4.1836,4.1953,4.1894,4.1738,4.1875,4.2207,4.2129,4.1973,4.2109,4.2226,4.2305,4.2187,4.2128,4.1953,4.1641,4.1484,4.1484,4.1465,4.1465,4.1601,4.1758,4.2012,4.2226,4.8574,4.8555,4.8301,4.7969,4.7578,4.7324,4.7109,4.6914,4.6694,4.6523,4.6308,4.6133,4.5781,4.5371,4.5035,4.5039,4.498,4.4801,4.4687,4.47,4.4405,4.4175,4.3829,4.384,4.3586,4.3141,4.3178,4.3321,4.35,4.4157,4.459,4.4525,4.4294,4.4121,4.3799,4.3767,4.373,4.3633,4.3516,4.334,4.3081,4.2674,4.2464,4.2636,4.2223,4.242,4.2825,4.2965,4.341,4.3837,4.4101,4.4238,4.4414,4.4668,4.4844,4.5137,4.5137,4.5,4.4785,4.4766,4.4512,4.4121,4.373,4.3457,4.3476,4.3691,4.3572,4.3437,4.3691,4.3887,4.3945,4.3848,4.3926,4.3926,4.3808,4.373,4.3691,4.3691,4.3672,4.3691,4.3691,4.3418,4.3223,4.3359,4.3457,4.3398,4.3301,4.3164,4.2891,4.2558,4.2168,4.1719,4.1933,4.2207,4.2109,4.1973,4.2051,4.2265,4.2343,4.2265,4.2362,4.246,4.2596,4.2518,4.2323,4.2089,4.1855,4.1719,4.166,4.1641,4.1601,4.1816,4.2031,4.2226,4.246,4.8894,4.8855,4.8398,4.8027,4.7695,4.7148,4.6889,4.687,4.6733,4.6538,4.6348,4.6172,4.5742,4.5332,4.5234,4.5312,4.5328,4.4978,4.4737,4.4617,4.4303,4.3747,4.3456,4.3353,4.2976,4.2152,4.2743,4.2747,4.304,4.3696,4.4334,4.4318,4.3541,4.3438,4.3369,4.3055,4.278,4.278,4.2937,4.2898,4.2742,4.2284,4.2053,4.184,4.1504,4.1462,4.2235,4.2444,4.3051,4.411,4.4355,4.4512,4.4844,4.5078,4.5293,4.5547,4.5688,4.5664,4.543,4.5273,4.498,4.4609,4.4316,4.4101,4.4141,4.4645,4.4821,4.4121,4.4141,4.4316,4.4316,4.3965,4.3887,4.3906,4.3867,4.3769,4.375,4.3887,4.3887,4.3808,4.3887,4.4082,4.3945,4.4004,4.3984,4.3887,4.373,4.3535,4.3183,4.2793,4.2422,4.2031,4.2285,4.2558,4.25,4.2402,4.2441,4.2382,4.2479,4.2655,4.2832,4.2969,4.3105,4.2889,4.2655,4.2598,4.25,4.2168,4.1875,4.207,4.2207,4.2168,4.2305,4.2499,4.2752,4.8894,4.8874,4.8379,4.8164,4.8066,4.7285,4.6933,4.6792,4.6504,4.6348,4.6211,4.5855,4.5534,4.5476,4.5327,4.5459,4.5958,4.4807,4.4508,4.404,4.3367,4.3061,4.2909,4.2824,4.2607,4.2156,4.2398,4.2425,4.2407,4.2826,4.2945,4.2506,4.253,4.1817,4.1717,4.1989,4.1835,4.1872,4.1997,4.188,4.1611,4.1308,4.1163,4.1084,4.1084,4.142,4.2277,4.2273,4.2938,4.4201,4.4528,4.4785,4.5215,4.5488,4.5703,4.5801,4.6016,4.6074,4.5976,4.5683,4.5391,4.5098,4.4902,4.4805,4.4726,4.486,4.4918,4.4801,4.4687,4.457,4.4375,4.4062,4.4043,4.416,4.4219,4.4004,4.4062,4.4258,4.4238,4.4004,4.4082,4.4375,4.4473,4.4473,4.4453,4.4355,4.4141,4.3945,4.3457,4.3066,4.2773,4.2558,4.2773,4.293,4.2969,4.293,4.2832,4.2773,4.2793,4.3066,4.3359,4.3457,4.332,4.3437,4.3242,4.3203,4.3066,4.2617,4.2402,4.2715,4.2832,4.2715,4.293,4.3281,4.3437,4.8894,4.8835,4.8125,4.7812,4.7793,4.7461,4.7031,4.6562,4.6367,4.6133,4.5874,4.4909,4.453,4.4592,4.4146,4.4134,4.441,4.4051,4.3737,4.3556,4.3111,4.2687,4.2584,4.2335,4.2181,4.1548,4.179,4.18,4.1263,4.1943,4.1466,4.124,4.1756,4.2232,4.2142,4.1616,4.1586,4.1647,4.1781,4.1708,4.1354,4.0734,4.0431,4.0216,3.9476,3.9858,4.0657,4.1571,4.265,4.3817,4.4702,4.5203,4.5644,4.5918,4.6016,4.6035,4.623,4.6269,4.625,4.5918,4.5488,4.5215,4.5215,4.5332,4.5195,4.5426,4.541,4.5254,4.5137,4.5058,4.5098,4.4824,4.4648,4.4746,4.4629,4.4355,4.4375,4.459,4.457,4.4336,4.4551,4.4782,4.484,4.486,4.4863,4.4805,4.457,4.4297,4.3848,4.3437,4.3183,4.3047,4.3242,4.3164,4.3183,4.3183,4.3224,4.3144,4.3086,4.3301,4.3516,4.3301,4.3242,4.3496,4.3691,4.3535,4.3281,4.291,4.2851,4.3008,4.3125,4.3183,4.3516,4.3945,4.4062,4.8894,4.8835,4.8268,4.7936,4.7734,4.7363,4.6953,4.6523,4.6348,4.5978,4.5406,4.4404,4.3927,4.3803,4.3438,4.3195,4.3434,4.3167,4.2861,4.2602,4.2353,4.2085,4.1804,4.1744,4.1761,4.1069,4.1114,4.1212,4.1149,4.1263,4.1063,4.1155,4.154,4.1889,4.1583,4.167,4.1509,4.1419,4.1473,4.1347,4.0833,4.0372,3.9825,3.9501,3.8976,3.9217,3.9997,4.0903,4.2186,4.3518,4.4674,4.5473,4.5982,4.6308,4.6308,4.6308,4.6308,4.6308,4.6211,4.6055,4.5723,4.5605,4.5703,4.5683,4.5664,4.5957,4.5879,4.5605,4.5625,4.5683,4.5707,4.5215,4.4961,4.4961,4.4941,4.4726,4.4785,4.4941,4.4824,4.4707,4.5058,4.5449,4.5351,4.5371,4.5192,4.5117,4.4844,4.4648,4.4414,4.4043,4.373,4.3652,4.3691,4.3535,4.3359,4.3574,4.373,4.3496,4.3457,4.3379,4.3437,4.3301,4.3301,4.3555,4.3691,4.3691,4.3613,4.3437,4.3281,4.3203,4.3476,4.3848,4.3945,4.4316,4.4492,4.8874,4.8894,4.8796,4.8542,4.7988,4.6855,4.6582,4.6674,4.6314,4.5739,4.504,4.4656,4.4044,4.3478,4.3015,4.2909,4.2756,4.2362,4.2012,4.1859,4.1436,4.1091,4.1189,4.1315,4.158,4.164,4.1679,4.1662,4.1577,4.1662,4.1423,4.1166,4.132,4.1047,3.9819,3.9953,3.9919,3.9723,4.0149,4.0117,3.9936,3.9745,3.9511,3.9209,3.8992,3.9323,3.9965,4.0479,4.1724,4.3211,4.409,4.4881,4.5661,4.607,4.6177,4.6221,4.6265,4.6308,4.6289,4.6269,4.6172,4.6094,4.6113,4.6113,4.6191,4.6289,4.6269,4.5957,4.5918,4.5805,4.5566,4.5391,4.5312,4.5273,4.5273,4.5215,4.5254,4.5391,4.5332,4.5293,4.5762,4.6152,4.5996,4.584,4.5644,4.543,4.5137,4.4961,4.4863,4.4687,4.4414,4.4219,4.4219,4.4141,4.4043,4.4199,4.4238,4.3984,4.3828,4.3769,4.3769,4.3769,4.3769,4.375,4.3711,4.373,4.3906,4.4062,4.4023,4.4043,4.4336,4.4609,4.4629,4.4648,4.4824,4.8418,4.8359,4.7812,4.7656,4.7715,4.7363,4.6933,4.6411,4.5772,4.5319,4.4937,4.3833,4.2882,4.2443,4.2107,4.188,4.1604,4.1713,4.1411,4.1054,4.072,4.0726,4.0892,4.1303,4.152,4.1525,4.1714,4.1936,4.1679,4.1953,4.1851,4.1594,4.1286,4.0823,4.044,4.0361,4.0355,4.0286,4.0355,4.0224,3.9899,3.9847,3.9632,3.9272,3.9238,3.9473,3.9988,4.0331,4.1329,4.2531,4.3203,4.4171,4.4819,4.5179,4.584,4.5953,4.6065,4.6308,4.6308,4.6289,4.6289,4.6308,4.6308,4.6308,4.6308,4.6308,4.6308,4.6289,4.6152,4.6035,4.6035,4.5996,4.5957,4.5957,4.5918,4.5723,4.5742,4.5937,4.5996,4.5976,4.625,4.6308,4.6211,4.6133,4.5976,4.5957,4.5742,4.5547,4.543,4.5351,4.5156,4.4883,4.4723,4.4704,4.4766,4.4766,4.4726,4.4531,4.4336,4.4199,4.4199,4.4238,4.4043,4.3945,4.3848,4.3789,4.4219,4.4609,4.4844,4.5019,4.5019,4.5117,4.5176,4.5117,4.5078,4.7988,4.793,4.7383,4.7226,4.7324,4.7207,4.6664,4.5821,4.5166,4.4742,4.3962,4.2613,4.191,4.1653,4.1223,4.1029,4.0789,4.0903,4.1109,4.0738,4.0663,4.0955,4.1268,4.1491,4.1782,4.1799,4.2108,4.233,4.2146,4.2364,4.2244,4.1919,4.1542,4.1268,4.0994,4.0892,4.0857,4.0909,4.0994,4.084,4.0521,4.0197,3.9903,3.9501,3.931,3.9322,3.9706,4.022,4.0794,4.152,4.2397,4.3397,4.3858,4.4566,4.5452,4.5763,4.6163,4.6459,4.6513,4.6543,4.6504,4.6328,4.6308,4.6308,4.6308,4.6308,4.6308,4.6308,4.6308,4.6289,4.6289,4.6308,4.6308,4.6289,4.623,4.6035,4.6055,4.623,4.6426,4.6426,4.6445,4.6445,4.6465,4.6367,4.6269,4.6328,4.6367,4.6133,4.5898,4.5781,4.5683,4.5449,4.5273,4.5231,4.5215,4.5156,4.5117,4.4996,4.4902,4.4785,4.4707,4.4726,4.4414,4.4199,4.4297,4.4492,4.4844,4.5156,4.5312,4.5312,4.5215,4.5371,4.5625,4.5547,4.5371,4.7603,4.7558,4.7539,4.7221,4.6806,4.6279,4.5645,4.4876,4.4769,4.3748,4.2173,4.2128,4.1583,4.1161,4.0806,4.0875,4.1063,4.0857,4.0989,4.1023,4.0823,4.1332,4.1594,4.1816,4.1988,4.242,4.271,4.2659,4.2745,4.2693,4.2505,4.2296,4.1919,4.1765,4.1628,4.1398,4.1376,4.141,4.1318,4.1118,4.0867,4.0511,4.0041,3.9585,3.9315,3.9316,3.9503,3.9653,4.0306,4.0976,4.1633,4.2731,4.3682,4.4499,4.5185,4.5894,4.6471,4.66,4.6675,4.6642,4.6454,4.6196,4.6275,4.626,4.6308,4.6308,4.6308,4.6308,4.6308,4.6308,4.6308,4.6308,4.6308,4.6308,4.6308,4.625,4.6269,4.6426,4.6621,4.6699,4.6699,4.6738,4.6836,4.6777,4.6484,4.6543,4.6523,4.6308,4.6094,4.5937,4.5859,4.5859,4.5742,4.5762,4.5703,4.5605,4.5566,4.5484,4.5566,4.5469,4.5371,4.5176,4.4941,4.4824,4.4918,4.5137,4.5293,4.5488,4.5683,4.5644,4.5566,4.5508,4.5742,4.5703,4.5586,4.7109,4.709,4.6797,4.6205,4.5407,4.4611,4.4279,4.4234,4.3341,4.2559,4.2437,4.143,4.1022,4.0817,4.1183,4.1234,4.1268,4.1286,4.1251,4.1183,4.1097,4.108,4.1337,4.1799,4.2022,4.2231,4.2488,4.2813,4.2796,4.2813,4.2748,4.2608,4.2249,4.2231,4.2072,4.1764,4.1655,4.1536,4.1395,4.1183,4.0912,4.0487,4.0114,3.9779,3.9558,3.9616,3.9846,3.9726,4.016,4.0386,4.0832,4.144,4.1259,4.309,4.4609,4.5932,4.6231,4.6309,4.6323,4.6349,4.6203,4.5993,4.603,4.6235,4.6294,4.6284,4.6284,4.6308,4.6308,4.6308,4.6308,4.6308,4.6308,4.6308,4.6308,4.6348,4.6387,4.6601,4.6816,4.7109,4.7109,4.7168,4.7246,4.6875,4.6641,4.6674,4.6616,4.6426,4.6269,4.6113,4.6035,4.6055,4.6055,4.6035,4.6094,4.6035,4.6035,4.6035,4.6055,4.5976,4.5723,4.5527,4.541,4.5371,4.541,4.5488,4.5586,4.5781,4.5976,4.6094,4.6055,4.5898,4.5801,4.5801,4.584,4.668,4.6552,4.5967,4.4971,4.3774,4.3132,4.2847,4.2657,4.2163,4.2008,4.1786,4.1004,4.0669,4.0857,4.1114,4.1251,4.1405,4.1371,4.1503,4.1697,4.1423,4.1594,4.1765,4.1936,4.221,4.23,4.2471,4.2813,4.2748,4.2604,4.2556,4.2731,4.2444,4.2386,4.2307,4.1998,4.1686,4.1456,4.1278,4.0971,4.0715,4.0382,4.0127,3.9903,3.9793,3.9877,4.009,3.982,3.9772,3.9901,4.0254,4.0492,4.0881,4.2865,4.4407,4.5603,4.6157,4.6293,4.6436,4.6405,4.6133,4.5875,4.5801,4.5865,4.6053,4.6094,4.6236,4.6308,4.6308,4.6308,4.6308,4.6308,4.6308,4.6308,4.6348,4.6387,4.6562,4.6733,4.7109,4.748,4.7598,4.7637,4.7441,4.7031,4.6758,4.6714,4.6596,4.6406,4.6308,4.625,4.6211,4.6211,4.623,4.625,4.6308,4.6308,4.623,4.6269,4.6465,4.6328,4.6055,4.6035,4.6074,4.5937,4.5801,4.5859,4.5918,4.6074,4.623,4.6308,4.6308,4.6152,4.6035,4.6035,4.6113,4.6308,4.624,4.5211,4.3774,4.2119,4.1939,4.1461,4.072,4.1489,4.1444,4.0782,4.0629,4.0755,4.0955,4.1006,4.1217,4.1405,4.1474,4.1714,4.2227,4.1782,4.1816,4.2108,4.245,4.2381,4.2608,4.2748,4.2717,4.2556,4.2316,4.2172,4.2621,4.2186,4.2011,4.1946,4.1737,4.1428,4.1154,4.0977,4.0784,4.0619,4.0234,3.9802,3.9465,3.9211,3.9069,3.9244,3.9323,3.9403,3.9689,3.9931,4.032,4.1542,4.2659,4.3914,4.4748,4.5288,4.5488,4.5602,4.5594,4.5769,4.5616,4.5604,4.5517,4.5635,4.5907,4.6041,4.6002,4.5958,4.609,4.6133,4.6265,4.6308,4.6308,4.6328,4.6484,4.6738,4.6992,4.7344,4.7637,4.7656,4.7715,4.7734,4.7344,4.707,4.6953,4.6694,4.6484,4.6367,4.6367,4.6308,4.6308,4.6308,4.6308,4.6308,4.6308,4.6308,4.6406,4.6641,4.6699,4.6426,4.6562,4.6753,4.6543,4.6269,4.623,4.6289,4.6328,4.6308,4.6308,4.6308,4.6308,4.6269,4.623,4.625,4.6308,4.6114,4.4466,4.3043,4.1939,4.1218,4.0856,4.0629,4.081,4.0856,4.0646,4.0601,4.0635,4.0738,4.104,4.132,4.156,4.1611,4.1868,4.2056,4.1902,4.1885,4.2043,4.2283,4.2334,4.2484,4.256,4.2525,4.222,4.1835,4.1497,4.1642,4.1497,4.1497,4.1449,4.1256,4.0901,4.0707,4.0465,4.0449,4.0416,4.0142,3.9755,3.9675,3.9498,3.945,3.9593,3.9625,3.9673,3.9817,3.9817,4.0319,4.1271,4.1818,4.2474,4.3192,4.3764,4.4057,4.4116,4.4246,4.4274,4.4544,4.4579,4.4994,4.5325,4.5617,4.5733,4.5645,4.567,4.5846,4.5977,4.6109,4.6221,4.6221,4.6265,4.6557,4.6831,4.7182,4.7558,4.7631,4.7695,4.7734,4.7812,4.7695,4.7461,4.7226,4.6992,4.6758,4.6582,4.6504,4.6328,4.6308,4.6308,4.6308,4.6308,4.6308,4.6308,4.6445,4.666,4.6719,4.6758,4.6894,4.6967,4.687,4.6714,4.666,4.6523,4.6348,4.6328,4.6308,4.6308,4.6308,4.6308,4.6269,4.6289,4.6046,4.5475,4.3578,4.2236,4.1353,4.081,4.0583,4.0583,4.0583,4.0686,4.0823,4.0886,4.08,4.0738,4.1149,4.1474,4.1697,4.1697,4.1936,4.209,4.206,4.2022,4.206,4.2059,4.2185,4.224,4.2102,4.19,4.169,4.1304,4.1014,4.1159,4.1111,4.0917,4.0917,4.061,4.0368,4.019,3.993,4.0011,4.019,3.9963,3.9817,3.9817,3.9817,3.9817,3.9817,3.9817,3.9817,3.9817,3.9817,3.9963,4.061,4.1126,4.1609,4.2138,4.257,4.2762,4.2714,4.2727,4.2867,4.3295,4.3286,4.363,4.4265,4.4562,4.498,4.4988,4.5503,4.5706,4.5591,4.5686,4.5576,4.55,4.5777,4.6108,4.6628,4.7106,4.7386,4.756,4.7658,4.7793,4.7812,4.7754,4.748,4.7129,4.6909,4.6772,4.6635,4.6562,4.6406,4.6308,4.6308,4.6308,4.6308,4.6308,4.6308,4.6465,4.666,4.6953,4.7109,4.7148,4.7143,4.7143,4.7148,4.7012,4.6836,4.6601,4.6387,4.6348,4.6328,4.6308,4.6308,4.6308,4.6308,4.5475,4.4326,4.2703,4.1489,4.0674,4.0583,4.0583,4.0583,4.0583,4.0806,4.1177,4.1246,4.1012,4.108,4.1337,4.1594,4.1782,4.1885,4.2073,4.2249,4.2154,4.2004,4.1917,4.1964,4.1874,4.1687,4.1481,4.1353,4.1208,4.0772,4.0578,4.0917,4.0788,4.0449,4.0465,4.04,4.0222,4.0106,3.9992,3.988,3.9848,3.9833,3.9817,3.9817,3.9817,3.9817,3.9817,3.9817,3.9817,3.9817,3.9817,3.9865,4.0044,4.0562,4.0804,4.1239,4.1625,4.1963,4.2107,4.1994,4.2282,4.2437,4.2182,4.2455,4.3169,4.359,4.4082,4.4435,4.4925,4.5025,4.4913,4.4994,4.4825,4.4889,4.5211,4.5546,4.6107,4.6709,4.6934,4.7136,4.7249,4.7392,4.7321,4.7289,4.7334,4.6964,4.68,4.6714,4.6557,4.6484,4.6348,4.6308,4.6308,4.6308,4.6308,4.6308,4.6308,4.6445,4.666,4.7109,4.7441,4.7422,4.748,4.7617,4.7539,4.7305,4.7129,4.6914,4.6699,4.6426,4.6328,4.6308,4.6308,4.6308,4.6308,4.413,4.2524,4.2119,4.1444,4.0674,4.0583,4.0583,4.0583,4.0601,4.0806,4.1217,4.1491,4.1525,4.1491,4.1594,4.1816,4.2073,4.2108,4.2351,4.2642,4.1951,4.1758,4.1585,4.1288,4.1249,4.1109,4.0917,4.0707,4.0627,4.0238,3.9963,4.0189,4.0141,4.009,4.0265,4.0201,4.017,4.0135,4.0055,3.9912,4.0071,4.0008,3.9833,3.9817,3.9817,3.9817,3.9817,3.9817,3.9817,3.9817,3.9817,3.9817,3.9914,4.0044,4.0238,4.0384,4.0724,4.0724,4.0869,4.0869,4.1063,4.1561,4.149,4.1826,4.2349,4.2682,4.3031,4.3086,4.3415,4.3331,4.3319,4.386,4.3929,4.4189,4.4502,4.4691,4.5052,4.543,4.5672,4.5713,4.5675,4.5686,4.5581,4.5911,4.6759,4.6526,4.6504,4.6402,4.6254,4.6249,4.6177,4.6177,4.6133,4.6308,4.6308,4.6308,4.6328,4.6445,4.668,4.7148,4.748,4.7662,4.776,4.7851,4.7734,4.748,4.7324,4.6987,4.6831,4.6601,4.6406,4.6308,4.6308,4.6308,4.6308]},{"header":{"parameterUnit":"m.s-1","parameterCategory":1,"la1":31.0,"la2":29.5877,"lo1":-88.7671,"lo2":-86.6584,"dy":0.0162,"dx":0.0185,"nx":115,"ny":88,"refTime":"2023-11-12T06:00:00:Z","depth":0,"parameterNumber":3,"parameterNumberName":"V-component_of_WINDS"},"data":[0.0,0.0,0.0,0.0,0.0,0.0,0.0,0.0,0.0,0.0,0.0,0.0,0.0,0.0,0.0,0.0,0.0,0.0,0.0,0.0,0.0,0.0,0.0,0.0,0.0,0.0,0.0,0.0,0.0,0.0,0.0,0.0,0.0,0.0,0.0,0.0,0.0,0.0,0.0,0.0,0.0,0.0,0.0,0.0,0.0,0.0,0.0,0.0,0.0,0.0,0.0,0.0,0.0,0.0,0.0,0.0,0.0,0.0,0.0,0.0,0.0,0.0,0.0,0.0,0.0,0.0,0.0,0.0,0.0,0.0,0.0,0.0,0.0,0.0,0.0,0.0,0.0,0.0,0.0,0.0,0.0,0.0,0.0,0.0,0.0,0.0,0.0,0.0,0.0,0.0,0.0,0.0,0.0,0.0,0.0,0.0,0.0,0.0,0.0,0.0,0.0,0.0,0.0,0.0,0.0,0.0,0.0,0.0,0.0,0.0,0.0,0.0,0.0,0.0,0.0,0.0,0.0,0.0,0.0,0.0,0.0,0.0,0.0,0.0,0.0,0.0,0.0,0.0,0.0,0.0,0.0,0.0,0.0,0.0,0.0,0.0,0.0,0.0,0.0,0.0,0.0,0.0,0.0,0.0,0.0,0.0,0.0,0.0,0.0,0.0,0.0,0.0,0.0,0.0,0.0,0.0,0.0,0.0,0.0,0.0,0.0,0.0,0.0,0.0,0.0,0.0,0.0,0.0,0.0,0.0,0.0,0.0,0.0,0.0,0.0,0.0,0.0,0.0,0.0,0.0,0.0,0.0,0.0,0.0,0.0,0.0,0.0,0.0,0.0,0.0,0.0,0.0,0.0,0.0,0.0,0.0,0.0,0.0,0.0,0.0,0.0,0.0,0.0,0.0,0.0,0.0,0.0,0.0,0.0,0.0,0.0,0.0,0.0,0.0,0.0,0.0,0.0,0.0,0.0,0.0,0.0,0.0,0.0,0.0,0.0,0.0,0.0,0.0,0.0,0.0,0.0,0.0,0.0,0.0,0.0,0.0,0.0,0.0,0.0,0.0,0.0,0.0,0.0,0.0,0.0,0.0,0.0,0.0,0.0,0.0,0.0,0.0,0.0,0.0,0.0,0.0,0.0,0.0,0.0,0.0,0.0,0.0,0.0,0.0,0.0,0.0,0.0,0.0,0.0,0.0,0.0,0.0,0.0,0.0,0.0,0.0,0.0,0.0,0.0,0.0,0.0,0.0,0.0,0.0,0.0,0.0,0.0,0.0,0.0,0.0,0.0,0.0,0.0,0.0,0.0,0.0,0.0,0.0,0.0,0.0,0.0,0.0,0.0,0.0,0.0,0.0,0.0,0.0,0.0,0.0,0.0,0.0,0.0,0.0,0.0,0.0,0.0,0.0,0.0,0.0,0.0,0.0,0.0,0.0,0.0,0.0,0.0,0.0,0.0,0.0,0.0,0.0,0.0,0.0,0.0,0.0,0.0,0.0,0.0,0.0,0.0,0.0,0.0,0.0,0.0,0.0,0.0,0.0,0.0,0.0,0.0,0.0,0.0,0.0,0.0,0.0,0.0,0.0,0.0,0.0,0.0,0.0,0.0,0.0,0.0,0.0,0.0,0.0,0.0,0.0,0.0,0.0,0.0,0.0,0.0,0.0,0.0,0.0,0.0,0.0,0.0,0.0,0.0,0.0,0.0,0.0,0.0,0.0,0.0,0.0,0.0,0.0,0.0,0.0,0.0,0.0,0.0,0.0,0.0,0.0,0.0,0.0,0.0,0.0,0.0,0.0,0.0,0.0,0.0,0.0,0.0,0.0,0.0,0.0,0.0,0.0,0.0,0.0,0.0,0.0,0.0,0.0,0.0,0.0,0.0,0.0,0.0,0.0,0.0,0.0,0.0,0.0,0.0,0.0,0.0,0.0,0.0,0.0,0.0,0.0,0.0,0.0,0.0,0.0,0.0,0.0,0.0,0.0,0.0,0.0,0.0,0.0,0.0,0.0,0.0,0.0,0.0,0.0,0.0,0.0,0.0,0.0,0.0,0.0,0.0,0.0,0.0,0.0,0.0,0.0,0.0,0.0,0.0,0.0,0.0,0.0,0.0,0.0,0.0,0.0,0.0,0.0,0.0,0.0,0.0,0.0,0.0,0.0,0.0,0.0,0.0,0.0,0.0,0.0,0.0,0.0,0.0,0.0,0.0,0.0,0.0,0.0,0.0,0.0,0.0,0.0,0.0,0.0,0.0,0.0,0.0,0.0,0.0,0.0,0.0,0.0,0.0,0.0,0.0,0.0,0.0,0.0,0.0,0.0,0.0,0.0,0.0,0.0,0.0,0.0,0.0,0.0,0.0,0.0,0.0,0.0,0.0,0.0,0.0,0.0,0.0,0.0,0.0,0.0,0.0,0.0,0.0,0.0,0.0,0.0,0.0,0.0,0.0,0.0,0.0,0.0,0.0,0.0,0.0,0.0,0.0,0.0,0.0,0.0,0.0,0.0,0.0,0.0,0.0,0.0,0.0,0.0,0.0,0.0,0.0,0.0,0.0,0.0,0.0,0.0,0.0,0.0,0.0,0.0,0.0,0.0,0.0,0.0,0.0,0.0,0.0,0.0,0.0,0.0,0.0,0.0,0.0,0.0,0.0,0.0,0.0,0.0,0.0,0.0,0.0,0.0,0.0,0.0,0.0,0.0,0.0,0.0,0.0,0.0,0.0,0.0,0.0,0.0,0.0,0.0,0.0,0.0,0.0,0.0,0.0,0.0,0.0,0.0,0.0,0.0,0.0,0.0,0.0,0.0,0.0,0.0,0.0,0.0,0.0,0.0,0.0,0.0,0.0,0.0,0.0,0.0,0.0,0.0,0.0,0.0,0.0,0.0,0.0,0.0,0.0,0.0,0.0,0.0,0.0,0.0,0.0,0.0,0.0,0.0,0.0,0.0,0.0,0.0,0.0,0.0,0.0,0.0,0.0,0.0,0.0,0.0,0.0,0.0,0.0,0.0,0.0,0.0,0.0,0.0,0.0,0.0,0.0,0.0,0.0,0.0,0.0,0.0,0.0,0.0,0.0,0.0,0.0,0.0,0.0,0.0,0.0,0.0,0.0,0.0,0.0,0.0,0.0,0.0,0.0,0.0,0.0,0.0,0.0,0.0,0.0,0.0,0.0,0.0,0.0,0.0,0.0,0.0,0.0,0.0,0.0,0.0,0.0,0.0,0.0,0.0,0.0,0.0,0.0,0.0,0.0,0.0,0.0,0.0,0.0,0.0,0.0,0.0,0.0,0.0,0.0,0.0,0.0,0.0,0.0,0.0,0.0,0.0,0.0,0.0,0.0,0.0,0.0,0.0,0.0,0.0,0.0,0.0,0.0,0.0,0.0,0.0,0.0,0.0,0.0,0.0,0.0,0.0,0.0,0.0,0.0,0.0,0.0,0.0,0.0,0.0,0.0,0.0,0.0,0.0,0.0,0.0,0.0,0.0,0.0,0.0,0.0,0.0,0.0,0.0,0.0,0.0,0.0,0.0,0.0,0.0,0.0,0.0,0.0,0.0,0.0,0.0,0.0,0.0,0.0,0.0,0.0,0.0,0.0,0.0,0.0,0.0,0.0,0.0,0.0,0.0,0.0,0.0,0.0,0.0,0.0,0.0,0.0,0.0,0.0,0.0,0.0,0.0,0.0,0.0,0.0,0.0,0.0,0.0,0.0,0.0,0.0,0.0,0.0,0.0,0.0,0.0,0.0,0.0,0.0,0.0,0.0,0.0,0.0,0.0,0.0,0.0,0.0,0.0,0.0,0.0,0.0,0.0,0.0,0.0,0.0,0.0,0.0,0.0,0.0,0.0,0.0,0.0,0.0,0.0,0.0,0.0,0.0,0.0,0.0,0.0,0.0,0.0,0.0,0.0,0.0,0.0,0.0,0.0,0.0,0.0,0.0,0.0,0.0,0.0,0.0,0.0,0.0,0.0,0.0,0.0,0.0,0.0,0.0,0.0,0.0,0.0,0.0,0.0,0.0,0.0,0.0,0.0,0.0,0.0,0.0,0.0,0.0,0.0,0.0,0.0,0.0,0.0,0.0,0.0,0.0,0.0,0.0,0.0,0.0,0.0,0.0,0.0,0.0,0.0,0.0,0.0,0.0,0.0,0.0,0.0,0.0,0.0,0.0,0.0,0.0,0.0,0.0,0.0,0.0,0.0,0.0,0.0,0.0,0.0,0.0,0.0,0.0,0.0,0.0,0.0,0.0,0.0,0.0,0.0,0.0,0.0,1.8405,0.0,0.0,0.0,0.0,0.0,0.0,0.0,0.0,0.0,0.0,0.0,0.0,0.0,0.0,0.0,0.0,0.0,0.0,0.0,0.0,0.0,0.0,0.0,0.0,0.0,0.0,0.0,0.0,0.0,0.0,0.0,0.0,0.0,0.0,0.0,0.0,0.0,0.0,0.0,0.0,0.0,0.0,0.0,0.0,0.0,0.0,0.0,0.0,0.0,0.0,0.0,0.0,0.0,0.0,0.0,0.0,0.0,0.0,0.0,0.0,0.0,0.0,0.0,0.0,0.0,0.0,0.0,0.0,0.0,0.0,0.0,0.0,0.0,0.0,0.0,0.0,0.0,0.0,0.0,0.0,0.0,0.0,0.0,0.0,0.0,0.0,0.0,0.0,0.0,0.0,0.0,0.0,0.0,0.0,0.0,0.0,0.0,0.0,0.0,0.0,0.0,0.0,0.0,0.0,0.0,0.0,0.0,0.0,0.0,0.0,1.8749,1.8526,1.8488,1.8488,1.8526,0.0,0.0,0.0,0.0,0.0,0.0,0.0,0.0,0.0,0.0,0.0,0.0,0.0,0.0,0.0,0.0,0.0,0.0,0.0,0.0,0.0,0.0,0.0,0.0,0.0,0.0,0.0,0.0,0.0,0.0,0.0,0.0,0.0,0.0,0.0,0.0,0.0,0.0,0.0,0.0,0.0,0.0,0.0,0.0,0.0,0.0,0.0,0.0,0.0,0.0,0.0,0.0,0.0,0.0,0.0,0.0,0.0,0.0,0.0,0.0,0.0,0.0,0.0,0.0,0.0,0.0,0.0,0.0,0.0,0.0,0.0,0.0,0.0,0.0,0.0,0.0,0.0,0.0,0.0,0.0,0.0,0.0,0.0,0.0,0.0,0.0,0.0,0.0,0.0,0.0,0.0,0.0,0.0,0.0,0.0,0.0,0.0,0.0,0.0,0.0,0.0,0.0,0.0,0.0,0.0,0.0,0.0,0.0,0.0,0.0,0.0,0.0,1.9406,1.9524,1.9976,0.0,0.0,0.0,0.0,0.0,0.0,0.0,0.0,0.0,0.0,0.0,0.0,0.0,0.0,0.0,0.0,0.0,0.0,0.0,0.0,0.0,0.0,0.0,0.0,0.0,0.0,0.0,0.0,0.0,0.0,0.0,0.0,0.0,0.0,0.0,0.0,0.0,0.0,0.0,0.0,0.0,0.0,0.0,0.0,0.0,0.0,0.0,0.0,0.0,0.0,0.0,0.0,0.0,0.0,0.0,0.0,0.0,0.0,0.0,0.0,0.0,0.0,0.0,0.0,0.0,0.0,0.0,0.0,0.0,0.0,0.0,0.0,0.0,0.0,0.0,0.0,0.0,0.0,0.0,0.0,0.0,0.0,0.0,0.0,0.0,0.0,0.0,0.0,0.0,0.0,0.0,0.0,0.0,0.0,0.0,0.0,0.0,0.0,0.0,0.0,0.0,0.0,0.0,0.0,0.0,0.0,0.0,0.0,0.0,0.0,1.9716,2.2592,2.2126,0.0,2.412,0.0,0.0,0.0,0.0,0.0,0.0,0.0,0.0,0.0,0.0,0.0,0.0,0.0,0.0,0.0,0.0,0.0,0.0,0.0,0.0,0.0,0.0,0.0,0.0,0.0,0.0,0.0,0.0,0.0,0.0,0.0,0.0,0.0,0.0,0.0,0.0,0.0,0.0,0.0,0.0,0.0,0.0,0.0,0.0,0.0,0.0,0.0,0.0,0.0,0.0,0.0,0.0,0.0,0.0,0.0,0.0,0.0,0.0,0.0,0.0,0.0,0.0,0.0,0.0,0.0,0.0,0.0,0.0,0.0,0.0,0.0,0.0,0.0,0.0,0.0,0.0,0.0,0.0,0.0,0.0,0.0,0.0,0.0,0.0,0.0,0.0,0.0,0.0,0.0,0.0,0.0,0.0,0.0,0.0,0.0,0.0,0.0,0.0,0.0,0.0,0.0,0.0,0.0,0.0,0.0,0.0,0.0,0.0,0.0,0.0,2.0884,2.2547,2.2334,2.267,0.0,0.0,0.0,0.0,0.0,0.0,0.0,0.0,0.0,0.0,0.0,0.0,0.0,0.0,0.0,0.0,0.0,0.0,0.0,0.0,0.0,0.0,0.0,0.0,0.0,0.0,0.0,0.0,0.0,0.0,0.0,0.0,0.0,0.0,0.0,0.0,0.0,0.0,0.0,0.0,0.0,0.0,0.0,0.0,0.0,0.0,0.0,0.0,0.0,0.0,0.0,0.0,0.0,0.0,0.0,0.0,0.0,0.0,0.0,0.0,0.0,0.0,0.0,0.0,0.0,0.0,0.0,0.0,0.0,0.0,0.0,0.0,0.0,0.0,0.0,0.0,0.0,0.0,0.0,0.0,0.0,0.0,0.0,0.0,0.0,0.0,0.0,0.0,0.0,0.0,0.0,0.0,0.0,0.0,0.0,0.0,0.0,0.0,0.0,0.0,0.0,0.0,0.0,0.0,0.0,0.0,0.0,0.0,0.0,0.0,2.1226,2.2154,2.3326,2.3029,2.2984,2.3328,0.0,0.0,0.0,0.0,0.0,0.0,0.0,0.0,0.0,0.0,0.0,0.0,0.0,0.0,0.0,0.0,0.0,0.0,0.0,0.0,0.0,0.0,0.0,0.0,0.0,0.0,0.0,0.0,0.0,0.0,0.0,0.0,0.0,0.0,0.0,0.0,0.0,0.0,0.0,0.0,0.0,0.0,0.0,0.0,0.0,0.0,0.0,0.0,0.0,0.0,0.0,0.0,0.0,0.0,0.0,0.0,0.0,0.0,0.0,0.0,0.0,0.0,0.0,0.0,0.0,0.0,0.0,0.0,0.0,0.0,0.0,0.0,0.0,0.0,0.0,0.0,0.0,0.0,0.0,0.0,0.0,0.0,0.0,0.0,0.0,0.0,0.0,0.0,0.0,0.0,0.0,0.0,0.0,0.0,0.0,0.0,0.0,0.0,0.0,0.0,0.0,0.0,0.0,0.0,0.0,0.0,0.0,0.0,2.5121,2.3262,2.3497,2.6218,2.5089,2.4402,0.0,0.0,0.0,0.0,0.0,0.0,0.0,0.0,0.0,0.0,0.0,0.0,0.0,0.0,0.0,0.0,0.0,0.0,0.0,0.0,0.0,0.0,0.0,0.0,0.0,0.0,0.0,0.0,0.0,0.0,0.0,0.0,0.0,0.0,0.0,0.0,0.0,0.0,0.0,0.0,0.0,0.0,0.0,0.0,0.0,0.0,0.0,0.0,0.0,0.0,0.0,0.0,0.0,0.0,0.0,0.0,0.0,0.0,0.0,0.0,0.0,0.0,0.0,0.0,0.0,0.0,0.0,0.0,0.0,0.0,0.0,0.0,0.0,0.0,0.0,0.0,0.0,0.0,0.0,0.0,0.0,0.0,0.0,0.0,0.0,0.0,0.0,0.0,0.0,0.0,0.0,0.0,0.0,0.0,0.0,0.0,0.0,0.0,0.0,0.0,0.0,0.0,0.0,0.0,0.0,0.0,0.0,0.0,0.0,2.0512,2.162,2.3856,2.7101,2.4664,2.3822,0.0,0.0,0.0,0.0,0.0,0.0,0.0,0.0,0.0,0.0,0.0,0.0,0.0,0.0,0.0,0.0,0.0,0.0,0.0,0.0,0.0,0.0,0.0,0.0,0.0,0.0,0.0,0.0,0.0,0.0,0.0,0.0,0.0,0.0,0.0,0.0,0.0,0.0,0.0,0.0,0.0,0.0,0.0,0.0,0.0,0.0,0.0,0.0,0.0,0.0,0.0,0.0,0.0,0.0,0.0,0.0,0.0,0.0,0.0,0.0,0.0,0.0,0.0,0.0,0.0,0.0,0.0,0.0,0.0,0.0,0.0,0.0,0.0,0.0,0.0,0.0,0.0,0.0,0.0,0.0,0.0,0.0,0.0,0.0,0.0,0.0,0.0,0.0,0.0,0.0,0.0,0.0,0.0,0.0,0.0,0.0,0.0,0.0,0.0,0.0,0.0,0.0,0.0,0.0,0.0,0.0,0.0,0.0,0.0,1.9978,0.0,2.505,2.6876,2.4551,2.3347,0.0,0.0,0.0,0.0,0.0,0.0,0.0,0.0,0.0,0.0,0.0,0.0,0.0,0.0,0.0,0.0,0.0,0.0,0.0,0.0,0.0,0.0,0.0,0.0,0.0,0.0,0.0,0.0,0.0,0.0,0.0,0.0,0.0,0.0,0.0,0.0,0.0,0.0,0.0,0.0,0.0,0.0,0.0,0.0,0.0,0.0,0.0,0.0,0.0,0.0,0.0,0.0,0.0,0.0,0.0,0.0,0.0,0.0,0.0,0.0,0.0,0.0,0.0,0.0,0.0,0.0,0.0,0.0,0.0,0.0,0.0,0.0,0.0,0.0,0.0,0.0,0.0,0.0,0.0,0.0,0.0,0.0,0.0,0.0,0.0,0.0,0.0,0.0,0.0,0.0,0.0,0.0,0.0,0.0,0.0,0.0,0.0,0.0,0.0,0.0,0.0,0.0,0.0,0.0,0.0,0.0,0.0,0.0,2.0017,2.4656,2.661,2.6933,2.5813,2.4888,2.3051,0.0,0.0,0.0,0.0,0.0,0.0,0.0,0.0,0.0,0.0,0.0,0.0,0.0,0.0,0.0,0.0,0.0,0.0,0.0,0.0,0.0,0.0,0.0,0.0,0.0,0.0,0.0,0.0,0.0,0.0,0.0,0.0,0.0,0.0,0.0,0.0,0.0,0.0,0.0,0.0,0.0,0.0,0.0,0.0,0.0,0.0,0.0,0.0,0.0,0.0,0.0,0.0,0.0,0.0,0.0,0.0,0.0,0.0,0.0,0.0,0.0,0.0,0.0,0.0,0.0,0.0,0.0,0.0,0.0,0.0,0.0,0.0,0.0,0.0,0.0,0.0,0.0,0.0,0.0,0.0,0.0,0.0,0.0,0.0,0.0,0.0,0.0,0.0,0.0,0.0,0.0,0.0,0.0,0.0,0.0,0.0,0.0,0.0,0.0,0.0,0.0,0.0,0.0,0.0,0.0,0.0,0.0,0.0,0.0,2.2459,2.4275,2.6469,2.8756,2.4902,2.3656,0.0,0.0,0.0,0.0,0.0,0.0,0.0,0.0,0.0,0.0,0.0,0.0,0.0,0.0,0.0,0.0,0.0,0.0,0.0,0.0,0.0,0.0,0.0,0.0,0.0,0.0,0.0,0.0,0.0,0.0,0.0,0.0,0.0,0.0,0.0,0.0,0.0,0.0,0.0,0.0,0.0,0.0,0.0,0.0,0.0,0.0,0.0,0.0,0.0,0.0,0.0,0.0,0.0,0.0,0.0,0.0,0.0,0.0,0.0,0.0,0.0,0.0,0.0,0.0,0.0,0.0,0.0,0.0,0.0,0.0,0.0,0.0,0.0,0.0,0.0,0.0,0.0,0.0,0.0,0.0,0.0,0.0,0.0,0.0,0.0,0.0,0.0,0.0,0.0,0.0,0.0,0.0,0.0,0.0,0.0,0.0,0.0,0.0,0.0,0.0,0.0,0.0,0.0,0.0,0.0,0.0,0.0,0.0,0.0,2.4796,2.6343,2.7917,2.9448,2.6087,2.478,2.583,0.0,0.0,0.0,0.0,0.0,0.0,0.0,0.0,0.0,0.0,0.0,0.0,0.0,0.0,0.0,0.0,0.0,0.0,0.0,0.0,0.0,0.0,0.0,0.0,0.0,0.0,0.0,0.0,0.0,0.0,0.0,0.0,0.0,0.0,0.0,0.0,0.0,0.0,0.0,0.0,0.0,0.0,0.0,0.0,0.0,0.0,0.0,0.0,0.0,0.0,0.0,0.0,0.0,0.0,0.0,0.0,0.0,0.0,0.0,0.0,0.0,0.0,0.0,0.0,0.0,0.0,0.0,0.0,0.0,0.0,0.0,0.0,0.0,0.0,0.0,0.0,0.0,0.0,0.0,0.0,0.0,0.0,0.0,0.0,0.0,0.0,0.0,0.0,0.0,0.0,0.0,0.0,0.0,0.0,0.0,0.0,0.0,0.0,0.0,0.0,0.0,0.0,0.0,0.0,0.0,0.0,0.0,0.0,3.0724,3.21,3.146,2.8637,2.8352,2.6445,0.0,0.0,0.0,0.0,0.0,0.0,0.0,0.0,0.0,0.0,0.0,0.0,0.0,0.0,0.0,0.0,0.0,0.0,0.0,0.0,0.0,0.0,0.0,0.0,0.0,0.0,0.0,0.0,0.0,0.0,0.0,0.0,0.0,0.0,0.0,0.0,0.0,0.0,0.0,0.0,0.0,0.0,0.0,0.0,0.0,0.0,0.0,0.0,0.0,0.0,0.0,0.0,0.0,0.0,0.0,0.0,0.0,0.0,0.0,0.0,0.0,0.0,0.0,0.0,0.0,0.0,0.0,0.0,0.0,0.0,0.0,0.0,0.0,0.0,0.0,0.0,0.0,0.0,0.0,0.0,0.0,0.0,0.0,0.0,0.0,0.0,0.0,0.0,0.0,0.0,0.0,0.0,0.0,0.0,0.0,0.0,0.0,0.0,0.0,0.0,0.0,0.0,0.0,0.0,0.0,0.0,0.0,0.0,0.0,3.3877,3.652,3.719,3.566,3.1451,2.8987,0.0,0.0,0.0,0.0,0.0,0.0,0.0,0.0,0.0,0.0,0.0,0.0,0.0,0.0,0.0,0.0,0.0,0.0,0.0,0.0,0.0,0.0,0.0,0.0,0.0,0.0,0.0,0.0,0.0,0.0,0.0,0.0,0.0,0.0,0.0,0.0,0.0,0.0,0.0,0.0,0.0,0.0,0.0,0.0,0.0,0.0,0.0,0.0,0.0,0.0,0.0,0.0,0.0,0.0,0.0,0.0,0.0,0.0,0.0,0.0,0.0,0.0,0.0,0.0,0.0,0.0,0.0,0.0,0.0,0.0,0.0,0.0,0.0,0.0,0.0,0.0,0.0,0.0,0.0,0.0,0.0,0.0,0.0,0.0,0.0,0.0,0.0,0.0,0.0,0.0,0.0,0.0,0.0,0.0,0.0,0.0,0.0,0.0,0.0,0.0,0.0,0.0,0.0,0.0,0.0,0.0,0.0,0.0,3.3624,3.7054,4.0378,4.1789,4.1167,3.6476,3.2735,0.0,0.0,0.0,0.0,0.0,0.0,0.0,0.0,0.0,0.0,0.0,0.0,0.0,0.0,0.0,0.0,0.0,0.0,0.0,0.0,0.0,0.0,0.0,0.0,0.0,0.0,0.0,0.0,0.0,0.0,0.0,0.0,0.0,0.0,0.0,0.0,0.0,0.0,0.0,0.0,0.0,0.0,0.0,0.0,0.0,0.0,0.0,0.0,0.0,0.0,0.0,0.0,0.0,0.0,0.0,0.0,0.0,0.0,0.0,0.0,0.0,0.0,0.0,0.0,0.0,0.0,0.0,0.0,0.0,0.0,0.0,0.0,0.0,0.0,0.0,0.0,0.0,0.0,0.0,0.0,0.0,0.0,0.0,0.0,0.0,0.0,0.0,0.0,0.0,0.0,0.0,0.0,0.0,0.0,0.0,0.0,0.0,0.0,0.0,0.0,0.0,0.0,0.0,0.0,0.0,0.0,0.0,0.0,3.703,4.0202,4.3671,4.5286,4.4886,4.1793,3.6843,0.0,0.0,0.0,0.0,0.0,0.0,0.0,0.0,0.0,0.0,0.0,0.0,0.0,0.0,0.0,0.0,0.0,0.0,0.0,0.0,0.0,0.0,0.0,0.0,0.0,0.0,0.0,0.0,0.0,0.0,0.0,0.0,0.0,0.0,0.0,0.0,0.0,0.0,0.0,0.0,0.0,0.0,0.0,0.0,0.0,0.0,0.0,0.0,0.0,0.0,0.0,0.0,0.0,0.0,0.0,0.0,0.0,0.0,0.0,0.0,0.0,0.0,0.0,0.0,0.0,0.0,0.0,0.0,0.0,0.0,0.0,0.0,0.0,0.0,0.0,0.0,0.0,0.0,0.0,0.0,0.0,0.0,0.0,0.0,0.0,0.0,0.0,0.0,0.0,0.0,0.0,0.0,0.0,0.0,0.0,0.0,0.0,0.0,0.0,0.0,0.0,0.0,0.0,0.0,0.0,0.0,0.0,0.0,3.9165,4.3104,4.584,4.691,4.6145,4.2006,3.8001,0.0,0.0,0.0,0.0,0.0,0.0,0.0,0.0,0.0,0.0,0.0,0.0,0.0,0.0,0.0,0.0,0.0,0.0,0.0,0.0,0.0,0.0,0.0,0.0,0.0,0.0,0.0,0.0,0.0,0.0,0.0,0.0,0.0,0.0,0.0,0.0,0.0,0.0,0.0,0.0,0.0,0.0,0.0,0.0,0.0,0.0,0.0,0.0,2.6477,0.0,0.0,0.0,0.0,0.0,0.0,0.0,0.0,0.0,0.0,0.0,0.0,0.0,0.0,0.0,0.0,0.0,0.0,0.0,0.0,0.0,0.0,0.0,0.0,0.0,0.0,0.0,0.0,0.0,0.0,0.0,0.0,0.0,0.0,0.0,0.0,0.0,0.0,0.0,0.0,0.0,0.0,0.0,0.0,0.0,0.0,0.0,0.0,0.0,0.0,0.0,0.0,0.0,0.0,0.0,0.0,0.0,0.0,0.0,4.1662,4.5331,4.7793,4.8535,4.736,4.4113,4.0323,0.0,0.0,0.0,0.0,0.0,0.0,0.0,0.0,0.0,0.0,0.0,0.0,0.0,0.0,0.0,0.0,0.0,0.0,0.0,0.0,0.0,0.0,0.0,0.0,0.0,0.0,0.0,0.0,0.0,0.0,0.0,0.0,0.0,0.0,0.0,0.0,0.0,0.0,0.0,0.0,0.0,0.0,0.0,0.0,0.0,0.0,0.0,0.0,0.0,0.0,0.0,0.0,0.0,0.0,0.0,0.0,0.0,0.0,0.0,0.0,0.0,0.0,0.0,0.0,0.0,0.0,0.0,0.0,0.0,0.0,0.0,0.0,0.0,0.0,0.0,0.0,0.0,0.0,0.0,0.0,0.0,0.0,0.0,0.0,0.0,0.0,0.0,0.0,0.0,0.0,0.0,0.0,0.0,0.0,0.0,0.0,0.0,0.0,0.0,0.0,0.0,0.0,0.0,0.0,0.0,0.0,0.0,3.9198,4.3698,4.7313,4.9487,4.997,4.8617,4.6556,4.2761,3.7212,0.0,0.0,0.0,0.0,0.0,0.0,0.0,0.0,0.0,0.0,0.0,0.0,0.0,0.0,0.0,0.0,0.0,0.0,0.0,0.0,0.0,0.0,0.0,0.0,0.0,0.0,0.0,0.0,0.0,0.0,0.0,0.0,0.0,0.0,0.0,0.0,0.0,0.0,2.4586,2.7033,0.0,0.0,0.0,0.0,0.0,0.0,0.0,0.0,2.8949,0.0,0.0,0.0,0.0,0.0,0.0,0.0,0.0,0.0,0.0,0.0,0.0,0.0,0.0,0.0,0.0,0.0,0.0,0.0,0.0,0.0,0.0,0.0,0.0,0.0,0.0,0.0,0.0,0.0,0.0,0.0,0.0,0.0,0.0,0.0,0.0,0.0,0.0,0.0,0.0,0.0,0.0,0.0,0.0,0.0,0.0,0.0,0.0,0.0,0.0,0.0,0.0,0.0,0.0,0.0,0.0,4.1286,4.1183,4.3785,4.9511,5.0564,5.0485,4.9164,4.7184,4.3878,3.911,0.0,0.0,0.0,0.0,0.0,0.0,0.0,0.0,0.0,0.0,0.0,0.0,0.0,0.0,0.0,0.0,0.0,0.0,0.0,0.0,0.0,0.0,0.0,0.0,0.0,0.0,0.0,0.0,0.0,0.0,0.0,0.0,0.0,0.0,0.0,0.0,0.0,0.0,0.0,3.2018,3.326,0.0,0.0,0.0,0.0,0.0,0.0,0.0,0.0,2.9714,0.0,0.0,0.0,0.0,0.0,0.0,0.0,0.0,0.0,0.0,0.0,0.0,0.0,0.0,0.0,0.0,0.0,0.0,0.0,0.0,0.0,0.0,0.0,0.0,0.0,0.0,0.0,0.0,0.0,0.0,0.0,0.0,0.0,0.0,0.0,0.0,0.0,0.0,0.0,0.0,0.0,0.0,0.0,0.0,0.0,0.0,0.0,0.0,0.0,0.0,0.0,0.0,0.0,0.0,0.0,4.0174,4.2614,4.5951,5.0518,5.0697,5.0242,4.9247,4.5364,4.1874,0.0,0.0,0.0,0.0,0.0,0.0,0.0,0.0,0.0,0.0,0.0,0.0,0.0,0.0,0.0,0.0,0.0,0.0,0.0,0.0,0.0,0.0,0.0,0.0,0.0,0.0,0.0,0.0,0.0,0.0,0.0,0.0,0.0,0.0,0.0,0.0,0.0,0.0,0.0,0.0,3.3455,3.4488,3.4532,0.0,0.0,0.0,0.0,0.0,0.0,3.1361,3.0628,0.0,0.0,0.0,0.0,0.0,0.0,0.0,0.0,0.0,0.0,0.0,0.0,0.0,0.0,0.0,0.0,0.0,0.0,0.0,0.0,0.0,0.0,0.0,0.0,0.0,0.0,0.0,0.0,0.0,0.0,0.0,0.0,0.0,0.0,0.0,0.0,0.0,0.0,0.0,0.0,0.0,0.0,0.0,0.0,0.0,0.0,0.0,0.0,0.0,0.0,0.0,0.0,0.0,0.0,0.0,3.8085,4.3011,4.7249,5.0601,5.0278,4.9733,4.9037,4.3958,4.0367,0.0,0.0,0.0,0.0,0.0,0.0,0.0,0.0,0.0,0.0,0.0,0.0,0.0,0.0,0.0,0.0,0.0,0.0,0.0,0.0,0.0,0.0,0.0,0.0,0.0,0.0,0.0,0.0,0.0,0.0,0.0,0.0,0.0,0.0,0.0,0.0,0.0,0.0,0.0,0.0,0.0,3.5745,3.5832,3.4516,0.0,0.0,0.0,0.0,3.4412,3.4007,0.0,0.0,0.0,0.0,0.0,0.0,0.0,0.0,0.0,0.0,0.0,0.0,0.0,0.0,0.0,0.0,0.0,0.0,0.0,0.0,0.0,0.0,0.0,0.0,0.0,0.0,0.0,0.0,0.0,0.0,0.0,0.0,0.0,0.0,0.0,0.0,0.0,0.0,0.0,0.0,0.0,0.0,0.0,0.0,0.0,0.0,0.0,0.0,0.0,0.0,0.0,0.0,0.0,0.0,0.0,0.0,3.8147,4.1313,4.5046,4.9247,4.9456,4.9097,4.8409,4.5454,4.2412,0.0,0.0,0.0,0.0,0.0,0.0,0.0,0.0,0.0,0.0,0.0,0.0,0.0,0.0,0.0,0.0,0.0,0.0,0.0,0.0,0.0,0.0,0.0,0.0,0.0,0.0,0.0,0.0,0.0,0.0,0.0,0.0,0.0,0.0,0.0,0.0,0.0,0.0,0.0,0.0,0.0,3.911,3.7417,3.6985,3.6626,0.0,0.0,3.7088,3.8494,3.9589,0.0,0.0,0.0,0.0,0.0,0.0,0.0,0.0,0.0,0.0,0.0,0.0,0.0,0.0,0.0,0.0,0.0,0.0,0.0,0.0,0.0,0.0,0.0,0.0,0.0,0.0,0.0,0.0,0.0,0.0,0.0,0.0,0.0,0.0,0.0,0.0,0.0,0.0,0.0,0.0,0.0,0.0,0.0,0.0,0.0,0.0,0.0,0.0,0.0,0.0,0.0,0.0,0.0,0.0,0.0,3.2346,3.8302,4.2491,4.6112,4.9127,4.8917,4.8409,4.7728,4.3329,3.9948,0.0,0.0,0.0,0.0,0.0,0.0,0.0,0.0,0.0,0.0,0.0,0.0,0.0,0.0,0.0,0.0,0.0,0.0,0.0,0.0,0.0,0.0,0.0,0.0,0.0,0.0,0.0,0.0,0.0,0.0,0.0,0.0,0.0,0.0,0.0,0.0,0.0,0.0,0.0,0.0,0.0,0.0,3.9738,3.9996,0.0,0.0,0.0,4.0127,4.1474,0.0,0.0,0.0,0.0,0.0,0.0,0.0,0.0,0.0,0.0,0.0,0.0,0.0,0.0,0.0,0.0,0.0,0.0,0.0,0.0,0.0,0.0,0.0,0.0,0.0,0.0,0.0,0.0,0.0,0.0,0.0,0.0,0.0,0.0,0.0,0.0,0.0,0.0,0.0,0.0,0.0,0.0,0.0,0.0,0.0,0.0,0.0,0.0,0.0,0.0,0.0,0.0,0.0,0.0,0.0,0.0,0.0,3.8123,4.3339,4.695,4.8708,4.8297,4.7728,4.6988,4.2073,0.0,0.0,0.0,0.0,0.0,0.0,0.0,0.0,0.0,0.0,0.0,0.0,0.0,0.0,0.0,0.0,0.0,0.0,0.0,0.0,0.0,0.0,0.0,0.0,0.0,0.0,0.0,1.8994,0.0,0.0,0.0,0.0,0.0,0.0,0.0,0.0,0.0,0.0,0.0,0.0,0.0,0.0,4.0937,4.1938,4.3064,4.378,0.0,0.0,4.3949,4.4758,4.4778,4.28,0.0,0.0,0.0,0.0,0.0,0.0,0.0,0.0,0.0,0.0,0.0,0.0,0.0,0.0,0.0,0.0,0.0,0.0,0.0,0.0,0.0,0.0,0.0,0.0,0.0,0.0,0.0,0.0,0.0,0.0,0.0,0.0,0.0,0.0,0.0,0.0,0.0,0.0,0.0,0.0,0.0,0.0,0.0,0.0,0.0,0.0,0.0,0.0,0.0,0.0,0.0,0.0,0.0,0.0,0.0,3.7524,4.2671,4.6073,4.7369,4.7399,4.7048,4.636,4.3619,4.0613,0.0,0.0,0.0,0.0,0.0,0.0,0.0,0.0,0.0,0.0,0.0,0.0,0.0,0.0,0.0,0.0,0.0,0.0,0.0,0.0,0.0,0.0,0.0,0.0,0.0,0.0,0.0,0.0,0.0,0.0,0.0,0.0,0.0,0.0,0.0,0.0,0.0,0.0,0.0,0.0,0.0,4.1729,4.3572,4.6066,4.8146,0.0,0.0,4.9684,4.9061,5.1494,5.0268,4.0685,0.0,0.0,0.0,0.0,0.0,0.0,0.0,0.0,0.0,0.0,0.0,0.0,0.0,0.0,0.0,0.0,0.0,0.0,0.0,0.0,0.0,0.0,0.0,0.0,0.0,0.0,0.0,0.0,0.0,0.0,0.0,0.0,0.0,0.0,0.0,0.0,0.0,0.0,0.0,0.0,0.0,0.0,0.0,0.0,0.0,0.0,0.0,0.0,0.0,0.0,0.0,0.0,0.0,3.45,3.7422,4.3267,4.6762,4.7691,4.8082,4.7772,4.6681,4.4573,4.1418,0.0,0.0,0.0,0.0,0.0,0.0,0.0,0.0,0.0,0.0,0.0,0.0,0.0,0.0,0.0,0.0,0.0,0.0,0.0,0.0,0.0,0.0,0.0,0.0,0.0,0.0,0.0,0.0,2.5014,2.6081,2.6388,0.0,0.0,0.0,0.0,0.0,0.0,0.0,0.0,0.0,0.0,4.5496,4.8769,5.0507,0.0,0.0,5.1944,5.2174,5.185,5.0474,4.7647,4.2399,3.9624,0.0,0.0,0.0,0.0,0.0,0.0,0.0,0.0,0.0,0.0,0.0,0.0,0.0,0.0,0.0,0.0,0.0,0.0,0.0,0.0,0.0,0.0,0.0,0.0,0.0,0.0,0.0,0.0,0.0,0.0,0.0,0.0,0.0,0.0,0.0,0.0,0.0,0.0,0.0,0.0,0.0,0.0,0.0,0.0,0.0,0.0,0.0,0.0,0.0,0.0,0.0,0.0,3.5171,3.8198,4.3867,4.7362,4.8462,4.8779,4.8325,4.7099,4.5136,4.2029,0.0,0.0,0.0,0.0,0.0,0.0,0.0,0.0,0.0,0.0,0.0,0.0,0.0,0.0,0.0,0.0,0.0,0.0,0.0,0.0,0.0,0.0,0.0,0.0,0.0,0.0,0.0,0.0,2.7816,2.8489,2.7199,0.0,0.0,0.0,0.0,0.0,0.0,0.0,0.0,0.0,0.0,4.8726,5.2176,5.3522,5.3962,5.3227,5.3364,5.349,5.3184,5.0495,4.7196,4.3466,0.0,0.0,0.0,0.0,0.0,0.0,0.0,0.0,0.0,0.0,0.0,0.0,0.0,0.0,0.0,0.0,0.0,0.0,0.0,0.0,0.0,0.0,0.0,0.0,0.0,0.0,0.0,0.0,0.0,0.0,2.1385,0.0,0.0,0.0,0.0,0.0,0.0,0.0,0.0,0.0,0.0,0.0,0.0,0.0,0.0,0.0,0.0,0.0,0.0,0.0,0.0,0.0,0.0,3.6259,4.0004,4.4434,4.7629,4.9539,4.9192,4.8501,4.7587,4.534,4.2678,3.9579,0.0,0.0,0.0,0.0,0.0,0.0,0.0,0.0,0.0,0.0,0.0,0.0,0.0,0.0,0.0,0.0,0.0,0.0,0.0,0.0,0.0,0.0,0.0,0.0,0.0,0.0,2.7105,2.7349,2.6809,0.0,0.0,0.0,0.0,0.0,0.0,0.0,0.0,0.0,0.0,4.7367,5.0822,5.2761,5.4564,5.5485,5.4846,5.4308,5.3684,5.2893,5.2852,5.0805,0.0,0.0,0.0,0.0,0.0,0.0,0.0,0.0,0.0,0.0,0.0,0.0,0.0,0.0,0.0,0.0,0.0,0.0,0.0,0.0,0.0,0.0,0.0,0.0,0.0,0.0,0.0,2.8649,2.7556,0.0,0.0,0.0,0.0,0.0,0.0,0.0,0.0,0.0,0.0,0.0,3.6802,3.8304,0.0,0.0,0.0,0.0,0.0,0.0,0.0,0.0,0.0,0.0,0.0,0.0,3.7935,4.1155,4.5872,4.8937,5.0061,4.9938,4.9466,4.8675,4.7111,4.4031,3.922,0.0,0.0,0.0,0.0,0.0,0.0,0.0,0.0,0.0,0.0,0.0,0.0,0.0,0.0,0.0,0.0,0.0,0.0,0.0,0.0,0.0,0.0,0.0,0.0,0.0,2.8528,0.0,0.0,0.0,0.0,0.0,0.0,0.0,0.0,0.0,0.0,0.0,4.1883,4.6938,5.0026,5.2585,5.4835,5.5557,5.5943,0.0,0.0,0.0,0.0,0.0,0.0,0.0,0.0,0.0,0.0,0.0,0.0,0.0,0.0,4.6303,3.9029,3.7127,3.6865,3.7336,0.0,0.0,0.0,0.0,0.0,0.0,0.0,0.0,0.0,0.0,0.0,0.0,0.0,0.0,3.3157,0.0,3.1228,0.0,0.0,0.0,0.0,0.0,0.0,0.0,0.0,3.7772,4.0349,4.2625,4.3799,4.3789,0.0,4.2257,3.9304,0.0,0.0,0.0,0.0,0.0,0.0,0.0,0.0,3.936,4.2576,4.7114,5.0038,5.1184,5.0865,5.0385,4.9799,4.788,4.4655,4.0022,3.7252,3.5159,0.0,0.0,0.0,0.0,0.0,0.0,0.0,0.0,0.0,0.0,0.0,0.0,0.0,0.0,0.0,0.0,0.0,0.0,0.0,0.0,0.0,0.0,0.0,3.0307,0.0,0.0,0.0,0.0,0.0,0.0,0.0,0.0,0.0,3.8663,4.1817,4.5883,5.0749,5.2733,5.4278,5.5835,0.0,0.0,0.0,0.0,0.0,0.0,0.0,4.94,5.0755,4.9208,4.813,4.9239,5.1199,5.2278,5.1203,0.0,0.0,4.4365,4.2451,4.2199,4.3038,4.3649,4.4427,4.5683,4.7095,4.8117,0.0,0.0,0.0,0.0,0.0,0.0,0.0,0.0,3.6225,3.687,0.0,3.5677,0.0,0.0,0.0,0.0,0.0,3.5246,0.0,0.0,4.5012,4.7343,4.7362,4.7835,4.7867,4.7528,4.8016,4.6373,4.2534,3.6249,0.0,0.0,0.0,0.0,0.0,0.0,4.0558,4.4431,4.8103,5.0954,5.2881,5.1885,5.1164,5.0825,4.7624,4.4647,4.2088,4.1054,3.9298,3.642,3.5005,0.0,0.0,0.0,0.0,0.0,0.0,0.0,0.0,0.0,0.0,0.0,0.0,0.0,0.0,0.0,0.0,0.0,0.0,0.0,0.0,3.0844,0.0,0.0,0.0,0.0,0.0,0.0,0.0,0.0,0.0,0.0,4.36,4.6289,4.9929,5.4122,0.0,0.0,0.0,0.0,5.6288,5.5726,5.4973,5.4665,5.5146,5.4868,5.4102,5.277,0.0,0.0,5.2992,5.4433,5.5261,5.3056,5.4072,5.4741,5.4035,5.0933,4.9511,5.148,5.122,5.1109,5.1601,5.3304,5.4567,4.4992,0.0,0.0,0.0,0.0,4.0684,4.224,4.461,4.4317,4.3227,4.1625,4.0227,0.0,0.0,0.0,0.0,0.0,0.0,4.2236,4.5991,4.8362,5.0489,5.2377,5.3006,5.2664,5.1474,5.1096,4.9391,4.6392,4.3441,3.9125,3.3527,0.0,0.0,0.0,0.0,4.3987,4.7479,5.0093,5.1681,5.2302,5.1509,5.0549,4.954,4.7561,4.5683,4.3965,4.2743,4.1003,3.8667,3.7278,0.0,0.0,0.0,0.0,0.0,0.0,0.0,0.0,0.0,0.0,0.0,0.0,0.0,0.0,0.0,0.0,0.0,0.0,0.0,3.1469,3.1936,3.2457,0.0,0.0,0.0,0.0,0.0,0.0,0.0,0.0,0.0,5.1829,5.2261,5.3122,0.0,0.0,5.5947,5.5622,5.5988,5.6553,5.7376,0.0,0.0,0.0,5.5776,5.4963,5.6354,5.8349,5.9521,5.8905,5.972,6.0123,5.8968,5.915,5.9435,5.9018,5.5467,5.3034,5.3825,5.4603,5.5592,5.6969,5.8703,5.9835,5.2545,4.8633,4.5327,4.4748,4.6026,4.6321,4.7634,4.9563,4.9222,4.834,4.7015,4.5674,4.3519,4.0783,3.9191,0.0,0.0,0.0,4.668,5.0159,5.1665,5.3396,5.5263,5.5883,5.5543,5.4303,5.3313,5.1859,4.9963,4.8541,4.5317,4.0451,0.0,0.0,3.9645,4.3122,4.6221,4.8876,5.1227,5.246,5.2407,5.15,5.0331,4.894,4.7814,4.6708,4.557,4.4496,4.2947,4.0862,3.974,3.7671,0.0,0.0,0.0,0.0,0.0,0.0,0.0,0.0,0.0,0.0,0.0,2.754,2.5265,0.0,0.0,0.0,3.0179,3.2501,3.4202,3.5059,0.0,0.0,0.0,0.0,0.0,0.0,0.0,4.6933,5.0832,5.4139,5.6424,5.6824,5.701,5.728,5.714,5.6987,5.6885,0.0,5.7846,5.9046,5.8787,5.8685,5.9404,5.8231,5.7811,5.9625,6.0929,6.1877,6.2193,6.2572,6.2787,6.2791,6.271,6.266,6.2784,6.0147,5.8072,5.8386,5.9205,6.0293,6.1494,6.2622,6.3407,5.9039,5.7935,5.2516,5.0451,5.0817,5.1355,5.1977,5.2546,5.1894,5.2217,5.3109,5.1236,4.9454,4.7874,4.6369,0.0,4.7422,4.963,5.1541,5.3279,5.4971,5.6059,5.666,5.713,5.6979,5.6274,5.5019,5.404,5.3218,5.1922,5.0299,4.8256,4.5128,4.3407,4.328,4.5728,4.7719,4.9141,5.1701,5.2997,5.2902,5.1606,5.0267,4.894,4.8276,4.7548,4.6803,4.6157,4.4911,4.2884,4.2096,4.0119,3.6655,0.0,0.0,0.0,0.0,0.0,0.0,0.0,0.0,0.0,0.0,0.0,0.0,0.0,0.0,0.0,3.4752,0.0,3.7791,3.938,0.0,0.0,0.0,4.2173,4.3233,4.7373,5.0435,5.1224,0.0,0.0,5.8476,0.0,6.1058,6.0408,5.9269,5.8686,5.9119,5.935,5.9838,6.0645,6.0638,6.078,6.1334,6.1334,6.1429,6.2133,6.2502,6.2805,6.3463,6.3747,6.4102,6.4779,6.4793,6.4691,6.4919,6.4482,6.4533,6.3998,6.4235,6.4577,6.4717,6.5154,6.5405,6.1732,6.0984,5.9069,5.7214,5.5448,5.5144,5.5359,5.5893,5.5269,5.461,5.3862,5.2396,5.0906,4.9527,5.0608,5.1978,5.3486,5.3996,5.549,5.7667,5.7656,5.7726,5.7915,5.8512,5.8148,5.7042,5.7191,5.6378,5.4682,5.4271,5.3355,5.1891,5.1037,4.9299,4.6803,4.8351,4.9868,5.1259,5.1922,5.2017,5.15,5.0627,4.9773,4.8908,4.8358,4.7661,4.6803,4.6412,4.5349,4.3565,4.3059,4.1549,3.884,3.6321,0.0,0.0,0.0,0.0,0.0,0.0,0.0,0.0,0.0,3.3802,3.0163,0.0,3.6044,0.0,3.9048,4.0797,4.1054,4.1965,0.0,0.0,4.667,4.823,5.1752,5.3653,5.5166,5.6422,5.927,6.1274,6.1685,6.2468,6.2807,6.2285,6.1183,6.048,6.0627,6.1165,6.1582,6.1822,6.2189,6.2556,6.2691,6.2779,6.2787,6.2978,6.3425,6.4023,6.475,6.5299,6.5739,6.6,6.5981,6.5905,6.5778,6.5829,6.6014,6.6166,6.5936,6.5573,6.5477,6.6093,6.6563,6.3109,6.248,6.1822,6.0685,5.9249,5.8348,5.7962,5.7932,5.7304,5.6645,5.5897,5.5125,5.448,5.3997,5.4981,5.5967,5.6848,5.6775,5.7319,5.8346,5.8306,5.8139,5.7832,5.8527,5.8274,5.7209,5.7295,5.6568,5.5155,5.4808,5.4292,5.3566,5.3544,5.2586,5.0753,5.0785,5.1227,5.1997,5.1997,5.167,5.0994,5.0595,4.99,4.8908,4.8079,4.7133,4.6027,4.5277,4.4118,4.2596,4.2331,4.1486,3.98,3.7831,3.6194,0.0,0.0,0.0,0.0,0.0,0.0,0.0,0.0,0.0,0.0,0.0,3.8979,4.0265,4.2735,4.4617,4.5445,4.6851,4.8647,5.0953,5.2036,5.3721,5.644,5.7915,5.9175,6.0273,6.2077,6.3408,6.3797,6.4067,6.4149,6.3871,6.3013,6.2269,6.1988,6.2338,6.27,6.2819,6.3044,6.3204,6.3204,6.3204,6.3204,6.3236,6.3492,6.4068,6.5116,6.5596,6.6069,6.683,6.6914,6.6741,6.646,6.6823,6.713,6.6767,6.6952,6.6971,6.6536,6.7003,6.7446,6.3617,6.3019,6.245,6.2238,6.2115,6.0974,5.9989,5.9189,5.862,5.8318,5.8214,5.8308,5.8563,5.89,5.8798,5.8823,5.8864,5.8656,5.8243,5.78,5.8211,5.8085,5.7493,5.8116,5.8053,5.7335,5.6821,5.6125,5.525,5.4735,5.4356,5.4103,5.4198,5.4198,5.404,5.2807,5.2112,5.2017,5.1922,5.1638,5.1121,5.1078,5.0339,4.8852,4.7755,4.6416,4.484,4.3913,4.2781,4.1406,4.1485,4.1245,4.0414,3.9129,3.8025,0.0,3.651,0.0,0.0,0.0,0.0,0.0,0.0,0.0,0.0,4.0976,4.2397,4.4053,4.6399,4.8533,5.019,5.2482,5.4131,5.4797,5.6783,5.8389,5.9112,6.1054,6.2566,6.3117,6.4412,6.5263,6.5133,6.5133,6.5133,6.4906,6.4397,6.3782,6.32,6.3161,6.3357,6.3636,6.3469,6.3373,6.3349,6.3325,6.3325,6.3325,6.3381,6.3781,6.5176,6.5432,6.5981,6.7487,6.779,6.7521,6.7175,6.7788,6.7867,6.6963,6.7705,6.8236,6.7587,6.7689,6.7949,6.3647,6.3108,6.2988,6.2884,6.2791,6.2549,6.1486,5.9877,5.9757,5.9399,5.891,5.9853,5.993,5.9519,5.9998,6.0431,6.0815,6.0186,6.017,6.0581,5.957,5.9064,5.8938,5.9064,5.8772,5.8139,5.8496,5.7769,5.5999,5.641,5.5778,5.4134,5.464,5.4618,5.4103,0.0,0.0,0.0,5.1469,5.1405,5.1764,5.1441,5.0295,4.8358,4.7832,0.0,4.369,4.4617,4.4507,4.2941,4.4136,0.0,0.0,0.0,0.0,0.0,0.0,0.0,0.0,0.0,0.0,0.0,4.5518,4.4737,4.3009,4.6612,4.9058,4.8925,5.1356,5.335,5.4208,5.5789,5.7288,5.8518,6.0051,6.1271,6.2048,6.3959,6.5157,6.468,6.5902,6.655,6.5999,6.5878,6.5651,6.5133,6.4874,6.455,6.3838,6.3776,6.385,6.3897,6.3826,6.3858,6.3858,6.3858,6.3779,6.3826,6.3858,6.4375,6.557,6.595,6.6574,6.8356,6.8724,6.874,6.8732,6.8846,6.8683,6.8231,6.8576,6.8625,6.7619,6.7644,6.7772,6.4635,0.0,6.3997,6.3951,0.0,6.3904,6.3144,6.1895,6.1592,6.1214,6.082,6.1418,6.145,6.1005,6.1011,6.1159,6.134,6.0297,6.0202,6.0771,5.9467,5.897,5.9286,5.897,5.8645,5.8297,5.8274,5.7737,5.6726,5.6356,5.5629,5.4618,5.4618,5.4451,5.4071,5.3545,5.2911,5.2213,5.2182,5.2053,5.1836,5.1937,5.0817,4.8424,0.0,0.0,0.0,0.0,0.0,0.0,0.0,0.0,0.0,0.0,0.0,4.288,4.2992,4.3541,4.4675,4.566,4.7231,4.948,5.0881,5.0547,4.7987,5.087,5.2786,5.2786,5.4729,5.6413,5.7428,5.8518,5.9749,6.1109,6.1919,6.2631,6.3408,6.4704,6.5392,6.523,6.629,6.706,6.6711,6.6647,6.6323,6.5651,6.523,6.4777,6.4162,6.4,6.4,6.4,6.4,6.4,6.4,6.4,6.4,6.4,6.4,6.4421,6.536,6.6087,6.6937,6.8216,6.895,6.9331,6.9097,6.919,6.9163,6.8527,6.8634,6.8748,6.7975,6.8101,6.8374,6.5682,6.5172,6.5213,6.5317,6.5399,6.5232,6.4799,6.4228,0.0,0.0,0.0,6.2902,6.2807,6.2547,6.2003,6.1687,6.1498,6.0392,6.0139,6.0613,5.9278,5.9001,5.9633,5.874,5.8361,5.8456,5.7737,5.7326,5.7146,5.604,5.5408,5.525,5.4587,5.4251,5.4135,5.3766,5.334,5.2934,5.3254,5.3029,5.2189,5.2549,5.1512,4.8968,4.8266,4.6974,4.493,4.4674,4.4269,4.3602,4.3749,4.4042,4.4529,4.4626,4.5192,4.6504,4.7831,4.8933,4.9779,5.1153,5.2333,5.3252,5.4956,5.5118,5.3169,5.4199,5.5312,5.6122,5.7255,5.8583,6.0137,6.0785,6.166,6.2955,6.3084,6.3376,6.4065,6.4647,6.5133,6.5457,6.6485,6.7254,6.7327,6.7359,6.71,6.642,6.5845,6.5036,6.4356,6.4097,6.4,6.4,6.4,6.4,6.4,6.4,6.4,6.4,6.4191,6.4563,6.5283,6.638,6.7433,6.8412,6.9282,6.9542,6.9194,6.9419,6.9381,6.826,6.8445,6.8805,6.8606,6.8567,6.8682,6.594,6.5908,6.6394,6.6902,6.7318,6.6689,6.6362,6.6043,6.4366,6.3584,6.3569,6.4035,6.3887,6.3331,6.3261,6.2857,6.2263,6.2074,6.201,0.0,6.0676,6.0392,6.0992,5.9183,5.8614,5.9064,5.8464,5.78,5.7263,5.6988,5.6609,5.6031,5.5313,5.479,5.438,5.4296,5.441,5.4688,5.4022,5.3896,5.4333,5.3427,5.2177,5.0549,4.9415,4.7987,4.6258,4.7289,4.7752,4.7373,4.8163,4.8401,4.7944,4.8122,4.8623,4.9451,5.0293,5.1391,5.2856,5.4116,5.5648,5.7493,5.799,5.7557,5.6348,5.6776,5.7697,5.8939,5.9295,6.0235,6.2113,6.2502,6.289,6.3644,6.3862,6.4129,6.4712,6.4906,6.5424,6.6517,6.7035,6.7392,6.7845,6.7974,6.7748,6.7197,6.6679,6.6323,6.5133,6.4356,6.4032,6.4,6.4,6.4,6.4,6.4,6.4,6.4,6.4863,6.5587,6.624,6.7499,6.8639,6.9856,7.0196,7.027,7.0007,6.9862,6.9472,6.8692,6.8559,6.8656,6.9336,6.8552,6.7727,6.7235,6.7586,6.7824,6.8098,6.8346,6.826,6.7969,6.754,6.6696,6.568,6.4789,6.4997,6.4526,6.3545,6.3514,6.311,6.239,6.201,6.2042,6.2295,6.0961,6.0676,6.1182,5.9657,5.9001,5.9231,5.859,5.8139,5.7792,5.7535,5.7254,5.6927,5.6394,5.6027,5.589,5.5559,5.5535,5.5827,5.4537,5.4232,5.4847,5.398,5.2785,5.1406,5.1141,5.0279,4.8502,4.966,5.0265,5.0111,5.0757,5.0973,5.0676,5.0925,5.1438,5.2137,5.3,5.4154,5.5649,5.7006,5.7979,5.854,5.8982,5.9155,5.9004,5.9177,5.9609,6.0267,6.0947,6.1789,6.2793,6.3246,6.3635,6.3991,6.4,6.4097,6.4421,6.4809,6.5263,6.5942,6.6711,6.7294,6.7643,6.7974,6.7942,6.7319,6.6906,6.6323,6.5708,6.5004,6.4388,6.4065,6.4,6.4,6.4,6.4,6.4,6.4,6.4999,6.5825,6.641,6.7761,6.9203,6.989,7.0431,7.0872,7.0782,7.0245,6.9708,6.9396,6.8893,6.8912,6.8765,6.7858,6.7118,6.8711,6.9292,6.9399,6.9423,6.9398,6.9787,6.9423,6.8626,6.862,6.7746,6.628,6.5952,6.5158,6.402,6.383,6.3331,6.2611,6.194,6.1909,6.2232,6.1119,6.0929,6.1403,6.0202,5.9602,5.9688,5.9205,5.8816,5.8603,5.8505,5.8268,5.7927,5.749,5.7259,5.7174,5.6659,5.656,5.6619,5.5161,5.456,5.5044,5.4378,5.3463,5.252,5.2857,5.2487,5.1206,5.2017,5.2587,5.2711,5.3045,5.327,5.3285,5.3746,5.4292,5.5009,5.5794,5.6809,5.7957,5.8885,5.9274,5.8918,5.9371,5.9986,6.0688,6.0785,6.0947,6.1303,6.221,6.2913,6.3182,6.3635,6.4,6.4,6.4,6.4194,6.4477,6.468,6.5036,6.5457,6.6258,6.6711,6.6971,6.7392,6.7521,6.7222,6.6809,6.6582,6.6323,6.5837,6.5254,6.4595,6.4191,6.4121,6.4162,6.4227,6.4395,6.453,6.5545,6.6377,6.6961,6.8367,6.949,6.9928,7.0501,7.0872,7.0951,7.0494,6.9939,6.9656,6.9352,6.8991,6.8367,6.7763,6.6959,6.9987,7.0578,7.1072,7.1262,7.1143,7.1205,7.0481,6.9348,6.9251,6.8773,6.7885,6.6936,6.6132,6.5379,6.4741,6.4077,6.3387,6.2667,6.2358,6.2358,6.1656,6.1656,6.213,6.0866,6.055,6.1065,6.089,6.0282,5.9659,6.0592,6.0353,5.8985,5.8591,5.8044,5.7345,5.7163,5.7237,5.7471,5.6036,5.5292,5.532,5.4725,5.4303,5.4174,5.3947,5.3912,5.4029,5.4571,5.4966,5.5318,5.5642,5.5831,5.5928,5.6792,5.7641,5.833,5.8717,5.913,5.9404,5.9015,5.9047,5.9555,5.9662,6.0018,6.072,6.0785,6.1368,6.2363,6.2784,6.3149,6.3797,6.3991,6.4032,6.4,6.4097,6.4453,6.5351,6.4833,6.4809,6.6809,6.5902,6.5457,6.6096,6.6388,6.6614,6.7165,6.7456,6.7521,6.719,6.6947,6.6542,6.5665,6.4775,6.4418,6.4775,6.493,6.5313,6.6279,6.701,6.7602,6.8335,6.8764,6.9465,7.0333,7.0546,7.0432,7.0512,7.0287,7.0189,6.9783,6.9603,6.9462,6.8781,6.825,6.7694,7.1573,7.1803,7.2046,7.21,7.2081,7.2391,7.1935,7.1022,7.1048,7.0428,6.9317,6.8518,6.76,6.6566,6.6245,6.5557,6.4561,6.425,6.3726,6.3103,6.2762,6.2671,6.2541,6.1677,6.1432,6.1814,6.1638,6.1147,6.0779,6.1464,6.155,6.0925,6.0511,5.9913,5.9068,5.8389,5.8216,5.8565,5.7587,5.6992,5.671,5.568,5.5224,5.552,5.6155,5.6293,5.5961,5.6581,5.7331,5.7902,5.7909,5.8047,5.8504,5.9098,5.9584,5.9891,5.9923,5.9997,6.012,6.0,5.9824,5.9727,6.0105,6.0494,6.0753,6.0785,6.1368,6.2622,6.2913,6.3182,6.3894,6.4324,6.4421,6.4194,6.4704,6.5189,6.4777,6.4712,6.4874,6.5287,6.5133,6.5101,6.5424,6.5813,6.6388,6.7035,6.7456,6.7553,6.7708,6.7728,6.7279,6.6555,6.583,6.5617,6.5834,6.589,6.6179,6.6641,6.7451,6.8282,6.8171,6.884,6.9463,7.0466,7.0297,7.0364,7.0906,7.059,7.0358,7.0034,6.9666,6.9516,6.9545,6.8518,6.7513,7.2923,7.304,7.2971,7.2952,7.3011,7.337,7.3124,7.2499,7.2499,7.1678,7.0371,6.9933,6.9065,6.7965,6.7427,6.6668,6.587,6.5596,6.502,6.415,6.4093,6.3893,6.3379,6.2811,6.262,6.279,6.2733,6.2532,6.2343,6.2221,6.2398,6.238,6.1855,6.1159,6.0378,5.9458,5.9251,5.9484,5.8871,5.8515,5.8402,5.7338,5.6668,5.6771,5.7988,5.8293,5.7529,5.8356,5.9103,5.9626,5.9625,5.9859,6.04,6.0838,6.1045,6.0919,6.0817,6.0633,6.042,6.0761,6.0594,5.9878,6.0526,6.0979,6.085,6.0947,6.1627,6.2686,6.2913,6.3182,6.3903,6.4421,6.4486,6.4129,6.5101,6.5295,6.4486,6.4745,6.4809,6.4388,6.4615,6.4712,6.4809,6.5295,6.5967,6.6388,6.6906,6.7294,6.7855,6.8006,6.8002,6.7382,6.7133,6.6941,6.6852,6.6771,6.6862,6.7299,6.8092,6.8138,6.7634,6.8432,6.8922,6.9519,6.9722,7.0128,7.0601,7.0568,7.0699,7.0565,7.0219,6.9917,7.0389,6.8919,6.7814,7.3868,7.4262,7.4156,7.407,7.412,7.412,7.3723,7.3077,7.3069,7.2266,7.1017,7.0894,7.0422,6.9565,6.8152,6.7206,6.7028,6.6501,6.6007,6.564,6.5616,6.5376,6.4891,6.4424,6.4279,6.4453,6.4538,6.4813,6.5271,6.37,6.2912,6.3138,6.2337,6.1351,6.0668,6.0432,6.0345,6.0353,5.9729,5.9655,6.0251,5.9667,5.8789,5.8055,5.8856,5.9438,5.9404,5.9766,6.0076,6.0076,6.0738,6.1163,6.1332,6.1955,6.2164,6.177,6.1682,6.1326,6.0734,6.1164,6.1033,6.0205,6.1156,6.1543,6.1136,6.1526,6.2175,6.2872,6.3006,6.3251,6.3909,6.4185,6.4162,6.4088,6.4647,6.5036,6.4906,6.4874,6.4971,6.4777,6.4388,6.4194,6.4097,6.4647,6.5084,6.5529,6.6347,6.7231,6.7476,6.8218,6.8612,6.8446,6.8242,6.807,6.7673,6.7432,6.7967,6.8282,6.8138,6.8361,6.8243,6.8245,6.8381,6.8673,6.9113,6.962,7.0161,7.0647,7.103,7.1008,7.0614,7.0557,7.0883,6.9903,6.8907,7.5622,7.494,7.4418,7.4196,7.4196,7.4196,7.403,7.3799,7.3799,7.3243,7.2415,7.2316,7.1918,7.1156,7.0235,6.9375,6.8625,6.845,6.7937,6.7183,6.7102,6.6855,6.6415,6.6217,6.6022,6.5882,6.6122,6.6345,6.6311,6.5386,6.4874,6.4724,6.4149,6.3417,6.2656,6.1896,6.1664,6.1816,6.1206,6.0892,6.1108,6.1253,6.0939,6.015,6.0415,6.0647,6.0647,6.0782,6.1095,6.1554,6.1434,6.1738,6.2651,6.3396,6.3741,6.3559,6.326,6.297,6.2722,6.3042,6.2891,6.2201,6.2848,6.3067,6.2585,6.2618,6.3045,6.3571,6.3475,6.3698,6.4258,6.4569,6.4477,6.4227,6.4995,6.5351,6.468,6.4712,6.4842,6.4453,6.4097,6.4,6.4174,6.45,6.498,6.5516,6.6251,6.6851,6.7485,6.8465,6.9071,6.8736,6.8987,6.9278,6.864,6.8091,6.7989,6.8122,6.8186,6.8085,6.8009,6.7535,6.7535,6.8741,6.9113,6.9485,7.0195,7.0872,7.1255,7.1222,7.0872,7.0906,7.1222,7.0297,6.9636,7.6026,7.4991,7.466,7.4395,7.4229,7.4461,7.4428,7.4196,7.4196,7.3799,7.321,7.3111,7.2738,7.2189,7.1875,7.1375,7.0571,7.0187,6.9467,6.8705,6.8648,6.8371,6.7953,6.7738,6.7592,6.7357,6.7367,6.7223,6.6762,6.6246,6.5897,6.5655,6.4946,6.4334,6.3798,6.2891,6.2632,6.2907,6.2412,6.2112,6.2322,6.2618,6.2651,6.2415,6.2381,6.2245,6.2023,6.1989,6.2347,6.2922,6.2618,6.2821,6.3781,6.4343,6.4613,6.4573,6.4314,6.4065,6.3986,6.4279,6.4163,6.3436,6.4089,6.4288,6.3469,6.368,6.4078,6.4222,6.4321,6.4437,6.4852,6.5255,6.5259,6.4825,6.5647,6.5946,6.4989,6.546,6.5362,6.4766,6.4528,6.4481,6.4481,6.4748,6.5138,6.5644,6.6171,6.6738,6.7525,6.8534,6.941,6.9098,6.939,6.9465,6.8948,6.8343,6.7938,6.8024,6.835,6.8144,6.7624,6.7151,6.732,6.8571,6.935,6.9722,7.0263,7.1007,7.1278,7.1289,7.1188,7.1154,7.1041,7.0703,7.0018,7.4958,7.4461,7.4991,7.4826,7.4329,7.4925,7.4826,7.4288,7.4288,7.3981,7.3409,7.3227,7.3068,7.2632,7.2706,7.2787,7.2613,7.1399,7.0567,7.02,7.02,6.9916,6.9375,6.8998,6.886,6.8926,6.8258,6.7569,6.6994,6.6365,6.5946,6.5561,6.4573,6.4179,6.4007,6.3492,6.3304,6.368,6.3265,6.3383,6.4316,6.3835,6.3748,6.4309,6.4343,6.4072,6.3511,6.3443,6.3734,6.4343,6.4444,6.4546,6.458,6.4749,6.4715,6.4816,6.4695,6.4456,6.417,6.4744,6.4686,6.4171,6.4773,6.5072,6.4361,6.4806,6.5216,6.4773,6.5017,6.5392,6.5492,6.5898,6.6113,6.5965,6.6429,6.6682,6.6644,6.7092,6.7049,6.5744,6.5368,6.5392,6.5381,6.5381,6.5525,6.5757,6.62,6.6865,6.7721,6.8728,6.9578,6.9993,6.985,6.9497,6.9011,6.8504,6.8199,6.7996,6.8415,6.847,6.7624,6.7049,6.7231,6.8233,6.9045,6.9451,7.0161,7.0838,7.1222,7.1289,7.1289,7.1289,7.1109,7.077,7.0161,7.5562,7.5025,7.519,7.4859,7.4329,7.4991,7.4994,7.4572,7.498,7.4881,7.4488,7.4413,7.4328,7.415,7.3874,7.3773,7.3777,7.2928,7.2254,7.178,7.1713,7.1332,7.0782,7.0557,7.0277,6.9801,6.9079,6.8605,6.8267,6.7557,6.7218,6.7015,6.6237,6.5816,6.5825,6.5205,6.4936,6.5037,6.4409,6.4255,6.458,6.441,6.441,6.4546,6.4613,6.4681,6.4952,6.4546,6.4377,6.4647,6.4613,6.4816,6.5324,6.5831,6.6102,6.6136,6.6081,6.6094,6.5969,6.6074,6.6314,6.6464,6.6892,6.6913,6.6565,6.6769,6.6769,6.6076,6.594,6.5878,6.5901,6.5769,6.5966,6.6248,6.6941,6.7351,6.7382,6.7515,6.7138,6.6386,6.6154,6.5955,6.5625,6.5681,6.6178,6.6567,6.6765,6.7175,6.8371,6.8953,6.9467,7.0029,6.9733,6.9451,6.891,6.8673,6.8571,6.8132,6.8267,6.8707,6.7895,6.7252,6.7455,6.7996,6.8774,6.935,7.006,7.0669,7.112,7.1255,7.1278,7.1278,7.1255,7.0872,7.0263,7.5695,7.5323,7.5425,7.5045,7.4447,7.5246,7.5239,7.4855,7.5222,7.5255,7.5035,7.4993,7.5042,7.5006,7.4748,7.4666,7.4728,7.4445,7.3916,7.324,7.2868,7.2529,7.209,7.1819,7.1142,7.0263,6.9722,6.935,6.9079,6.8605,6.8335,6.8233,6.759,6.7163,6.7151,6.6508,6.6102,6.6,6.5392,6.5121,6.5324,6.5155,6.5155,6.5425,6.5696,6.5899,6.6102,6.5899,6.5696,6.5493,6.5405,6.5662,6.6102,6.6542,6.6791,6.6791,6.6825,6.6859,6.7151,6.7197,6.7557,6.8166,6.8335,6.8335,6.8335,6.8335,6.7996,6.729,6.6963,6.6657,6.639,6.6419,6.6678,6.738,6.7667,6.8067,6.8347,6.8293,6.8015,6.7625,6.7502,6.7224,6.7012,6.6988,6.7362,6.7776,6.7769,6.7996,6.9113,6.9497,6.9857,6.9958,6.9688,6.9316,6.8808,6.8774,6.8944,6.847,6.8064,6.8504,6.8368,6.776,6.7658,6.8538,6.9316,6.935,6.9925,7.0737,7.1289,7.1255,7.1176,7.1255,7.1222,7.0872,7.0297,7.5547,7.5474,7.5695,7.5397,7.4856,7.5623,7.558,7.5085,7.5152,7.5176,7.51,7.5115,7.5189,7.5301,7.5272,7.5359,7.5628,7.554,7.5168,7.4559,7.4018,7.3544,7.3229,7.2699,7.1785,7.0669,7.0398,6.9992,6.9485,6.9248,6.9147,6.9079,6.8402,6.7963,6.7861,6.7286,6.6994,6.6948,6.6339,6.6339,6.6757,6.6237,6.6136,6.6757,6.732,6.7455,6.7184,6.7354,6.7354,6.6859,6.6656,6.6779,6.6859,6.6859,6.6927,6.696,6.6893,6.7252,6.7726,6.7929,6.8301,6.9045,6.9045,6.9147,6.9113,6.8876,6.8538,6.803,6.7818,6.7548,6.7121,6.745,6.8193,6.889,6.8875,6.9189,7.0005,6.96,6.9208,6.9105,6.9125,6.9069,6.8779,6.8789,6.8912,6.9035,6.8968,6.9248,6.9891,7.0195,7.0217,7.0094,6.9958,6.9553,6.918,6.9282,6.9439,6.918,6.8639,6.8673,6.8842,6.8267,6.8064,6.891,6.9654,6.9654,6.9891,7.0737,7.1086,7.0973,7.1041,7.1188,7.1154,7.0872,7.05,7.8165,7.7219,7.6916,7.6375,7.5764,7.5948,7.5704,7.5338,7.5809,7.5738,7.5571,7.5518,7.5518,7.5614,7.559,7.5628,7.5652,7.5676,7.5642,7.5405,7.5236,7.4424,7.3703,7.3331,7.2699,7.1887,7.1718,7.1447,7.0737,7.0229,6.998,6.9857,6.9214,6.8808,6.8741,6.8571,6.8504,6.8504,6.8301,6.7895,6.759,6.7455,6.7421,6.759,6.7861,6.8132,6.8368,6.8098,6.7557,6.6927,6.7354,6.759,6.7624,6.7624,6.7624,6.7624,6.7624,6.7692,6.7996,6.847,6.9113,6.9722,6.9519,6.935,6.9823,6.8842,6.8538,6.847,6.8301,6.7861,6.7793,6.8335,6.9079,6.9789,7.0108,7.049,7.0793,7.0838,7.0534,7.006,6.9925,6.9688,6.9383,6.9248,6.9417,6.9688,6.9654,6.9586,7.0432,7.0567,7.0432,7.0635,7.0534,7.0094,6.9789,6.9857,6.9913,6.9879,6.9485,6.9113,6.9045,6.8639,6.8707,6.9147,6.9925,7.0128,7.0297,7.0804,7.077,7.077,7.1041,7.1255,7.1289,7.1086,7.0737,7.9086,7.8011,7.7564,7.6952,7.6306,7.6371,7.6056,7.5614,7.5908,7.5947,7.5719,7.5676,7.5676,7.5676,7.5676,7.5676,7.5676,7.5676,7.5676,7.5676,7.5642,7.4999,7.4187,7.395,7.3578,7.2902,7.2868,7.2428,7.1819,7.1312,7.1007,7.0669,7.0263,6.9891,6.9553,6.9553,6.9383,6.9147,6.9079,6.8842,6.8436,6.8402,6.8402,6.8504,6.8673,6.9147,6.9417,6.8808,6.8199,6.7895,6.7895,6.803,6.8368,6.8402,6.8402,6.8402,6.8402,6.8538,6.8876,6.9316,7.0026,7.0737,7.0432,7.05,7.077,6.9992,6.9586,6.9451,6.9079,6.8741,6.8571,6.9113,6.9857,7.0534,7.1075,7.1289,7.1289,7.1255,7.1086,7.0804,7.0635,7.0534,7.0038,7.0026,7.0229,7.0466,7.0398,7.0635,7.1041,7.0804,7.0601,7.0737,7.0703,7.0195,6.9958,6.9992,6.9992,6.9958,7.0128,6.9755,6.962,6.935,6.9722,7.006,7.0432,7.0635,7.0669,7.0737,7.0804,7.0906,7.112,7.1255,7.1289,7.1289,7.0906,7.9232,7.8528,7.7976,7.736,7.6871,7.6864,7.6473,7.5912,7.5787,7.5719,7.5676,7.5676,7.5676,7.5676,7.5676,7.5676,7.5676,7.5676,7.5676,7.5676,7.5642,7.5303,7.4796,7.4728,7.439,7.3849,7.3703,7.3172,7.2665,7.2462,7.2157,7.1718,7.1481,7.1075,7.0601,7.0398,6.9992,6.9755,6.962,6.9688,6.9553,6.9417,6.9282,6.9519,6.9925,7.0161,7.0094,6.9654,6.9214,6.9316,6.8571,6.8639,6.9147,6.9214,6.9214,6.9214,6.9214,6.9451,6.9992,7.0161,7.077,7.165,7.1379,7.1548,7.165,7.1007,7.0398,7.0331,7.0229,6.9789,6.962,6.9925,7.0398,7.1041,7.1323,7.1447,7.1289,7.1289,7.1289,7.1289,7.1255,7.1289,7.1289,7.1289,7.1255,7.0939,7.0906,7.1007,7.1188,7.1109,7.0838,7.0635,7.0466,7.0229,7.0094,7.0026,6.9992,6.9992,7.0398,7.0398,7.0466,7.0466,7.0883,7.1188,7.1007,7.0804,7.0669,7.0737,7.085,7.0951,7.1142,7.1222,7.1289,7.1289,7.1052,8.1036,8.0229,7.923,7.8688,7.8375,7.7376,7.6826,7.6589,7.598,7.5743,7.5709,7.5709,7.5743,7.5709,7.5777,7.5676,7.5743,7.5743,7.5676,7.5676,7.5676,7.5642,7.5473,7.5439,7.5337,7.5033,7.4593,7.3984,7.3443,7.3274,7.3172,7.2958,7.236,7.209,7.1853,7.1345,7.1345,7.1481,7.1109,7.1007,7.1109,7.05,7.0263,7.068,7.0951,7.1041,7.0939,7.0364,7.0263,7.05,7.0195,6.9891,7.0026,7.0014,7.0026,7.0128,7.0026,7.0082,7.0319,7.0804,7.1176,7.1492,7.1176,7.0737,7.1345,7.0466,7.0297,7.0601,7.0567,7.0432,7.0804,7.0432,7.0804,7.1447,7.1921,7.1954,7.1458,7.1323,7.1357,7.1289,7.1289,7.1289,7.1289,7.1357,7.1357,7.1289,7.1323,7.1289,7.1289,7.1289,7.1086,7.0804,7.077,7.0635,7.0635,7.0567,7.05,7.0398,7.0669,7.0838,7.0939,7.1007,7.1222,7.1289,7.1255,7.1052,7.0838,7.0951,7.112,7.112,7.1142,7.1222,7.1289,7.1289,7.1255,8.1566,8.0546,7.9888,7.9228,7.8585,7.8111,7.7536,7.6927,7.6454,7.6251,7.6251,7.6251,7.6251,7.6251,7.6251,7.6284,7.6149,7.5845,7.5912,7.6082,7.598,7.5912,7.6115,7.5879,7.5676,7.5676,7.5743,7.51,7.4356,7.4255,7.4187,7.3534,7.3071,7.2665,7.2529,7.2293,7.209,7.1853,7.1887,7.1887,7.1718,7.1548,7.1345,7.1718,7.1819,7.1819,7.1751,7.1853,7.1954,7.2124,7.1921,7.1548,7.1176,7.0939,7.1041,7.1616,7.1345,7.1244,7.1413,7.1853,7.2225,7.1853,7.1413,7.1515,7.1515,7.0737,7.0534,7.1007,7.1075,7.1109,7.2124,7.1684,7.1751,7.2597,7.2834,7.2732,7.2394,7.2056,7.165,7.1424,7.1289,7.1289,7.1323,7.1515,7.1424,7.1424,7.1921,7.1887,7.1289,7.1289,7.1289,7.1154,7.1188,7.1188,7.1188,7.1154,7.1086,7.1019,7.1019,7.112,7.1154,7.1188,7.1255,7.1289,7.1289,7.1289,7.1154,7.1289,7.1289,7.1255,7.1222,7.1255,7.1289,7.1289,7.1289,8.1629,8.0344,8.0378,7.9566,7.8551,7.8991,7.8517,7.7367,7.7096,7.7063,7.7063,7.7063,7.7063,7.7029,7.686,7.686,7.6521,7.6082,7.598,7.6318,7.5912,7.6014,7.6251,7.5946,7.5709,7.5811,7.6149,7.5709,7.5202,7.527,7.4931,7.4041,7.368,7.3477,7.3071,7.3105,7.3037,7.2428,7.2293,7.2394,7.2033,7.2157,7.2022,7.2259,7.2293,7.2428,7.2597,7.2935,7.3364,7.35,7.35,7.3206,7.2766,7.2157,7.1988,7.3206,7.2631,7.2462,7.2496,7.2935,7.3105,7.2597,7.236,7.2326,7.2157,7.165,7.1244,7.1278,7.1413,7.1988,7.3206,7.2834,7.3138,7.3849,7.3815,7.368,7.3409,7.2992,7.2529,7.1695,7.1594,7.1627,7.165,7.1751,7.165,7.165,7.2157,7.2259,7.1661,7.1391,7.1492,7.1323,7.1289,7.1289,7.1289,7.1289,7.1289,7.1357,7.1357,7.1357,7.1323,7.1289,7.1289,7.1289,7.1289,7.1289,7.1289,7.1289,7.1289,7.1289,7.1289,7.1289,7.1289,7.1289,7.1357,8.19,8.1114,8.1088,8.0615,7.9904,7.9972,7.9498,7.872,7.8077,7.7807,7.7841,7.7807,7.7874,7.7671,7.713,7.6589,7.6183,7.5845,7.5845,7.6048,7.5777,7.5879,7.5879,7.5845,7.5676,7.5709,7.5912,7.5743,7.5574,7.5608,7.554,7.5202,7.4695,7.4289,7.3984,7.3849,7.3781,7.3409,7.3003,7.2969,7.324,7.2529,7.2124,7.2529,7.2665,7.2868,7.324,7.3432,7.35,7.35,7.35,7.3781,7.3883,7.3443,7.3105,7.3037,7.3308,7.3432,7.3375,7.3534,7.35,7.3206,7.2868,7.2496,7.2293,7.1853,7.1627,7.165,7.1988,7.2597,7.3364,7.3375,7.3432,7.3838,7.4187,7.4187,7.3849,7.3815,7.3612,7.2608,7.2304,7.2101,7.2191,7.2259,7.2293,7.2428,7.2834,7.2529,7.1785,7.1729,7.1898,7.1627,7.1289,7.1289,7.1289,7.1289,7.1345,7.1481,7.1515,7.1515,7.1458,7.1323,7.1289,7.1289,7.1289,7.1289,7.1289,7.1289,7.1391,7.1492,7.1424,7.1289,7.1458,7.1627,7.1785,8.2543,8.1832,8.146,8.0851,8.0276,8.0209,8.0006,7.9667,7.9295,7.9126,7.9126,7.9126,7.8889,7.845,7.7807,7.7029,7.642,7.5845,7.5946,7.6149,7.5912,7.5676,7.5743,7.5709,7.5676,7.5709,7.5676,7.5743,7.5743,7.6149,7.6048,7.5676,7.5303,7.4999,7.4762,7.4695,7.4322,7.4153,7.3747,7.3612,7.4018,7.28,7.2902,7.3308,7.351,7.3713,7.4018,7.4525,7.465,7.4684,7.4661,7.4627,7.4627,7.4661,7.4458,7.4221,7.439,7.4424,7.439,7.4627,7.4853,7.3635,7.3443,7.3308,7.3003,7.2699,7.2394,7.2496,7.2631,7.3274,7.4018,7.4052,7.4255,7.4593,7.4931,7.4897,7.4796,7.4965,7.439,7.3578,7.324,7.3003,7.2868,7.2935,7.3037,7.324,7.351,7.2935,7.2056,7.209,7.2326,7.1954,7.165,7.1695,7.1627,7.1548,7.1718,7.1853,7.1785,7.1785,7.1887,7.1887,7.156,7.1323,7.1323,7.156,7.1289,7.1289,7.1492,7.1661,7.156,7.1526,7.1763,7.1988,7.2157,8.3152,8.2577,8.1968,8.1325,8.0682,8.0648,8.0547,8.0412,8.0209,8.0107,8.0175,7.9972,7.9566,7.9025,7.8314,7.7628,7.7029,7.6318,7.6454,7.6758,7.6149,7.5777,7.6115,7.6038,7.6153,7.6659,7.6376,7.6082,7.6082,7.6284,7.6251,7.6048,7.5845,7.5473,7.5067,7.5303,7.4762,7.4492,7.4255,7.4187,7.3703,7.3534,7.3849,7.4525,7.457,7.4593,7.4864,7.5236,7.5473,7.554,7.554,7.5405,7.5067,7.554,7.5912,7.5946,7.5946,7.5608,7.5574,7.5946,7.5811,7.439,7.4424,7.4187,7.3849,7.351,7.3443,7.3646,7.3713,7.4018,7.4661,7.483,7.5067,7.5405,7.5574,7.5642,7.554,7.5506,7.5303,7.4695,7.4221,7.3781,7.3477,7.3612,7.3713,7.3713,7.3984,7.3781,7.3003,7.2665,7.2665,7.2259,7.2056,7.2225,7.2124,7.1853,7.2157,7.2563,7.2394,7.2225,7.2428,7.2631,7.2259,7.1988,7.2056,7.2191,7.1751,7.1391,7.1594,7.1718,7.1627,7.1729,7.2056,7.2428,7.2732,8.3456,8.3355,8.3253,8.2813,8.2137,8.2035,8.1697,8.1088,8.0479,8.0209,8.0175,7.96,7.9295,7.8889,7.8314,7.7967,7.7638,7.7198,7.7029,7.7333,7.6487,7.6536,7.7382,7.6995,7.7424,7.7843,7.776,7.7348,7.7014,7.6506,7.6352,7.6555,7.6115,7.5676,7.5642,7.5642,7.5608,7.5337,7.4897,7.4289,7.3771,7.3658,7.4098,7.4505,7.4799,7.5026,7.5489,7.5737,7.5781,7.5811,7.5743,7.5676,7.5709,7.6352,7.669,7.6758,7.6758,7.6724,7.6623,7.6826,7.6657,7.5439,7.5033,7.4661,7.4458,7.4221,7.421,7.4458,7.4525,7.483,7.5405,7.5506,7.5642,7.5676,7.5743,7.5709,7.5676,7.5676,7.554,7.5506,7.4931,7.4322,7.3916,7.4187,7.439,7.439,7.4322,7.4153,7.3849,7.3409,7.28,7.2326,7.2462,7.2665,7.2563,7.2293,7.2529,7.3105,7.2969,7.2699,7.2935,7.3138,7.3274,7.3071,7.306,7.2665,7.2124,7.1853,7.1853,7.1819,7.1819,7.2056,7.2326,7.2766,7.3229,8.4133,8.4099,8.3659,8.3084,8.2408,8.1968,8.1596,8.1257,8.0978,8.0581,8.0209,7.9904,7.9295,7.8585,7.8102,7.801,7.7908,7.7696,7.7401,7.7619,7.7203,7.729,7.7666,7.7884,7.8429,7.8942,7.901,7.9066,7.8476,7.775,7.7232,7.7314,7.6816,7.642,7.6245,7.5902,7.5743,7.5574,7.5371,7.5067,7.49,7.5043,7.5342,7.5648,7.5879,7.6038,7.608,7.6135,7.6242,7.6313,7.6386,7.6623,7.6927,7.7367,7.7671,7.8179,7.8179,7.7942,7.757,7.7536,7.7096,7.642,7.5743,7.527,7.5303,7.5676,7.5564,7.5236,7.5676,7.6014,7.6115,7.5946,7.6082,7.6082,7.5879,7.5743,7.5676,7.5676,7.5642,7.5676,7.5676,7.5202,7.4864,7.51,7.527,7.5168,7.4999,7.4762,7.4289,7.3713,7.3037,7.2259,7.2631,7.3105,7.2935,7.2699,7.2834,7.3297,7.3432,7.3297,7.3466,7.3635,7.3872,7.3737,7.3398,7.2992,7.2496,7.2259,7.2157,7.2124,7.2056,7.2428,7.28,7.3138,7.3635,8.458,8.4512,8.3828,8.3186,8.2611,8.1663,8.1317,8.1283,8.1046,8.0708,8.0276,7.9972,7.9228,7.8517,7.8348,7.8483,7.861,7.8496,7.8273,7.8162,7.8206,7.8518,7.8903,7.9227,7.9565,8.0225,8.0177,8.0396,8.0417,7.9751,7.8861,7.8332,7.7649,7.7169,7.6849,7.6488,7.6194,7.6194,7.6375,7.6307,7.6126,7.6381,7.6554,7.6759,7.6941,7.6964,7.6587,7.6472,7.658,7.6787,7.6826,7.7096,7.7671,7.8077,7.845,7.8889,7.9034,7.9092,7.8686,7.8416,7.7908,7.7266,7.6758,7.6386,7.6454,7.7425,7.773,7.642,7.6454,7.6758,7.6758,7.6149,7.6014,7.6048,7.598,7.5811,7.5777,7.6014,7.6014,7.5879,7.6014,7.6352,7.6115,7.6217,7.6183,7.6014,7.5743,7.5405,7.4796,7.4119,7.3477,7.28,7.324,7.3713,7.3612,7.3443,7.351,7.35,7.3669,7.3974,7.4187,7.4424,7.4661,7.438,7.3974,7.3781,7.3612,7.3037,7.2529,7.2868,7.3105,7.3037,7.3274,7.3703,7.4143,8.458,8.4546,8.3795,8.3422,8.3253,8.19,8.1291,8.1148,8.0547,8.0276,8.004,7.9523,7.9167,7.9065,7.9106,7.9436,8.0005,7.9805,7.9883,7.9963,7.9975,8.014,8.0488,8.0754,8.1089,8.1852,8.1771,8.1933,8.2118,8.1724,8.0556,7.9418,7.874,7.7926,7.7537,7.7434,7.7251,7.732,7.7652,7.7537,7.7239,7.718,7.7213,7.7166,7.7166,7.6986,7.6564,7.6656,7.6867,7.714,7.7222,7.757,7.8314,7.8788,7.916,7.9329,7.9701,7.9803,7.9634,7.9126,7.8619,7.8111,7.7773,7.7604,7.7468,7.7797,7.7899,7.7696,7.7401,7.7198,7.686,7.6318,7.6284,7.6487,7.6589,7.6217,7.6318,7.6657,7.6623,7.6217,7.6352,7.686,7.7029,7.7029,7.6995,7.6826,7.6454,7.6115,7.527,7.4593,7.4086,7.3713,7.4086,7.4356,7.4424,7.4356,7.4187,7.4086,7.4119,7.4593,7.51,7.527,7.5033,7.5236,7.4897,7.483,7.4593,7.3815,7.3443,7.3984,7.4187,7.3984,7.4356,7.4965,7.5236,8.458,8.4478,8.3355,8.2813,8.278,8.2205,8.146,8.0648,8.031,7.9904,7.9557,7.9074,7.9109,7.9523,7.995,8.0446,8.1053,8.1026,8.0974,8.085,8.0867,8.1135,8.1586,8.2199,8.2673,8.2993,8.3134,8.3042,8.2874,8.3101,8.2379,8.1267,8.0212,7.9741,7.9258,7.8786,7.8625,7.8637,7.8786,7.8648,7.8084,7.8145,7.8083,7.7667,7.8001,7.7807,7.7481,7.757,7.7741,7.7942,7.8113,7.8591,7.9058,7.9532,7.9701,7.9735,8.0073,8.0141,8.0107,7.9532,7.8788,7.8314,7.8314,7.8517,7.828,7.8779,7.8653,7.8382,7.8179,7.8044,7.8111,7.7638,7.7333,7.7502,7.7299,7.6826,7.686,7.7232,7.7198,7.6792,7.7164,7.7662,7.7764,7.7797,7.7705,7.7604,7.7198,7.6724,7.5946,7.5236,7.4796,7.4559,7.4897,7.4762,7.4796,7.4796,7.4772,7.4728,7.4627,7.4999,7.5371,7.4999,7.4897,7.5337,7.5676,7.5405,7.4965,7.4322,7.4221,7.4492,7.4695,7.4796,7.5371,7.6115,7.6318,8.458,8.4478,8.3498,8.2923,8.2678,8.2035,8.1325,8.0581,8.0276,8.0039,7.9646,7.9493,7.9758,8.0361,8.0736,8.1132,8.158,8.1722,8.1573,8.1621,8.1794,8.2152,8.2602,8.3157,8.376,8.3971,8.4297,8.438,8.4019,8.4485,8.3844,8.2884,8.2079,8.155,8.0522,8.0476,8.0164,7.9991,8.0095,7.9852,7.9282,7.9342,7.9225,7.8689,7.8819,7.8656,7.8394,7.8366,7.8615,7.8913,7.9163,7.9562,7.9946,8.0209,8.0209,8.0209,8.0209,8.0209,8.004,7.9769,7.9194,7.8991,7.916,7.9126,7.9092,7.96,7.9464,7.8991,7.9025,7.9126,7.9067,7.8314,7.7874,7.7874,7.7841,7.7468,7.757,7.7841,7.7638,7.7435,7.8044,7.872,7.8551,7.8585,7.8373,7.8145,7.7671,7.7333,7.6927,7.6284,7.5743,7.5608,7.5676,7.5405,7.51,7.5473,7.5743,7.5337,7.527,7.5134,7.5236,7.4999,7.4999,7.5439,7.5676,7.5676,7.554,7.5236,7.4965,7.483,7.5303,7.5946,7.6115,7.6758,7.7063,8.4546,8.458,8.4411,8.3971,8.3118,8.1156,8.0682,8.0945,8.0521,8.0535,8.0838,8.0873,8.1119,8.1556,8.1757,8.199,8.2025,8.2361,8.2453,8.2487,8.2656,8.3438,8.3869,8.4242,8.4547,8.5257,8.5455,8.542,8.5245,8.542,8.4929,8.4402,8.3674,8.2893,8.1191,8.169,8.162,8.1107,8.1638,8.1349,8.0872,8.0705,8.0341,7.9837,7.9725,7.9519,7.9505,7.9551,7.9832,8.0104,8.0159,8.0346,8.0399,8.0301,8.0284,8.0259,8.0234,8.0209,8.0175,8.0141,7.9972,7.9837,7.987,7.987,8.0006,8.0175,8.0141,7.96,7.9532,7.9236,7.8923,7.8619,7.8483,7.8416,7.8416,7.8314,7.8382,7.8619,7.8517,7.845,7.9261,7.9938,7.9667,7.9397,7.9058,7.8686,7.8179,7.7874,7.7705,7.7401,7.6927,7.6589,7.6589,7.6454,7.6284,7.6555,7.6623,7.6183,7.5912,7.5811,7.5811,7.5811,7.5811,7.5777,7.5709,7.5743,7.6048,7.6318,7.6251,7.6284,7.6792,7.7266,7.7299,7.7333,7.7638,8.3862,8.3761,8.2813,8.2543,8.2644,8.2035,8.1291,8.0691,8.0696,8.113,8.1699,8.1898,8.2048,8.2408,8.2974,8.3089,8.2878,8.3435,8.3629,8.3021,8.3142,8.3269,8.384,8.4683,8.5012,8.5139,8.5526,8.5982,8.5455,8.6017,8.5807,8.528,8.4648,8.37,8.28,8.2752,8.2625,8.2484,8.2625,8.2471,8.1804,8.1699,8.1369,8.0632,8.0562,8.0708,8.0977,8.1112,8.1441,8.1702,8.1791,8.1672,8.1273,8.0984,8.0612,8.0503,8.0394,8.0209,8.0209,8.0175,8.0175,8.0209,8.0209,8.0209,8.0209,8.0209,8.0209,8.0175,7.9938,7.9735,7.9735,7.9667,7.96,7.96,7.9532,7.9194,7.9228,7.9566,7.9667,7.9634,8.0107,8.0209,8.004,7.9904,7.9634,7.96,7.9228,7.8889,7.8686,7.8551,7.8213,7.7739,7.7561,7.7527,7.7536,7.7536,7.7468,7.713,7.6792,7.6555,7.6555,7.6623,7.6284,7.6115,7.5946,7.5845,7.6589,7.7266,7.7671,7.7976,7.7976,7.8145,7.8247,7.8145,7.8077,8.3118,8.3016,8.2069,8.1799,8.1968,8.1765,8.1131,8.0578,8.0857,8.1449,8.2139,8.2407,8.2811,8.3203,8.3591,8.4121,8.363,8.3748,8.4169,8.3524,8.3257,8.3853,8.4613,8.5069,8.5666,8.5701,8.6333,8.679,8.6532,8.686,8.6614,8.5947,8.5175,8.4613,8.4051,8.384,8.377,8.3876,8.4051,8.3735,8.3195,8.2875,8.2497,8.178,8.1612,8.1866,8.2549,8.3038,8.341,8.3618,8.3659,8.3365,8.2593,8.208,8.1682,8.1508,8.1282,8.0978,8.0767,8.0615,8.0547,8.0242,8.0209,8.0209,8.0209,8.0209,8.0209,8.0209,8.0209,8.0175,8.0175,8.0209,8.0209,8.0175,8.0073,7.9735,7.9769,8.0073,8.0412,8.0412,8.0445,8.0445,8.0479,8.031,8.0141,8.0242,8.031,7.9904,7.9498,7.9295,7.9126,7.872,7.8416,7.844,7.8314,7.8213,7.8145,7.8034,7.7773,7.757,7.7435,7.7468,7.6927,7.6555,7.6724,7.7063,7.7671,7.8213,7.8483,7.8483,7.8314,7.8585,7.9025,7.8889,7.8585,8.2348,8.2374,8.234,8.1892,8.1275,8.0766,8.0678,8.1063,8.1078,8.1633,8.2546,8.2569,8.3063,8.3926,8.3665,8.3805,8.4192,8.377,8.3923,8.3994,8.37,8.4625,8.528,8.5736,8.6087,8.7094,8.7691,8.7585,8.7761,8.7656,8.7269,8.6719,8.5947,8.5631,8.535,8.5114,8.4951,8.5022,8.5067,8.4773,8.4373,8.4458,8.3947,8.3342,8.3124,8.3599,8.4115,8.4434,8.486,8.5189,8.5478,8.4891,8.4361,8.4022,8.3655,8.3223,8.2768,8.2157,8.1665,8.1504,8.1072,8.0724,8.0454,8.0327,8.0209,8.0209,8.0209,8.0209,8.0209,8.0209,8.0209,8.0209,8.0209,8.0209,8.0209,8.0107,8.0141,8.0412,8.075,8.0885,8.0885,8.0953,8.1122,8.1021,8.0513,8.0615,8.0581,8.0209,7.9837,7.9566,7.9431,7.9431,7.9228,7.9261,7.916,7.8991,7.8923,7.888,7.8923,7.8754,7.8585,7.8247,7.7841,7.7638,7.7899,7.8179,7.845,7.8788,7.9126,7.9058,7.8923,7.8822,7.9228,7.916,7.8957,8.1596,8.1562,8.1054,8.0944,8.1081,8.121,8.1658,8.2215,8.216,8.2523,8.3288,8.3096,8.3298,8.3572,8.4437,8.4543,8.4613,8.4648,8.4578,8.4437,8.4262,8.4227,8.4753,8.5701,8.6158,8.6707,8.7234,8.7901,8.7866,8.7901,8.789,8.748,8.6742,8.6707,8.6741,8.6586,8.6119,8.5873,8.5941,8.5739,8.5653,8.5724,8.5296,8.5064,8.4952,8.5442,8.5938,8.6295,8.674,8.698,8.6944,8.6396,8.5659,8.4797,8.4008,8.3292,8.3081,8.2903,8.2717,8.2657,8.2291,8.1603,8.1358,8.0792,8.0487,8.0268,8.0268,8.0209,8.0209,8.0209,8.0209,8.0209,8.0209,8.0209,8.0209,8.0276,8.0344,8.0716,8.1088,8.1596,8.1596,8.1697,8.1832,8.119,8.0784,8.0945,8.0843,8.0412,8.0141,7.987,7.9735,7.9769,7.9769,7.9735,7.9837,7.9735,7.9735,7.9735,7.9769,7.9634,7.9194,7.8855,7.8653,7.8585,7.8653,7.8788,7.8957,7.9295,7.9634,7.9837,7.9769,7.9498,7.9329,7.9329,7.9397,8.0851,8.0835,8.063,8.0921,8.1575,8.1872,8.2418,8.2824,8.2639,8.2893,8.3354,8.3263,8.3384,8.377,8.4297,8.4578,8.4894,8.4823,8.4976,8.5491,8.4929,8.528,8.5631,8.5982,8.6544,8.6848,8.7199,8.7901,8.789,8.7959,8.7983,8.7854,8.7386,8.7631,8.7712,8.7558,8.7274,8.7037,8.6906,8.6749,8.6696,8.6723,8.6669,8.6557,8.6565,8.6999,8.7589,8.7884,8.8034,8.8319,8.8201,8.7834,8.705,8.6091,8.5305,8.4761,8.446,8.4163,8.3772,8.361,8.3225,8.2654,8.2203,8.1585,8.0985,8.0647,8.0386,8.0209,8.0209,8.0209,8.0209,8.0209,8.0209,8.0209,8.0276,8.0344,8.0648,8.1046,8.1596,8.2238,8.2441,8.2509,8.2171,8.146,8.0987,8.1012,8.0809,8.0378,8.0209,8.0107,8.004,8.004,8.0073,8.0107,8.0209,8.0209,8.0073,8.0141,8.0479,8.0242,7.9769,7.9735,7.9803,7.9566,7.9329,7.9431,7.9532,7.9803,8.0073,8.0209,8.0209,7.9938,7.9735,7.9735,7.987,8.0209,8.0293,8.0833,8.1575,8.2442,8.2533,8.2818,8.3142,8.2761,8.2783,8.3155,8.3186,8.356,8.3853,8.3959,8.4508,8.4894,8.5034,8.5526,8.6579,8.5666,8.5736,8.6333,8.7035,8.6895,8.748,8.789,8.7948,8.7983,8.8098,8.8167,8.7995,8.8074,8.8201,8.8189,8.8245,8.8088,8.813,8.8126,8.8087,8.7732,8.7652,8.7591,8.7101,8.7173,8.7493,8.8014,8.8321,8.85,8.9013,8.9162,8.8858,8.8207,8.7585,8.7006,8.6536,8.6079,8.5664,8.5204,8.5076,8.4405,8.3688,8.2803,8.2539,8.2116,8.0934,8.0453,8.0385,8.041,8.0335,8.0309,8.0234,8.0209,8.0209,8.0242,8.0513,8.0953,8.1393,8.2002,8.2509,8.2543,8.2644,8.2678,8.2002,8.1528,8.1325,8.0978,8.0513,8.031,8.031,8.0209,8.0209,8.0209,8.0209,8.0209,8.0209,8.0209,8.0378,8.0784,8.0885,8.0412,8.0648,8.108,8.0615,8.0141,8.0073,8.0175,8.0242,8.0209,8.0209,8.0209,8.0209,8.0141,8.0073,8.0107,8.0209,8.0276,8.1156,8.1919,8.2533,8.2896,8.3075,8.3186,8.3097,8.3075,8.3221,8.3244,8.3314,8.3524,8.4029,8.4718,8.521,8.5315,8.5842,8.6228,8.5912,8.5877,8.6321,8.6813,8.6918,8.7106,8.7503,8.8041,8.8144,8.8328,8.8487,8.8419,8.8487,8.8487,8.851,8.86,8.8721,8.881,8.8921,8.8885,8.8557,8.8724,8.877,8.8592,8.8714,8.8607,8.8928,8.8999,8.9106,8.9299,8.9299,8.8987,8.8506,8.8293,8.7935,8.7585,8.73,8.6934,8.6817,8.6487,8.6078,8.5454,8.473,8.4068,8.3045,8.1455,8.0628,8.0678,8.0619,8.0519,8.0444,8.0369,8.0259,8.0259,8.0234,8.0741,8.1215,8.1824,8.2374,8.2603,8.2611,8.2678,8.2813,8.2611,8.2205,8.1799,8.1393,8.0987,8.0682,8.0547,8.0242,8.0209,8.0209,8.0209,8.0209,8.0209,8.0209,8.0445,8.0818,8.0919,8.0987,8.1224,8.1452,8.1283,8.1012,8.0818,8.0581,8.0276,8.0242,8.0209,8.0209,8.0209,8.0209,8.0141,8.0175,8.036,8.0684,8.1636,8.2338,8.2829,8.3097,8.3208,8.3208,8.3208,8.3419,8.37,8.3713,8.3537,8.3524,8.4367,8.5034,8.5491,8.5491,8.5982,8.6298,8.6356,8.6158,8.6356,8.6834,8.7337,8.7572,8.7898,8.834,8.8396,8.8577,8.8712,8.8645,8.8667,8.8757,8.8757,8.8854,8.8965,8.9088,8.9291,8.9211,8.9088,8.9233,8.9299,8.9299,8.9299,8.9299,8.9299,8.9299,8.9299,8.9299,8.9299,8.9233,8.8854,8.8574,8.8348,8.8097,8.7889,8.7796,8.7819,8.7726,8.7527,8.6836,8.6229,8.5398,8.4807,8.3369,8.2521,8.2428,8.1564,8.1406,8.1201,8.1059,8.0761,8.0625,8.0603,8.0774,8.1377,8.2003,8.2698,8.3319,8.3173,8.278,8.2813,8.2712,8.2238,8.1629,8.1351,8.1114,8.0877,8.0648,8.0378,8.0209,8.0209,8.0209,8.0209,8.0209,8.0209,8.0479,8.0818,8.1325,8.1596,8.1663,8.1757,8.1757,8.1663,8.1426,8.1122,8.0716,8.0344,8.0276,8.0242,8.0209,8.0209,8.0209,8.0209,8.0684,8.1321,8.2141,8.2761,8.3164,8.3208,8.3208,8.3208,8.3208,8.3665,8.431,8.445,8.4086,8.4227,8.4753,8.528,8.5666,8.5877,8.6263,8.6742,8.6788,8.6601,8.6903,8.7487,8.779,8.8139,8.8452,8.8555,8.8622,8.8823,8.8912,8.8757,8.8859,8.9014,8.905,8.9036,8.916,8.9554,8.9691,8.9441,8.937,8.9334,8.9299,8.9299,8.9299,8.9299,8.9299,8.9299,8.9299,8.9299,8.9299,8.9277,8.9154,8.8877,8.8766,8.8564,8.8384,8.8224,8.8155,8.8166,8.8028,8.7736,8.7209,8.6685,8.6113,8.555,8.4682,8.4011,8.3174,8.2497,8.2291,8.1801,8.1493,8.119,8.1145,8.0913,8.1494,8.214,8.2956,8.3739,8.3406,8.292,8.3005,8.2844,8.2503,8.1859,8.1368,8.1012,8.0741,8.0513,8.0276,8.0209,8.0209,8.0209,8.0209,8.0209,8.0209,8.0445,8.0818,8.1596,8.2171,8.2137,8.2238,8.2475,8.234,8.1934,8.1629,8.1257,8.0885,8.0412,8.0242,8.0209,8.0209,8.0209,8.0209,8.1383,8.2234,8.2442,8.2783,8.3164,8.3208,8.3208,8.3208,8.3244,8.3665,8.4508,8.5069,8.5139,8.5069,8.528,8.5736,8.6263,8.6333,8.6953,8.755,8.6973,8.6936,8.7063,8.742,8.7956,8.841,8.8757,8.881,8.889,8.9066,8.9233,8.9217,8.9239,8.9519,9.004,8.9897,8.9697,9.0012,8.9834,8.9513,8.9869,8.9727,8.9334,8.9299,8.9299,8.9299,8.9299,8.9299,8.9299,8.9299,8.9299,8.9299,8.9255,8.9154,8.9066,8.9,8.8846,8.8846,8.8779,8.8779,8.869,8.8371,8.7972,8.7813,8.7432,8.727,8.6662,8.6417,8.5552,8.4586,8.4109,8.3034,8.2511,8.2239,8.207,8.1567,8.1591,8.2275,8.3034,8.3323,8.3255,8.3382,8.384,8.3793,8.3816,8.3185,8.2615,8.2224,8.1545,8.0919,8.0284,8.0284,8.0309,8.0209,8.0209,8.0209,8.0242,8.0445,8.0851,8.1663,8.2238,8.2449,8.2618,8.2881,8.2678,8.2238,8.1968,8.1486,8.1215,8.0716,8.0378,8.0209,8.0209,8.0209,8.0209]}]]